<?xml version="1.0" encoding="UTF-8" standalone="no" ?>
<gpx xmlns="http://www.topografix.com/GPX/1/1" xmlns:xsi="http://www.w3.org/2001/XMLSchema-instance" xsi:schemaLocation="http://www.topografix.com/GPX/1/1 http://www.topografix.com/GPX/1/1/gpx.xsd" version="1.1" creator="VisuGPX - https://www.visugpx.com">
  <metadata>
    <name>boue\'troude 2013 48 km</name>
    <desc><![CDATA[parcours superbe en forêt de la Londe  pour la Boue\'troude du 13 octobre 2013]]></desc>
  </metadata>
  <trk>
    <name><![CDATA[2013-10-13 08:07]]></name>
    <desc><![CDATA[<h1>OruxMaps</h1><br /><hr align="center" width="480" style="height: 2px; width: 517px"/><h2>Nom: 2013-10-13 08:07</h2><br /><p>Temps de départ: 10/13/2013 08:10</p><p>Temps d'arrivée: 10/13/2013 12:17</p><p>Distance: 47,4 km (04:06)</p><p>Temps déplacement: 03:14</p><p>Vitesse moyenne: 11,5 km/h</p><p>Vitesse moyenne: 14,5 km/h</p><p>Vitess Max.: 50,6 km/h</p><p>Altitude minimale: 39 m</p><p>Altitude maximale: 161 m</p><p>Vitesse d'élévation: 1049,5 m/h</p><p>Vitesse de descente: -1201,1 m/h</p><p>Gain Altitude: 2133 m</p><p>Perte Altitude: -2121 m</p><p>Temps d'élévation: 02:02</p><p>Temps de descente: 01:45</p><hr align="center" width="480" style="height: 2px; width: 517px"/>]]></desc>
    <trkseg>
      <trkpt lat="49.29833" lon="0.87844">
        <ele>131</ele>
        <time>2013-10-13T06:10:51Z</time>
      </trkpt>
      <trkpt lat="49.29853" lon="0.87874">
        <ele>131</ele>
        <time>2013-10-13T06:10:58Z</time>
      </trkpt>
      <trkpt lat="49.29857" lon="0.87844">
        <ele>131</ele>
        <time>2013-10-13T06:11:28Z</time>
      </trkpt>
      <trkpt lat="49.29863" lon="0.87818">
        <ele>130</ele>
        <time>2013-10-13T06:11:44Z</time>
      </trkpt>
      <trkpt lat="49.29881" lon="0.87818">
        <ele>130</ele>
        <time>2013-10-13T06:12:42Z</time>
      </trkpt>
      <trkpt lat="49.29863" lon="0.87819">
        <ele>130</ele>
        <time>2013-10-13T06:19:52Z</time>
      </trkpt>
      <trkpt lat="49.29844" lon="0.87802">
        <ele>130</ele>
        <time>2013-10-13T06:21:18Z</time>
      </trkpt>
      <trkpt lat="49.29836" lon="0.87777">
        <ele>131</ele>
        <time>2013-10-13T06:21:30Z</time>
      </trkpt>
      <trkpt lat="49.29851" lon="0.87751">
        <ele>131</ele>
        <time>2013-10-13T06:21:38Z</time>
      </trkpt>
      <trkpt lat="49.29874" lon="0.87742">
        <ele>131</ele>
        <time>2013-10-13T06:21:44Z</time>
      </trkpt>
      <trkpt lat="49.29895" lon="0.87738">
        <ele>130</ele>
        <time>2013-10-13T06:21:50Z</time>
      </trkpt>
      <trkpt lat="49.29916" lon="0.87731">
        <ele>130</ele>
        <time>2013-10-13T06:21:58Z</time>
      </trkpt>
      <trkpt lat="49.29917" lon="0.877">
        <ele>129</ele>
        <time>2013-10-13T06:22:04Z</time>
      </trkpt>
      <trkpt lat="49.29922" lon="0.87662">
        <ele>131</ele>
        <time>2013-10-13T06:22:10Z</time>
      </trkpt>
      <trkpt lat="49.29931" lon="0.87631">
        <ele>131</ele>
        <time>2013-10-13T06:22:16Z</time>
      </trkpt>
      <trkpt lat="49.29934" lon="0.87601">
        <ele>132</ele>
        <time>2013-10-13T06:22:24Z</time>
      </trkpt>
      <trkpt lat="49.29929" lon="0.87574">
        <ele>133</ele>
        <time>2013-10-13T06:22:30Z</time>
      </trkpt>
      <trkpt lat="49.29933" lon="0.87539">
        <ele>132</ele>
        <time>2013-10-13T06:22:38Z</time>
      </trkpt>
      <trkpt lat="49.2994" lon="0.87512">
        <ele>132</ele>
        <time>2013-10-13T06:22:46Z</time>
      </trkpt>
      <trkpt lat="49.29941" lon="0.87481">
        <ele>132</ele>
        <time>2013-10-13T06:22:58Z</time>
      </trkpt>
      <trkpt lat="49.29938" lon="0.87448">
        <ele>132</ele>
        <time>2013-10-13T06:23:08Z</time>
      </trkpt>
      <trkpt lat="49.29926" lon="0.87417">
        <ele>133</ele>
        <time>2013-10-13T06:23:16Z</time>
      </trkpt>
      <trkpt lat="49.29918" lon="0.87387">
        <ele>132</ele>
        <time>2013-10-13T06:23:24Z</time>
      </trkpt>
      <trkpt lat="49.29929" lon="0.87353">
        <ele>132</ele>
        <time>2013-10-13T06:23:30Z</time>
      </trkpt>
      <trkpt lat="49.29942" lon="0.87319">
        <ele>131</ele>
        <time>2013-10-13T06:23:36Z</time>
      </trkpt>
      <trkpt lat="49.29955" lon="0.87285">
        <ele>131</ele>
        <time>2013-10-13T06:23:42Z</time>
      </trkpt>
      <trkpt lat="49.29969" lon="0.8725">
        <ele>130</ele>
        <time>2013-10-13T06:23:48Z</time>
      </trkpt>
      <trkpt lat="49.29979" lon="0.87224">
        <ele>130</ele>
        <time>2013-10-13T06:23:52Z</time>
      </trkpt>
      <trkpt lat="49.29992" lon="0.87188">
        <ele>130</ele>
        <time>2013-10-13T06:23:58Z</time>
      </trkpt>
      <trkpt lat="49.30014" lon="0.87169">
        <ele>129</ele>
        <time>2013-10-13T06:24:04Z</time>
      </trkpt>
      <trkpt lat="49.3004" lon="0.87174">
        <ele>129</ele>
        <time>2013-10-13T06:24:10Z</time>
      </trkpt>
      <trkpt lat="49.30063" lon="0.87175">
        <ele>128</ele>
        <time>2013-10-13T06:24:14Z</time>
      </trkpt>
      <trkpt lat="49.30084" lon="0.87174">
        <ele>128</ele>
        <time>2013-10-13T06:24:18Z</time>
      </trkpt>
      <trkpt lat="49.30104" lon="0.87175">
        <ele>127</ele>
        <time>2013-10-13T06:24:22Z</time>
      </trkpt>
      <trkpt lat="49.30124" lon="0.87178">
        <ele>126</ele>
        <time>2013-10-13T06:24:26Z</time>
      </trkpt>
      <trkpt lat="49.30145" lon="0.87177">
        <ele>126</ele>
        <time>2013-10-13T06:24:30Z</time>
      </trkpt>
      <trkpt lat="49.30167" lon="0.87175">
        <ele>125</ele>
        <time>2013-10-13T06:24:34Z</time>
      </trkpt>
      <trkpt lat="49.30189" lon="0.87171">
        <ele>124</ele>
        <time>2013-10-13T06:24:38Z</time>
      </trkpt>
      <trkpt lat="49.30218" lon="0.87161">
        <ele>124</ele>
        <time>2013-10-13T06:24:42Z</time>
      </trkpt>
      <trkpt lat="49.30249" lon="0.87154">
        <ele>123</ele>
        <time>2013-10-13T06:24:46Z</time>
      </trkpt>
      <trkpt lat="49.3028" lon="0.87154">
        <ele>123</ele>
        <time>2013-10-13T06:24:50Z</time>
      </trkpt>
      <trkpt lat="49.30312" lon="0.87158">
        <ele>123</ele>
        <time>2013-10-13T06:24:54Z</time>
      </trkpt>
      <trkpt lat="49.3034" lon="0.87156">
        <ele>123</ele>
        <time>2013-10-13T06:24:58Z</time>
      </trkpt>
      <trkpt lat="49.30366" lon="0.87152">
        <ele>123</ele>
        <time>2013-10-13T06:25:02Z</time>
      </trkpt>
      <trkpt lat="49.30391" lon="0.8715">
        <ele>123</ele>
        <time>2013-10-13T06:25:06Z</time>
      </trkpt>
      <trkpt lat="49.30417" lon="0.87152">
        <ele>122</ele>
        <time>2013-10-13T06:25:10Z</time>
      </trkpt>
      <trkpt lat="49.30441" lon="0.87156">
        <ele>122</ele>
        <time>2013-10-13T06:25:14Z</time>
      </trkpt>
      <trkpt lat="49.30464" lon="0.87161">
        <ele>123</ele>
        <time>2013-10-13T06:25:18Z</time>
      </trkpt>
      <trkpt lat="49.30488" lon="0.87164">
        <ele>122</ele>
        <time>2013-10-13T06:25:22Z</time>
      </trkpt>
      <trkpt lat="49.30511" lon="0.87163">
        <ele>122</ele>
        <time>2013-10-13T06:25:26Z</time>
      </trkpt>
      <trkpt lat="49.30535" lon="0.8716">
        <ele>122</ele>
        <time>2013-10-13T06:25:30Z</time>
      </trkpt>
      <trkpt lat="49.30558" lon="0.87155">
        <ele>122</ele>
        <time>2013-10-13T06:25:34Z</time>
      </trkpt>
      <trkpt lat="49.30581" lon="0.87149">
        <ele>122</ele>
        <time>2013-10-13T06:25:38Z</time>
      </trkpt>
      <trkpt lat="49.30605" lon="0.87146">
        <ele>121</ele>
        <time>2013-10-13T06:25:42Z</time>
      </trkpt>
      <trkpt lat="49.3063" lon="0.87145">
        <ele>121</ele>
        <time>2013-10-13T06:25:46Z</time>
      </trkpt>
      <trkpt lat="49.30658" lon="0.87149">
        <ele>121</ele>
        <time>2013-10-13T06:25:50Z</time>
      </trkpt>
      <trkpt lat="49.30684" lon="0.87156">
        <ele>121</ele>
        <time>2013-10-13T06:25:54Z</time>
      </trkpt>
      <trkpt lat="49.30709" lon="0.87161">
        <ele>121</ele>
        <time>2013-10-13T06:25:58Z</time>
      </trkpt>
      <trkpt lat="49.30737" lon="0.87166">
        <ele>120</ele>
        <time>2013-10-13T06:26:02Z</time>
      </trkpt>
      <trkpt lat="49.30765" lon="0.87166">
        <ele>120</ele>
        <time>2013-10-13T06:26:06Z</time>
      </trkpt>
      <trkpt lat="49.30792" lon="0.87163">
        <ele>119</ele>
        <time>2013-10-13T06:26:10Z</time>
      </trkpt>
      <trkpt lat="49.30819" lon="0.87155">
        <ele>119</ele>
        <time>2013-10-13T06:26:14Z</time>
      </trkpt>
      <trkpt lat="49.30844" lon="0.87143">
        <ele>118</ele>
        <time>2013-10-13T06:26:18Z</time>
      </trkpt>
      <trkpt lat="49.30871" lon="0.87127">
        <ele>118</ele>
        <time>2013-10-13T06:26:22Z</time>
      </trkpt>
      <trkpt lat="49.30897" lon="0.87115">
        <ele>118</ele>
        <time>2013-10-13T06:26:26Z</time>
      </trkpt>
      <trkpt lat="49.30924" lon="0.87113">
        <ele>120</ele>
        <time>2013-10-13T06:26:30Z</time>
      </trkpt>
      <trkpt lat="49.30946" lon="0.87117">
        <ele>120</ele>
        <time>2013-10-13T06:26:34Z</time>
      </trkpt>
      <trkpt lat="49.30969" lon="0.87117">
        <ele>121</ele>
        <time>2013-10-13T06:26:38Z</time>
      </trkpt>
      <trkpt lat="49.30989" lon="0.8711">
        <ele>121</ele>
        <time>2013-10-13T06:26:42Z</time>
      </trkpt>
      <trkpt lat="49.31006" lon="0.87096">
        <ele>124</ele>
        <time>2013-10-13T06:26:46Z</time>
      </trkpt>
      <trkpt lat="49.31017" lon="0.87126">
        <ele>124</ele>
        <time>2013-10-13T06:26:54Z</time>
      </trkpt>
      <trkpt lat="49.31015" lon="0.87163">
        <ele>123</ele>
        <time>2013-10-13T06:26:58Z</time>
      </trkpt>
      <trkpt lat="49.31014" lon="0.87198">
        <ele>122</ele>
        <time>2013-10-13T06:27:02Z</time>
      </trkpt>
      <trkpt lat="49.31024" lon="0.87226">
        <ele>122</ele>
        <time>2013-10-13T06:27:06Z</time>
      </trkpt>
      <trkpt lat="49.31041" lon="0.87251">
        <ele>121</ele>
        <time>2013-10-13T06:27:10Z</time>
      </trkpt>
      <trkpt lat="49.31057" lon="0.87276">
        <ele>121</ele>
        <time>2013-10-13T06:27:14Z</time>
      </trkpt>
      <trkpt lat="49.3107" lon="0.87306">
        <ele>121</ele>
        <time>2013-10-13T06:27:18Z</time>
      </trkpt>
      <trkpt lat="49.3108" lon="0.87336">
        <ele>121</ele>
        <time>2013-10-13T06:27:22Z</time>
      </trkpt>
      <trkpt lat="49.31092" lon="0.87367">
        <ele>121</ele>
        <time>2013-10-13T06:27:26Z</time>
      </trkpt>
      <trkpt lat="49.31103" lon="0.87394">
        <ele>121</ele>
        <time>2013-10-13T06:27:30Z</time>
      </trkpt>
      <trkpt lat="49.31114" lon="0.87422">
        <ele>120</ele>
        <time>2013-10-13T06:27:34Z</time>
      </trkpt>
      <trkpt lat="49.31125" lon="0.8745">
        <ele>120</ele>
        <time>2013-10-13T06:27:38Z</time>
      </trkpt>
      <trkpt lat="49.31136" lon="0.87478">
        <ele>120</ele>
        <time>2013-10-13T06:27:42Z</time>
      </trkpt>
      <trkpt lat="49.31149" lon="0.87509">
        <ele>120</ele>
        <time>2013-10-13T06:27:46Z</time>
      </trkpt>
      <trkpt lat="49.31162" lon="0.87537">
        <ele>121</ele>
        <time>2013-10-13T06:27:50Z</time>
      </trkpt>
      <trkpt lat="49.31176" lon="0.87562">
        <ele>122</ele>
        <time>2013-10-13T06:27:54Z</time>
      </trkpt>
      <trkpt lat="49.31188" lon="0.87585">
        <ele>122</ele>
        <time>2013-10-13T06:27:58Z</time>
      </trkpt>
      <trkpt lat="49.31203" lon="0.8761">
        <ele>121</ele>
        <time>2013-10-13T06:28:02Z</time>
      </trkpt>
      <trkpt lat="49.31218" lon="0.8763">
        <ele>121</ele>
        <time>2013-10-13T06:28:06Z</time>
      </trkpt>
      <trkpt lat="49.31235" lon="0.87656">
        <ele>121</ele>
        <time>2013-10-13T06:28:10Z</time>
      </trkpt>
      <trkpt lat="49.31253" lon="0.87683">
        <ele>121</ele>
        <time>2013-10-13T06:28:14Z</time>
      </trkpt>
      <trkpt lat="49.3127" lon="0.87709">
        <ele>121</ele>
        <time>2013-10-13T06:28:18Z</time>
      </trkpt>
      <trkpt lat="49.31294" lon="0.87735">
        <ele>121</ele>
        <time>2013-10-13T06:28:22Z</time>
      </trkpt>
      <trkpt lat="49.31319" lon="0.87753">
        <ele>121</ele>
        <time>2013-10-13T06:28:26Z</time>
      </trkpt>
      <trkpt lat="49.31335" lon="0.87785">
        <ele>120</ele>
        <time>2013-10-13T06:28:30Z</time>
      </trkpt>
      <trkpt lat="49.31342" lon="0.87823">
        <ele>120</ele>
        <time>2013-10-13T06:28:34Z</time>
      </trkpt>
      <trkpt lat="49.31349" lon="0.87861">
        <ele>119</ele>
        <time>2013-10-13T06:28:38Z</time>
      </trkpt>
      <trkpt lat="49.31357" lon="0.87898">
        <ele>119</ele>
        <time>2013-10-13T06:28:42Z</time>
      </trkpt>
      <trkpt lat="49.31366" lon="0.87936">
        <ele>119</ele>
        <time>2013-10-13T06:28:46Z</time>
      </trkpt>
      <trkpt lat="49.31377" lon="0.87974">
        <ele>119</ele>
        <time>2013-10-13T06:28:50Z</time>
      </trkpt>
      <trkpt lat="49.31388" lon="0.88007">
        <ele>119</ele>
        <time>2013-10-13T06:28:54Z</time>
      </trkpt>
      <trkpt lat="49.31405" lon="0.88042">
        <ele>119</ele>
        <time>2013-10-13T06:28:58Z</time>
      </trkpt>
      <trkpt lat="49.31424" lon="0.88075">
        <ele>118</ele>
        <time>2013-10-13T06:29:02Z</time>
      </trkpt>
      <trkpt lat="49.31442" lon="0.88103">
        <ele>117</ele>
        <time>2013-10-13T06:29:06Z</time>
      </trkpt>
      <trkpt lat="49.3146" lon="0.88134">
        <ele>117</ele>
        <time>2013-10-13T06:29:10Z</time>
      </trkpt>
      <trkpt lat="49.31476" lon="0.88166">
        <ele>117</ele>
        <time>2013-10-13T06:29:14Z</time>
      </trkpt>
      <trkpt lat="49.3149" lon="0.88202">
        <ele>117</ele>
        <time>2013-10-13T06:29:18Z</time>
      </trkpt>
      <trkpt lat="49.31501" lon="0.88233">
        <ele>116</ele>
        <time>2013-10-13T06:29:22Z</time>
      </trkpt>
      <trkpt lat="49.31513" lon="0.88264">
        <ele>117</ele>
        <time>2013-10-13T06:29:26Z</time>
      </trkpt>
      <trkpt lat="49.31525" lon="0.88297">
        <ele>116</ele>
        <time>2013-10-13T06:29:30Z</time>
      </trkpt>
      <trkpt lat="49.31535" lon="0.88321">
        <ele>116</ele>
        <time>2013-10-13T06:29:34Z</time>
      </trkpt>
      <trkpt lat="49.31564" lon="0.88304">
        <ele>116</ele>
        <time>2013-10-13T06:29:40Z</time>
      </trkpt>
      <trkpt lat="49.31589" lon="0.88279">
        <ele>114</ele>
        <time>2013-10-13T06:29:44Z</time>
      </trkpt>
      <trkpt lat="49.31614" lon="0.88253">
        <ele>114</ele>
        <time>2013-10-13T06:29:48Z</time>
      </trkpt>
      <trkpt lat="49.31636" lon="0.88229">
        <ele>113</ele>
        <time>2013-10-13T06:29:52Z</time>
      </trkpt>
      <trkpt lat="49.31657" lon="0.88204">
        <ele>112</ele>
        <time>2013-10-13T06:29:56Z</time>
      </trkpt>
      <trkpt lat="49.31679" lon="0.88179">
        <ele>110</ele>
        <time>2013-10-13T06:30:00Z</time>
      </trkpt>
      <trkpt lat="49.31699" lon="0.88162">
        <ele>109</ele>
        <time>2013-10-13T06:30:04Z</time>
      </trkpt>
      <trkpt lat="49.31718" lon="0.88169">
        <ele>109</ele>
        <time>2013-10-13T06:30:08Z</time>
      </trkpt>
      <trkpt lat="49.31738" lon="0.88186">
        <ele>109</ele>
        <time>2013-10-13T06:30:12Z</time>
      </trkpt>
      <trkpt lat="49.31758" lon="0.88209">
        <ele>108</ele>
        <time>2013-10-13T06:30:16Z</time>
      </trkpt>
      <trkpt lat="49.3178" lon="0.88229">
        <ele>107</ele>
        <time>2013-10-13T06:30:20Z</time>
      </trkpt>
      <trkpt lat="49.31803" lon="0.88241">
        <ele>107</ele>
        <time>2013-10-13T06:30:24Z</time>
      </trkpt>
      <trkpt lat="49.31827" lon="0.8825">
        <ele>106</ele>
        <time>2013-10-13T06:30:28Z</time>
      </trkpt>
      <trkpt lat="49.31852" lon="0.88256">
        <ele>106</ele>
        <time>2013-10-13T06:30:32Z</time>
      </trkpt>
      <trkpt lat="49.31874" lon="0.8826">
        <ele>106</ele>
        <time>2013-10-13T06:30:36Z</time>
      </trkpt>
      <trkpt lat="49.31896" lon="0.88264">
        <ele>107</ele>
        <time>2013-10-13T06:30:40Z</time>
      </trkpt>
      <trkpt lat="49.31916" lon="0.88263">
        <ele>107</ele>
        <time>2013-10-13T06:30:44Z</time>
      </trkpt>
      <trkpt lat="49.31934" lon="0.88248">
        <ele>108</ele>
        <time>2013-10-13T06:30:48Z</time>
      </trkpt>
      <trkpt lat="49.31948" lon="0.88225">
        <ele>109</ele>
        <time>2013-10-13T06:30:52Z</time>
      </trkpt>
      <trkpt lat="49.31966" lon="0.88223">
        <ele>109</ele>
        <time>2013-10-13T06:30:56Z</time>
      </trkpt>
      <trkpt lat="49.31988" lon="0.88234">
        <ele>110</ele>
        <time>2013-10-13T06:31:02Z</time>
      </trkpt>
      <trkpt lat="49.32012" lon="0.8825">
        <ele>114</ele>
        <time>2013-10-13T06:31:08Z</time>
      </trkpt>
      <trkpt lat="49.3203" lon="0.88258">
        <ele>116</ele>
        <time>2013-10-13T06:31:14Z</time>
      </trkpt>
      <trkpt lat="49.32052" lon="0.88263">
        <ele>118</ele>
        <time>2013-10-13T06:31:22Z</time>
      </trkpt>
      <trkpt lat="49.32071" lon="0.88263">
        <ele>120</ele>
        <time>2013-10-13T06:31:30Z</time>
      </trkpt>
      <trkpt lat="49.32066" lon="0.883">
        <ele>120</ele>
        <time>2013-10-13T06:31:42Z</time>
      </trkpt>
      <trkpt lat="49.32064" lon="0.8833">
        <ele>121</ele>
        <time>2013-10-13T06:31:48Z</time>
      </trkpt>
      <trkpt lat="49.32059" lon="0.88364">
        <ele>120</ele>
        <time>2013-10-13T06:31:56Z</time>
      </trkpt>
      <trkpt lat="49.32054" lon="0.88397">
        <ele>120</ele>
        <time>2013-10-13T06:32:02Z</time>
      </trkpt>
      <trkpt lat="49.32051" lon="0.88424">
        <ele>120</ele>
        <time>2013-10-13T06:32:08Z</time>
      </trkpt>
      <trkpt lat="49.32052" lon="0.88457">
        <ele>120</ele>
        <time>2013-10-13T06:32:16Z</time>
      </trkpt>
      <trkpt lat="49.32056" lon="0.88485">
        <ele>121</ele>
        <time>2013-10-13T06:32:22Z</time>
      </trkpt>
      <trkpt lat="49.3206" lon="0.88513">
        <ele>122</ele>
        <time>2013-10-13T06:32:28Z</time>
      </trkpt>
      <trkpt lat="49.32069" lon="0.88538">
        <ele>122</ele>
        <time>2013-10-13T06:32:34Z</time>
      </trkpt>
      <trkpt lat="49.32076" lon="0.88571">
        <ele>124</ele>
        <time>2013-10-13T06:32:40Z</time>
      </trkpt>
      <trkpt lat="49.32084" lon="0.88606">
        <ele>127</ele>
        <time>2013-10-13T06:32:46Z</time>
      </trkpt>
      <trkpt lat="49.32084" lon="0.88634">
        <ele>127</ele>
        <time>2013-10-13T06:32:54Z</time>
      </trkpt>
      <trkpt lat="49.32089" lon="0.8867">
        <ele>124</ele>
        <time>2013-10-13T06:33:00Z</time>
      </trkpt>
      <trkpt lat="49.32096" lon="0.88706">
        <ele>125</ele>
        <time>2013-10-13T06:33:06Z</time>
      </trkpt>
      <trkpt lat="49.32099" lon="0.88737">
        <ele>124</ele>
        <time>2013-10-13T06:33:10Z</time>
      </trkpt>
      <trkpt lat="49.32076" lon="0.88758">
        <ele>121</ele>
        <time>2013-10-13T06:33:22Z</time>
      </trkpt>
      <trkpt lat="49.32056" lon="0.88748">
        <ele>121</ele>
        <time>2013-10-13T06:33:30Z</time>
      </trkpt>
      <trkpt lat="49.32035" lon="0.88732">
        <ele>121</ele>
        <time>2013-10-13T06:33:38Z</time>
      </trkpt>
      <trkpt lat="49.32017" lon="0.88715">
        <ele>121</ele>
        <time>2013-10-13T06:33:50Z</time>
      </trkpt>
      <trkpt lat="49.31999" lon="0.88722">
        <ele>119</ele>
        <time>2013-10-13T06:33:58Z</time>
      </trkpt>
      <trkpt lat="49.31987" lon="0.88749">
        <ele>119</ele>
        <time>2013-10-13T06:34:06Z</time>
      </trkpt>
      <trkpt lat="49.31974" lon="0.88772">
        <ele>117</ele>
        <time>2013-10-13T06:34:14Z</time>
      </trkpt>
      <trkpt lat="49.31954" lon="0.88773">
        <ele>116</ele>
        <time>2013-10-13T06:34:20Z</time>
      </trkpt>
      <trkpt lat="49.31934" lon="0.88776">
        <ele>116</ele>
        <time>2013-10-13T06:34:26Z</time>
      </trkpt>
      <trkpt lat="49.31915" lon="0.88775">
        <ele>113</ele>
        <time>2013-10-13T06:34:32Z</time>
      </trkpt>
      <trkpt lat="49.31893" lon="0.88773">
        <ele>112</ele>
        <time>2013-10-13T06:34:36Z</time>
      </trkpt>
      <trkpt lat="49.31872" lon="0.8879">
        <ele>112</ele>
        <time>2013-10-13T06:34:40Z</time>
      </trkpt>
      <trkpt lat="49.31858" lon="0.88808">
        <ele>112</ele>
        <time>2013-10-13T06:34:44Z</time>
      </trkpt>
      <trkpt lat="49.31862" lon="0.8885">
        <ele>117</ele>
        <time>2013-10-13T06:34:58Z</time>
      </trkpt>
      <trkpt lat="49.31882" lon="0.88865">
        <ele>118</ele>
        <time>2013-10-13T06:35:06Z</time>
      </trkpt>
      <trkpt lat="49.31901" lon="0.88866">
        <ele>118</ele>
        <time>2013-10-13T06:35:12Z</time>
      </trkpt>
      <trkpt lat="49.31924" lon="0.88871">
        <ele>121</ele>
        <time>2013-10-13T06:35:20Z</time>
      </trkpt>
      <trkpt lat="49.31943" lon="0.88881">
        <ele>122</ele>
        <time>2013-10-13T06:35:26Z</time>
      </trkpt>
      <trkpt lat="49.31963" lon="0.88886">
        <ele>122</ele>
        <time>2013-10-13T06:35:32Z</time>
      </trkpt>
      <trkpt lat="49.31983" lon="0.88898">
        <ele>124</ele>
        <time>2013-10-13T06:35:40Z</time>
      </trkpt>
      <trkpt lat="49.31998" lon="0.88915">
        <ele>127</ele>
        <time>2013-10-13T06:35:46Z</time>
      </trkpt>
      <trkpt lat="49.32011" lon="0.88934">
        <ele>129</ele>
        <time>2013-10-13T06:35:52Z</time>
      </trkpt>
      <trkpt lat="49.32023" lon="0.88966">
        <ele>130</ele>
        <time>2013-10-13T06:36:00Z</time>
      </trkpt>
      <trkpt lat="49.32038" lon="0.88988">
        <ele>130</ele>
        <time>2013-10-13T06:36:06Z</time>
      </trkpt>
      <trkpt lat="49.32057" lon="0.89007">
        <ele>132</ele>
        <time>2013-10-13T06:36:12Z</time>
      </trkpt>
      <trkpt lat="49.32075" lon="0.89019">
        <ele>132</ele>
        <time>2013-10-13T06:36:16Z</time>
      </trkpt>
      <trkpt lat="49.32093" lon="0.89027">
        <ele>131</ele>
        <time>2013-10-13T06:36:22Z</time>
      </trkpt>
      <trkpt lat="49.32112" lon="0.89032">
        <ele>131</ele>
        <time>2013-10-13T06:36:28Z</time>
      </trkpt>
      <trkpt lat="49.32131" lon="0.89039">
        <ele>130</ele>
        <time>2013-10-13T06:36:32Z</time>
      </trkpt>
      <trkpt lat="49.32151" lon="0.89049">
        <ele>130</ele>
        <time>2013-10-13T06:36:40Z</time>
      </trkpt>
      <trkpt lat="49.32169" lon="0.89057">
        <ele>128</ele>
        <time>2013-10-13T06:36:46Z</time>
      </trkpt>
      <trkpt lat="49.32189" lon="0.89063">
        <ele>128</ele>
        <time>2013-10-13T06:36:54Z</time>
      </trkpt>
      <trkpt lat="49.32208" lon="0.89066">
        <ele>127</ele>
        <time>2013-10-13T06:37:00Z</time>
      </trkpt>
      <trkpt lat="49.32226" lon="0.89057">
        <ele>127</ele>
        <time>2013-10-13T06:37:08Z</time>
      </trkpt>
      <trkpt lat="49.32247" lon="0.89053">
        <ele>126</ele>
        <time>2013-10-13T06:37:14Z</time>
      </trkpt>
      <trkpt lat="49.32267" lon="0.8905">
        <ele>126</ele>
        <time>2013-10-13T06:37:18Z</time>
      </trkpt>
      <trkpt lat="49.32284" lon="0.89027">
        <ele>127</ele>
        <time>2013-10-13T06:37:26Z</time>
      </trkpt>
      <trkpt lat="49.32292" lon="0.89001">
        <ele>126</ele>
        <time>2013-10-13T06:37:34Z</time>
      </trkpt>
      <trkpt lat="49.32304" lon="0.88975">
        <ele>125</ele>
        <time>2013-10-13T06:37:40Z</time>
      </trkpt>
      <trkpt lat="49.32322" lon="0.88956">
        <ele>124</ele>
        <time>2013-10-13T06:37:48Z</time>
      </trkpt>
      <trkpt lat="49.32341" lon="0.88946">
        <ele>125</ele>
        <time>2013-10-13T06:37:56Z</time>
      </trkpt>
      <trkpt lat="49.32359" lon="0.88952">
        <ele>125</ele>
        <time>2013-10-13T06:38:04Z</time>
      </trkpt>
      <trkpt lat="49.32377" lon="0.88963">
        <ele>126</ele>
        <time>2013-10-13T06:38:10Z</time>
      </trkpt>
      <trkpt lat="49.32402" lon="0.88975">
        <ele>127</ele>
        <time>2013-10-13T06:38:16Z</time>
      </trkpt>
      <trkpt lat="49.32418" lon="0.88986">
        <ele>130</ele>
        <time>2013-10-13T06:38:20Z</time>
      </trkpt>
      <trkpt lat="49.32437" lon="0.88995">
        <ele>129</ele>
        <time>2013-10-13T06:38:26Z</time>
      </trkpt>
      <trkpt lat="49.32456" lon="0.89005">
        <ele>131</ele>
        <time>2013-10-13T06:38:32Z</time>
      </trkpt>
      <trkpt lat="49.32475" lon="0.89021">
        <ele>132</ele>
        <time>2013-10-13T06:38:40Z</time>
      </trkpt>
      <trkpt lat="49.32496" lon="0.89029">
        <ele>132</ele>
        <time>2013-10-13T06:38:48Z</time>
      </trkpt>
      <trkpt lat="49.32516" lon="0.89041">
        <ele>133</ele>
        <time>2013-10-13T06:38:54Z</time>
      </trkpt>
      <trkpt lat="49.32531" lon="0.89058">
        <ele>133</ele>
        <time>2013-10-13T06:39:00Z</time>
      </trkpt>
      <trkpt lat="49.3255" lon="0.89069">
        <ele>133</ele>
        <time>2013-10-13T06:39:06Z</time>
      </trkpt>
      <trkpt lat="49.32572" lon="0.89089">
        <ele>134</ele>
        <time>2013-10-13T06:39:14Z</time>
      </trkpt>
      <trkpt lat="49.32594" lon="0.89104">
        <ele>132</ele>
        <time>2013-10-13T06:39:20Z</time>
      </trkpt>
      <trkpt lat="49.32609" lon="0.89084">
        <ele>132</ele>
        <time>2013-10-13T06:39:32Z</time>
      </trkpt>
      <trkpt lat="49.32615" lon="0.89053">
        <ele>131</ele>
        <time>2013-10-13T06:39:38Z</time>
      </trkpt>
      <trkpt lat="49.32618" lon="0.8902">
        <ele>130</ele>
        <time>2013-10-13T06:39:44Z</time>
      </trkpt>
      <trkpt lat="49.32614" lon="0.88985">
        <ele>131</ele>
        <time>2013-10-13T06:39:50Z</time>
      </trkpt>
      <trkpt lat="49.32621" lon="0.88943">
        <ele>131</ele>
        <time>2013-10-13T06:39:56Z</time>
      </trkpt>
      <trkpt lat="49.32631" lon="0.88917">
        <ele>132</ele>
        <time>2013-10-13T06:40:00Z</time>
      </trkpt>
      <trkpt lat="49.32639" lon="0.88881">
        <ele>135</ele>
        <time>2013-10-13T06:40:06Z</time>
      </trkpt>
      <trkpt lat="49.32646" lon="0.88844">
        <ele>137</ele>
        <time>2013-10-13T06:40:12Z</time>
      </trkpt>
      <trkpt lat="49.3265" lon="0.88811">
        <ele>139</ele>
        <time>2013-10-13T06:40:18Z</time>
      </trkpt>
      <trkpt lat="49.32657" lon="0.88777">
        <ele>140</ele>
        <time>2013-10-13T06:40:26Z</time>
      </trkpt>
      <trkpt lat="49.32659" lon="0.88743">
        <ele>140</ele>
        <time>2013-10-13T06:40:32Z</time>
      </trkpt>
      <trkpt lat="49.32666" lon="0.88713">
        <ele>140</ele>
        <time>2013-10-13T06:40:38Z</time>
      </trkpt>
      <trkpt lat="49.32675" lon="0.88678">
        <ele>140</ele>
        <time>2013-10-13T06:40:44Z</time>
      </trkpt>
      <trkpt lat="49.32677" lon="0.88642">
        <ele>139</ele>
        <time>2013-10-13T06:40:52Z</time>
      </trkpt>
      <trkpt lat="49.32684" lon="0.88612">
        <ele>139</ele>
        <time>2013-10-13T06:40:58Z</time>
      </trkpt>
      <trkpt lat="49.32693" lon="0.88578">
        <ele>138</ele>
        <time>2013-10-13T06:41:06Z</time>
      </trkpt>
      <trkpt lat="49.32702" lon="0.88544">
        <ele>138</ele>
        <time>2013-10-13T06:41:12Z</time>
      </trkpt>
      <trkpt lat="49.32703" lon="0.88514">
        <ele>138</ele>
        <time>2013-10-13T06:41:18Z</time>
      </trkpt>
      <trkpt lat="49.32702" lon="0.88477">
        <ele>138</ele>
        <time>2013-10-13T06:41:24Z</time>
      </trkpt>
      <trkpt lat="49.32709" lon="0.88444">
        <ele>138</ele>
        <time>2013-10-13T06:41:30Z</time>
      </trkpt>
      <trkpt lat="49.32716" lon="0.88414">
        <ele>138</ele>
        <time>2013-10-13T06:41:36Z</time>
      </trkpt>
      <trkpt lat="49.32722" lon="0.88381">
        <ele>139</ele>
        <time>2013-10-13T06:41:42Z</time>
      </trkpt>
      <trkpt lat="49.32721" lon="0.88346">
        <ele>139</ele>
        <time>2013-10-13T06:41:48Z</time>
      </trkpt>
      <trkpt lat="49.32725" lon="0.88318">
        <ele>139</ele>
        <time>2013-10-13T06:41:52Z</time>
      </trkpt>
      <trkpt lat="49.32726" lon="0.88282">
        <ele>140</ele>
        <time>2013-10-13T06:41:58Z</time>
      </trkpt>
      <trkpt lat="49.32733" lon="0.88245">
        <ele>140</ele>
        <time>2013-10-13T06:42:06Z</time>
      </trkpt>
      <trkpt lat="49.32738" lon="0.8821">
        <ele>141</ele>
        <time>2013-10-13T06:42:10Z</time>
      </trkpt>
      <trkpt lat="49.32746" lon="0.88178">
        <ele>141</ele>
        <time>2013-10-13T06:42:14Z</time>
      </trkpt>
      <trkpt lat="49.32753" lon="0.88144">
        <ele>140</ele>
        <time>2013-10-13T06:42:20Z</time>
      </trkpt>
      <trkpt lat="49.32757" lon="0.88114">
        <ele>140</ele>
        <time>2013-10-13T06:42:26Z</time>
      </trkpt>
      <trkpt lat="49.32759" lon="0.88079">
        <ele>140</ele>
        <time>2013-10-13T06:42:34Z</time>
      </trkpt>
      <trkpt lat="49.32762" lon="0.88041">
        <ele>140</ele>
        <time>2013-10-13T06:42:42Z</time>
      </trkpt>
      <trkpt lat="49.32768" lon="0.87999">
        <ele>141</ele>
        <time>2013-10-13T06:42:48Z</time>
      </trkpt>
      <trkpt lat="49.32777" lon="0.87961">
        <ele>141</ele>
        <time>2013-10-13T06:42:54Z</time>
      </trkpt>
      <trkpt lat="49.32784" lon="0.87929">
        <ele>142</ele>
        <time>2013-10-13T06:43:00Z</time>
      </trkpt>
      <trkpt lat="49.32789" lon="0.87891">
        <ele>143</ele>
        <time>2013-10-13T06:43:06Z</time>
      </trkpt>
      <trkpt lat="49.32792" lon="0.87864">
        <ele>143</ele>
        <time>2013-10-13T06:43:12Z</time>
      </trkpt>
      <trkpt lat="49.32797" lon="0.87836">
        <ele>143</ele>
        <time>2013-10-13T06:43:20Z</time>
      </trkpt>
      <trkpt lat="49.32805" lon="0.87807">
        <ele>143</ele>
        <time>2013-10-13T06:43:32Z</time>
      </trkpt>
      <trkpt lat="49.32814" lon="0.8778">
        <ele>143</ele>
        <time>2013-10-13T06:43:40Z</time>
      </trkpt>
      <trkpt lat="49.32819" lon="0.87753">
        <ele>142</ele>
        <time>2013-10-13T06:43:44Z</time>
      </trkpt>
      <trkpt lat="49.32824" lon="0.87726">
        <ele>142</ele>
        <time>2013-10-13T06:43:52Z</time>
      </trkpt>
      <trkpt lat="49.3283" lon="0.87689">
        <ele>141</ele>
        <time>2013-10-13T06:44:02Z</time>
      </trkpt>
      <trkpt lat="49.32832" lon="0.87661">
        <ele>141</ele>
        <time>2013-10-13T06:44:08Z</time>
      </trkpt>
      <trkpt lat="49.32837" lon="0.87628">
        <ele>141</ele>
        <time>2013-10-13T06:44:16Z</time>
      </trkpt>
      <trkpt lat="49.32836" lon="0.87595">
        <ele>141</ele>
        <time>2013-10-13T06:44:22Z</time>
      </trkpt>
      <trkpt lat="49.32838" lon="0.87561">
        <ele>141</ele>
        <time>2013-10-13T06:44:30Z</time>
      </trkpt>
      <trkpt lat="49.32836" lon="0.87533">
        <ele>141</ele>
        <time>2013-10-13T06:44:38Z</time>
      </trkpt>
      <trkpt lat="49.32838" lon="0.87501">
        <ele>142</ele>
        <time>2013-10-13T06:44:44Z</time>
      </trkpt>
      <trkpt lat="49.32845" lon="0.8747">
        <ele>142</ele>
        <time>2013-10-13T06:44:48Z</time>
      </trkpt>
      <trkpt lat="49.32849" lon="0.87441">
        <ele>142</ele>
        <time>2013-10-13T06:44:52Z</time>
      </trkpt>
      <trkpt lat="49.32852" lon="0.87406">
        <ele>141</ele>
        <time>2013-10-13T06:44:58Z</time>
      </trkpt>
      <trkpt lat="49.32856" lon="0.87367">
        <ele>140</ele>
        <time>2013-10-13T06:45:04Z</time>
      </trkpt>
      <trkpt lat="49.32864" lon="0.87337">
        <ele>139</ele>
        <time>2013-10-13T06:45:08Z</time>
      </trkpt>
      <trkpt lat="49.32871" lon="0.87304">
        <ele>136</ele>
        <time>2013-10-13T06:45:12Z</time>
      </trkpt>
      <trkpt lat="49.32871" lon="0.87276">
        <ele>135</ele>
        <time>2013-10-13T06:45:16Z</time>
      </trkpt>
      <trkpt lat="49.32882" lon="0.87245">
        <ele>133</ele>
        <time>2013-10-13T06:45:20Z</time>
      </trkpt>
      <trkpt lat="49.32884" lon="0.87208">
        <ele>132</ele>
        <time>2013-10-13T06:45:24Z</time>
      </trkpt>
      <trkpt lat="49.3289" lon="0.87179">
        <ele>132</ele>
        <time>2013-10-13T06:45:28Z</time>
      </trkpt>
      <trkpt lat="49.32896" lon="0.87149">
        <ele>130</ele>
        <time>2013-10-13T06:45:32Z</time>
      </trkpt>
      <trkpt lat="49.32902" lon="0.87115">
        <ele>130</ele>
        <time>2013-10-13T06:45:36Z</time>
      </trkpt>
      <trkpt lat="49.32907" lon="0.87079">
        <ele>129</ele>
        <time>2013-10-13T06:45:40Z</time>
      </trkpt>
      <trkpt lat="49.32913" lon="0.87046">
        <ele>128</ele>
        <time>2013-10-13T06:45:44Z</time>
      </trkpt>
      <trkpt lat="49.32924" lon="0.87009">
        <ele>130</ele>
        <time>2013-10-13T06:45:48Z</time>
      </trkpt>
      <trkpt lat="49.32934" lon="0.86974">
        <ele>130</ele>
        <time>2013-10-13T06:45:52Z</time>
      </trkpt>
      <trkpt lat="49.32938" lon="0.86939">
        <ele>130</ele>
        <time>2013-10-13T06:45:56Z</time>
      </trkpt>
      <trkpt lat="49.32941" lon="0.86906">
        <ele>128</ele>
        <time>2013-10-13T06:46:00Z</time>
      </trkpt>
      <trkpt lat="49.32944" lon="0.86877">
        <ele>128</ele>
        <time>2013-10-13T06:46:04Z</time>
      </trkpt>
      <trkpt lat="49.32948" lon="0.86844">
        <ele>128</ele>
        <time>2013-10-13T06:46:08Z</time>
      </trkpt>
      <trkpt lat="49.3295" lon="0.86802">
        <ele>127</ele>
        <time>2013-10-13T06:46:12Z</time>
      </trkpt>
      <trkpt lat="49.32955" lon="0.86761">
        <ele>127</ele>
        <time>2013-10-13T06:46:16Z</time>
      </trkpt>
      <trkpt lat="49.32961" lon="0.86721">
        <ele>127</ele>
        <time>2013-10-13T06:46:20Z</time>
      </trkpt>
      <trkpt lat="49.32964" lon="0.86686">
        <ele>126</ele>
        <time>2013-10-13T06:46:24Z</time>
      </trkpt>
      <trkpt lat="49.32973" lon="0.86645">
        <ele>126</ele>
        <time>2013-10-13T06:46:28Z</time>
      </trkpt>
      <trkpt lat="49.32979" lon="0.86609">
        <ele>126</ele>
        <time>2013-10-13T06:46:32Z</time>
      </trkpt>
      <trkpt lat="49.32985" lon="0.86575">
        <ele>125</ele>
        <time>2013-10-13T06:46:36Z</time>
      </trkpt>
      <trkpt lat="49.32998" lon="0.86545">
        <ele>125</ele>
        <time>2013-10-13T06:46:42Z</time>
      </trkpt>
      <trkpt lat="49.33013" lon="0.86524">
        <ele>124</ele>
        <time>2013-10-13T06:46:48Z</time>
      </trkpt>
      <trkpt lat="49.33029" lon="0.86511">
        <ele>123</ele>
        <time>2013-10-13T06:46:52Z</time>
      </trkpt>
      <trkpt lat="49.33047" lon="0.86503">
        <ele>123</ele>
        <time>2013-10-13T06:46:58Z</time>
      </trkpt>
      <trkpt lat="49.33064" lon="0.86516">
        <ele>122</ele>
        <time>2013-10-13T06:47:04Z</time>
      </trkpt>
      <trkpt lat="49.33083" lon="0.86533">
        <ele>122</ele>
        <time>2013-10-13T06:47:10Z</time>
      </trkpt>
      <trkpt lat="49.33105" lon="0.86538">
        <ele>115</ele>
        <time>2013-10-13T06:47:16Z</time>
      </trkpt>
      <trkpt lat="49.33125" lon="0.86539">
        <ele>114</ele>
        <time>2013-10-13T06:47:22Z</time>
      </trkpt>
      <trkpt lat="49.33146" lon="0.86544">
        <ele>112</ele>
        <time>2013-10-13T06:47:26Z</time>
      </trkpt>
      <trkpt lat="49.33165" lon="0.86548">
        <ele>111</ele>
        <time>2013-10-13T06:47:30Z</time>
      </trkpt>
      <trkpt lat="49.33182" lon="0.86563">
        <ele>106</ele>
        <time>2013-10-13T06:47:34Z</time>
      </trkpt>
      <trkpt lat="49.33198" lon="0.86588">
        <ele>107</ele>
        <time>2013-10-13T06:47:40Z</time>
      </trkpt>
      <trkpt lat="49.33212" lon="0.8661">
        <ele>106</ele>
        <time>2013-10-13T06:47:44Z</time>
      </trkpt>
      <trkpt lat="49.33233" lon="0.8663">
        <ele>105</ele>
        <time>2013-10-13T06:47:48Z</time>
      </trkpt>
      <trkpt lat="49.33255" lon="0.86636">
        <ele>101</ele>
        <time>2013-10-13T06:47:54Z</time>
      </trkpt>
      <trkpt lat="49.33267" lon="0.86661">
        <ele>101</ele>
        <time>2013-10-13T06:48:00Z</time>
      </trkpt>
      <trkpt lat="49.33277" lon="0.86695">
        <ele>102</ele>
        <time>2013-10-13T06:48:10Z</time>
      </trkpt>
      <trkpt lat="49.33292" lon="0.86725">
        <ele>102</ele>
        <time>2013-10-13T06:48:16Z</time>
      </trkpt>
      <trkpt lat="49.33306" lon="0.86743">
        <ele>102</ele>
        <time>2013-10-13T06:48:24Z</time>
      </trkpt>
      <trkpt lat="49.33322" lon="0.86763">
        <ele>102</ele>
        <time>2013-10-13T06:49:36Z</time>
      </trkpt>
      <trkpt lat="49.33341" lon="0.86776">
        <ele>101</ele>
        <time>2013-10-13T06:49:42Z</time>
      </trkpt>
      <trkpt lat="49.33359" lon="0.86789">
        <ele>101</ele>
        <time>2013-10-13T06:49:46Z</time>
      </trkpt>
      <trkpt lat="49.33377" lon="0.86807">
        <ele>100</ele>
        <time>2013-10-13T06:49:50Z</time>
      </trkpt>
      <trkpt lat="49.33397" lon="0.86815">
        <ele>100</ele>
        <time>2013-10-13T06:49:54Z</time>
      </trkpt>
      <trkpt lat="49.33421" lon="0.8682">
        <ele>99</ele>
        <time>2013-10-13T06:49:58Z</time>
      </trkpt>
      <trkpt lat="49.33441" lon="0.86828">
        <ele>99</ele>
        <time>2013-10-13T06:50:02Z</time>
      </trkpt>
      <trkpt lat="49.3346" lon="0.86842">
        <ele>99</ele>
        <time>2013-10-13T06:50:06Z</time>
      </trkpt>
      <trkpt lat="49.33483" lon="0.86855">
        <ele>99</ele>
        <time>2013-10-13T06:50:12Z</time>
      </trkpt>
      <trkpt lat="49.33503" lon="0.86861">
        <ele>100</ele>
        <time>2013-10-13T06:50:16Z</time>
      </trkpt>
      <trkpt lat="49.33529" lon="0.86872">
        <ele>100</ele>
        <time>2013-10-13T06:50:22Z</time>
      </trkpt>
      <trkpt lat="49.33551" lon="0.86879">
        <ele>100</ele>
        <time>2013-10-13T06:50:26Z</time>
      </trkpt>
      <trkpt lat="49.33568" lon="0.86893">
        <ele>100</ele>
        <time>2013-10-13T06:50:30Z</time>
      </trkpt>
      <trkpt lat="49.33589" lon="0.86903">
        <ele>101</ele>
        <time>2013-10-13T06:50:34Z</time>
      </trkpt>
      <trkpt lat="49.33606" lon="0.8692">
        <ele>100</ele>
        <time>2013-10-13T06:50:38Z</time>
      </trkpt>
      <trkpt lat="49.33612" lon="0.86956">
        <ele>101</ele>
        <time>2013-10-13T06:50:44Z</time>
      </trkpt>
      <trkpt lat="49.33622" lon="0.86981">
        <ele>101</ele>
        <time>2013-10-13T06:50:48Z</time>
      </trkpt>
      <trkpt lat="49.33633" lon="0.87006">
        <ele>101</ele>
        <time>2013-10-13T06:50:52Z</time>
      </trkpt>
      <trkpt lat="49.33648" lon="0.87028">
        <ele>101</ele>
        <time>2013-10-13T06:50:56Z</time>
      </trkpt>
      <trkpt lat="49.33665" lon="0.87043">
        <ele>100</ele>
        <time>2013-10-13T06:51:00Z</time>
      </trkpt>
      <trkpt lat="49.33683" lon="0.87062">
        <ele>96</ele>
        <time>2013-10-13T06:51:04Z</time>
      </trkpt>
      <trkpt lat="49.337" lon="0.87079">
        <ele>96</ele>
        <time>2013-10-13T06:51:08Z</time>
      </trkpt>
      <trkpt lat="49.33717" lon="0.87096">
        <ele>95</ele>
        <time>2013-10-13T06:51:12Z</time>
      </trkpt>
      <trkpt lat="49.33733" lon="0.87111">
        <ele>94</ele>
        <time>2013-10-13T06:51:16Z</time>
      </trkpt>
      <trkpt lat="49.33754" lon="0.87128">
        <ele>90</ele>
        <time>2013-10-13T06:51:24Z</time>
      </trkpt>
      <trkpt lat="49.33768" lon="0.87152">
        <ele>90</ele>
        <time>2013-10-13T06:51:30Z</time>
      </trkpt>
      <trkpt lat="49.33786" lon="0.87172">
        <ele>89</ele>
        <time>2013-10-13T06:51:36Z</time>
      </trkpt>
      <trkpt lat="49.33807" lon="0.87188">
        <ele>89</ele>
        <time>2013-10-13T06:51:42Z</time>
      </trkpt>
      <trkpt lat="49.33829" lon="0.87208">
        <ele>89</ele>
        <time>2013-10-13T06:51:48Z</time>
      </trkpt>
      <trkpt lat="49.33849" lon="0.87232">
        <ele>88</ele>
        <time>2013-10-13T06:51:54Z</time>
      </trkpt>
      <trkpt lat="49.33864" lon="0.87258">
        <ele>90</ele>
        <time>2013-10-13T06:52:00Z</time>
      </trkpt>
      <trkpt lat="49.33883" lon="0.87268">
        <ele>89</ele>
        <time>2013-10-13T06:52:04Z</time>
      </trkpt>
      <trkpt lat="49.33903" lon="0.87287">
        <ele>89</ele>
        <time>2013-10-13T06:52:10Z</time>
      </trkpt>
      <trkpt lat="49.33918" lon="0.8731">
        <ele>87</ele>
        <time>2013-10-13T06:52:16Z</time>
      </trkpt>
      <trkpt lat="49.33935" lon="0.87332">
        <ele>87</ele>
        <time>2013-10-13T06:52:22Z</time>
      </trkpt>
      <trkpt lat="49.33946" lon="0.87355">
        <ele>86</ele>
        <time>2013-10-13T06:52:28Z</time>
      </trkpt>
      <trkpt lat="49.33958" lon="0.87381">
        <ele>86</ele>
        <time>2013-10-13T06:52:34Z</time>
      </trkpt>
      <trkpt lat="49.33967" lon="0.87412">
        <ele>86</ele>
        <time>2013-10-13T06:52:40Z</time>
      </trkpt>
      <trkpt lat="49.33974" lon="0.87443">
        <ele>86</ele>
        <time>2013-10-13T06:52:46Z</time>
      </trkpt>
      <trkpt lat="49.33979" lon="0.87478">
        <ele>86</ele>
        <time>2013-10-13T06:52:52Z</time>
      </trkpt>
      <trkpt lat="49.33984" lon="0.87513">
        <ele>87</ele>
        <time>2013-10-13T06:52:58Z</time>
      </trkpt>
      <trkpt lat="49.33989" lon="0.8755">
        <ele>87</ele>
        <time>2013-10-13T06:53:04Z</time>
      </trkpt>
      <trkpt lat="49.33991" lon="0.87582">
        <ele>85</ele>
        <time>2013-10-13T06:53:10Z</time>
      </trkpt>
      <trkpt lat="49.33973" lon="0.87596">
        <ele>88</ele>
        <time>2013-10-13T06:53:20Z</time>
      </trkpt>
      <trkpt lat="49.33959" lon="0.87578">
        <ele>89</ele>
        <time>2013-10-13T06:53:26Z</time>
      </trkpt>
      <trkpt lat="49.33942" lon="0.87556">
        <ele>90</ele>
        <time>2013-10-13T06:53:32Z</time>
      </trkpt>
      <trkpt lat="49.33928" lon="0.87533">
        <ele>90</ele>
        <time>2013-10-13T06:53:40Z</time>
      </trkpt>
      <trkpt lat="49.33915" lon="0.8751">
        <ele>95</ele>
        <time>2013-10-13T06:53:46Z</time>
      </trkpt>
      <trkpt lat="49.33901" lon="0.87487">
        <ele>96</ele>
        <time>2013-10-13T06:53:52Z</time>
      </trkpt>
      <trkpt lat="49.33889" lon="0.87461">
        <ele>98</ele>
        <time>2013-10-13T06:53:58Z</time>
      </trkpt>
      <trkpt lat="49.3388" lon="0.87434">
        <ele>99</ele>
        <time>2013-10-13T06:54:04Z</time>
      </trkpt>
      <trkpt lat="49.3387" lon="0.87407">
        <ele>98</ele>
        <time>2013-10-13T06:54:12Z</time>
      </trkpt>
      <trkpt lat="49.3386" lon="0.87382">
        <ele>98</ele>
        <time>2013-10-13T06:54:20Z</time>
      </trkpt>
      <trkpt lat="49.33851" lon="0.87353">
        <ele>98</ele>
        <time>2013-10-13T06:54:28Z</time>
      </trkpt>
      <trkpt lat="49.33834" lon="0.87331">
        <ele>99</ele>
        <time>2013-10-13T06:54:38Z</time>
      </trkpt>
      <trkpt lat="49.33815" lon="0.87321">
        <ele>100</ele>
        <time>2013-10-13T06:54:46Z</time>
      </trkpt>
      <trkpt lat="49.33796" lon="0.87317">
        <ele>101</ele>
        <time>2013-10-13T06:54:52Z</time>
      </trkpt>
      <trkpt lat="49.33775" lon="0.87309">
        <ele>102</ele>
        <time>2013-10-13T06:55:00Z</time>
      </trkpt>
      <trkpt lat="49.33754" lon="0.873">
        <ele>102</ele>
        <time>2013-10-13T06:55:08Z</time>
      </trkpt>
      <trkpt lat="49.33735" lon="0.87296">
        <ele>111</ele>
        <time>2013-10-13T06:55:16Z</time>
      </trkpt>
      <trkpt lat="49.33712" lon="0.87286">
        <ele>112</ele>
        <time>2013-10-13T06:55:26Z</time>
      </trkpt>
      <trkpt lat="49.33693" lon="0.87276">
        <ele>113</ele>
        <time>2013-10-13T06:55:34Z</time>
      </trkpt>
      <trkpt lat="49.33677" lon="0.87263">
        <ele>114</ele>
        <time>2013-10-13T06:55:46Z</time>
      </trkpt>
      <trkpt lat="49.33657" lon="0.87245">
        <ele>116</ele>
        <time>2013-10-13T06:55:56Z</time>
      </trkpt>
      <trkpt lat="49.33637" lon="0.87239">
        <ele>117</ele>
        <time>2013-10-13T06:56:02Z</time>
      </trkpt>
      <trkpt lat="49.3362" lon="0.87224">
        <ele>118</ele>
        <time>2013-10-13T06:56:10Z</time>
      </trkpt>
      <trkpt lat="49.33607" lon="0.87204">
        <ele>118</ele>
        <time>2013-10-13T06:56:18Z</time>
      </trkpt>
      <trkpt lat="49.33586" lon="0.87185">
        <ele>119</ele>
        <time>2013-10-13T06:56:26Z</time>
      </trkpt>
      <trkpt lat="49.3357" lon="0.87172">
        <ele>124</ele>
        <time>2013-10-13T06:56:32Z</time>
      </trkpt>
      <trkpt lat="49.33551" lon="0.8716">
        <ele>122</ele>
        <time>2013-10-13T06:56:38Z</time>
      </trkpt>
      <trkpt lat="49.33534" lon="0.87152">
        <ele>124</ele>
        <time>2013-10-13T06:56:44Z</time>
      </trkpt>
      <trkpt lat="49.33512" lon="0.87148">
        <ele>126</ele>
        <time>2013-10-13T06:56:52Z</time>
      </trkpt>
      <trkpt lat="49.33492" lon="0.87148">
        <ele>129</ele>
        <time>2013-10-13T06:56:58Z</time>
      </trkpt>
      <trkpt lat="49.33468" lon="0.87147">
        <ele>129</ele>
        <time>2013-10-13T06:57:04Z</time>
      </trkpt>
      <trkpt lat="49.33448" lon="0.87151">
        <ele>129</ele>
        <time>2013-10-13T06:57:10Z</time>
      </trkpt>
      <trkpt lat="49.33431" lon="0.87162">
        <ele>130</ele>
        <time>2013-10-13T06:57:16Z</time>
      </trkpt>
      <trkpt lat="49.3341" lon="0.87173">
        <ele>132</ele>
        <time>2013-10-13T06:57:24Z</time>
      </trkpt>
      <trkpt lat="49.33393" lon="0.87184">
        <ele>132</ele>
        <time>2013-10-13T06:57:30Z</time>
      </trkpt>
      <trkpt lat="49.33373" lon="0.872">
        <ele>133</ele>
        <time>2013-10-13T06:57:38Z</time>
      </trkpt>
      <trkpt lat="49.33354" lon="0.8721">
        <ele>133</ele>
        <time>2013-10-13T06:57:44Z</time>
      </trkpt>
      <trkpt lat="49.33335" lon="0.87224">
        <ele>133</ele>
        <time>2013-10-13T06:57:52Z</time>
      </trkpt>
      <trkpt lat="49.33321" lon="0.87242">
        <ele>135</ele>
        <time>2013-10-13T06:59:02Z</time>
      </trkpt>
      <trkpt lat="49.33303" lon="0.8725">
        <ele>135</ele>
        <time>2013-10-13T06:59:42Z</time>
      </trkpt>
      <trkpt lat="49.33321" lon="0.87245">
        <ele>135</ele>
        <time>2013-10-13T06:59:52Z</time>
      </trkpt>
      <trkpt lat="49.33338" lon="0.87255">
        <ele>135</ele>
        <time>2013-10-13T07:02:24Z</time>
      </trkpt>
      <trkpt lat="49.33351" lon="0.87279">
        <ele>136</ele>
        <time>2013-10-13T07:03:14Z</time>
      </trkpt>
      <trkpt lat="49.3337" lon="0.87293">
        <ele>137</ele>
        <time>2013-10-13T07:03:26Z</time>
      </trkpt>
      <trkpt lat="49.33392" lon="0.873">
        <ele>137</ele>
        <time>2013-10-13T07:03:32Z</time>
      </trkpt>
      <trkpt lat="49.33415" lon="0.87312">
        <ele>137</ele>
        <time>2013-10-13T07:03:38Z</time>
      </trkpt>
      <trkpt lat="49.33441" lon="0.87319">
        <ele>137</ele>
        <time>2013-10-13T07:03:44Z</time>
      </trkpt>
      <trkpt lat="49.33463" lon="0.87323">
        <ele>137</ele>
        <time>2013-10-13T07:03:50Z</time>
      </trkpt>
      <trkpt lat="49.33484" lon="0.87328">
        <ele>137</ele>
        <time>2013-10-13T07:03:54Z</time>
      </trkpt>
      <trkpt lat="49.33507" lon="0.87331">
        <ele>136</ele>
        <time>2013-10-13T07:03:58Z</time>
      </trkpt>
      <trkpt lat="49.33526" lon="0.87341">
        <ele>136</ele>
        <time>2013-10-13T07:04:02Z</time>
      </trkpt>
      <trkpt lat="49.33542" lon="0.87355">
        <ele>136</ele>
        <time>2013-10-13T07:04:06Z</time>
      </trkpt>
      <trkpt lat="49.33558" lon="0.8737">
        <ele>136</ele>
        <time>2013-10-13T07:04:10Z</time>
      </trkpt>
      <trkpt lat="49.33575" lon="0.87389">
        <ele>136</ele>
        <time>2013-10-13T07:04:16Z</time>
      </trkpt>
      <trkpt lat="49.33594" lon="0.87415">
        <ele>134</ele>
        <time>2013-10-13T07:04:22Z</time>
      </trkpt>
      <trkpt lat="49.33609" lon="0.87439">
        <ele>133</ele>
        <time>2013-10-13T07:04:28Z</time>
      </trkpt>
      <trkpt lat="49.33631" lon="0.8746">
        <ele>132</ele>
        <time>2013-10-13T07:04:34Z</time>
      </trkpt>
      <trkpt lat="49.33649" lon="0.87487">
        <ele>131</ele>
        <time>2013-10-13T07:04:40Z</time>
      </trkpt>
      <trkpt lat="49.33658" lon="0.8752">
        <ele>130</ele>
        <time>2013-10-13T07:04:48Z</time>
      </trkpt>
      <trkpt lat="49.33665" lon="0.87558">
        <ele>130</ele>
        <time>2013-10-13T07:04:54Z</time>
      </trkpt>
      <trkpt lat="49.33668" lon="0.87586">
        <ele>127</ele>
        <time>2013-10-13T07:04:58Z</time>
      </trkpt>
      <trkpt lat="49.33666" lon="0.87618">
        <ele>130</ele>
        <time>2013-10-13T07:05:04Z</time>
      </trkpt>
      <trkpt lat="49.33654" lon="0.87647">
        <ele>131</ele>
        <time>2013-10-13T07:05:10Z</time>
      </trkpt>
      <trkpt lat="49.33645" lon="0.87681">
        <ele>132</ele>
        <time>2013-10-13T07:05:16Z</time>
      </trkpt>
      <trkpt lat="49.33641" lon="0.87711">
        <ele>133</ele>
        <time>2013-10-13T07:05:22Z</time>
      </trkpt>
      <trkpt lat="49.33635" lon="0.87747">
        <ele>134</ele>
        <time>2013-10-13T07:05:28Z</time>
      </trkpt>
      <trkpt lat="49.33628" lon="0.87777">
        <ele>135</ele>
        <time>2013-10-13T07:05:34Z</time>
      </trkpt>
      <trkpt lat="49.33631" lon="0.87808">
        <ele>135</ele>
        <time>2013-10-13T07:05:42Z</time>
      </trkpt>
      <trkpt lat="49.33641" lon="0.87838">
        <ele>134</ele>
        <time>2013-10-13T07:05:58Z</time>
      </trkpt>
      <trkpt lat="49.33662" lon="0.87862">
        <ele>133</ele>
        <time>2013-10-13T07:06:04Z</time>
      </trkpt>
      <trkpt lat="49.33683" lon="0.87888">
        <ele>131</ele>
        <time>2013-10-13T07:06:08Z</time>
      </trkpt>
      <trkpt lat="49.33709" lon="0.8791">
        <ele>131</ele>
        <time>2013-10-13T07:06:12Z</time>
      </trkpt>
      <trkpt lat="49.33726" lon="0.87933">
        <ele>129</ele>
        <time>2013-10-13T07:06:16Z</time>
      </trkpt>
      <trkpt lat="49.33734" lon="0.87968">
        <ele>128</ele>
        <time>2013-10-13T07:06:20Z</time>
      </trkpt>
      <trkpt lat="49.33737" lon="0.88014">
        <ele>123</ele>
        <time>2013-10-13T07:06:24Z</time>
      </trkpt>
      <trkpt lat="49.3374" lon="0.88067">
        <ele>116</ele>
        <time>2013-10-13T07:06:28Z</time>
      </trkpt>
      <trkpt lat="49.33743" lon="0.88112">
        <ele>109</ele>
        <time>2013-10-13T07:06:32Z</time>
      </trkpt>
      <trkpt lat="49.33741" lon="0.88147">
        <ele>106</ele>
        <time>2013-10-13T07:06:36Z</time>
      </trkpt>
      <trkpt lat="49.33741" lon="0.88186">
        <ele>102</ele>
        <time>2013-10-13T07:06:40Z</time>
      </trkpt>
      <trkpt lat="49.33746" lon="0.88226">
        <ele>100</ele>
        <time>2013-10-13T07:06:46Z</time>
      </trkpt>
      <trkpt lat="49.33756" lon="0.88255">
        <ele>96</ele>
        <time>2013-10-13T07:06:50Z</time>
      </trkpt>
      <trkpt lat="49.33767" lon="0.88278">
        <ele>97</ele>
        <time>2013-10-13T07:06:54Z</time>
      </trkpt>
      <trkpt lat="49.33782" lon="0.8831">
        <ele>96</ele>
        <time>2013-10-13T07:07:00Z</time>
      </trkpt>
      <trkpt lat="49.33795" lon="0.88347">
        <ele>95</ele>
        <time>2013-10-13T07:07:06Z</time>
      </trkpt>
      <trkpt lat="49.33797" lon="0.88382">
        <ele>95</ele>
        <time>2013-10-13T07:07:10Z</time>
      </trkpt>
      <trkpt lat="49.33797" lon="0.88421">
        <ele>94</ele>
        <time>2013-10-13T07:07:14Z</time>
      </trkpt>
      <trkpt lat="49.33789" lon="0.88453">
        <ele>93</ele>
        <time>2013-10-13T07:07:18Z</time>
      </trkpt>
      <trkpt lat="49.33779" lon="0.88478">
        <ele>93</ele>
        <time>2013-10-13T07:07:22Z</time>
      </trkpt>
      <trkpt lat="49.33776" lon="0.88506">
        <ele>92</ele>
        <time>2013-10-13T07:07:26Z</time>
      </trkpt>
      <trkpt lat="49.33777" lon="0.88541">
        <ele>91</ele>
        <time>2013-10-13T07:07:30Z</time>
      </trkpt>
      <trkpt lat="49.33784" lon="0.88583">
        <ele>89</ele>
        <time>2013-10-13T07:07:34Z</time>
      </trkpt>
      <trkpt lat="49.33789" lon="0.88617">
        <ele>89</ele>
        <time>2013-10-13T07:07:38Z</time>
      </trkpt>
      <trkpt lat="49.33798" lon="0.88654">
        <ele>88</ele>
        <time>2013-10-13T07:07:42Z</time>
      </trkpt>
      <trkpt lat="49.33809" lon="0.8869">
        <ele>85</ele>
        <time>2013-10-13T07:07:46Z</time>
      </trkpt>
      <trkpt lat="49.3382" lon="0.88718">
        <ele>85</ele>
        <time>2013-10-13T07:07:50Z</time>
      </trkpt>
      <trkpt lat="49.33834" lon="0.8874">
        <ele>82</ele>
        <time>2013-10-13T07:08:00Z</time>
      </trkpt>
      <trkpt lat="49.33839" lon="0.88768">
        <ele>83</ele>
        <time>2013-10-13T07:08:42Z</time>
      </trkpt>
      <trkpt lat="49.3383" lon="0.88805">
        <ele>82</ele>
        <time>2013-10-13T07:08:48Z</time>
      </trkpt>
      <trkpt lat="49.3382" lon="0.88841">
        <ele>81</ele>
        <time>2013-10-13T07:08:54Z</time>
      </trkpt>
      <trkpt lat="49.33809" lon="0.88879">
        <ele>82</ele>
        <time>2013-10-13T07:09:00Z</time>
      </trkpt>
      <trkpt lat="49.33806" lon="0.88913">
        <ele>82</ele>
        <time>2013-10-13T07:09:04Z</time>
      </trkpt>
      <trkpt lat="49.33803" lon="0.88949">
        <ele>82</ele>
        <time>2013-10-13T07:09:08Z</time>
      </trkpt>
      <trkpt lat="49.33796" lon="0.88985">
        <ele>82</ele>
        <time>2013-10-13T07:09:12Z</time>
      </trkpt>
      <trkpt lat="49.33792" lon="0.89021">
        <ele>83</ele>
        <time>2013-10-13T07:09:16Z</time>
      </trkpt>
      <trkpt lat="49.33789" lon="0.89059">
        <ele>83</ele>
        <time>2013-10-13T07:09:20Z</time>
      </trkpt>
      <trkpt lat="49.33787" lon="0.89088">
        <ele>83</ele>
        <time>2013-10-13T07:09:24Z</time>
      </trkpt>
      <trkpt lat="49.33783" lon="0.89118">
        <ele>83</ele>
        <time>2013-10-13T07:09:28Z</time>
      </trkpt>
      <trkpt lat="49.3378" lon="0.89154">
        <ele>83</ele>
        <time>2013-10-13T07:09:32Z</time>
      </trkpt>
      <trkpt lat="49.33778" lon="0.89192">
        <ele>82</ele>
        <time>2013-10-13T07:09:36Z</time>
      </trkpt>
      <trkpt lat="49.33771" lon="0.89226">
        <ele>81</ele>
        <time>2013-10-13T07:09:40Z</time>
      </trkpt>
      <trkpt lat="49.33749" lon="0.89249">
        <ele>81</ele>
        <time>2013-10-13T07:09:46Z</time>
      </trkpt>
      <trkpt lat="49.33727" lon="0.8927">
        <ele>85</ele>
        <time>2013-10-13T07:09:50Z</time>
      </trkpt>
      <trkpt lat="49.33725" lon="0.89298">
        <ele>85</ele>
        <time>2013-10-13T07:09:54Z</time>
      </trkpt>
      <trkpt lat="49.33739" lon="0.89318">
        <ele>85</ele>
        <time>2013-10-13T07:09:58Z</time>
      </trkpt>
      <trkpt lat="49.33758" lon="0.89337">
        <ele>84</ele>
        <time>2013-10-13T07:10:02Z</time>
      </trkpt>
      <trkpt lat="49.33775" lon="0.89355">
        <ele>84</ele>
        <time>2013-10-13T07:10:08Z</time>
      </trkpt>
      <trkpt lat="49.33793" lon="0.89366">
        <ele>84</ele>
        <time>2013-10-13T07:10:40Z</time>
      </trkpt>
      <trkpt lat="49.33798" lon="0.89393">
        <ele>84</ele>
        <time>2013-10-13T07:11:00Z</time>
      </trkpt>
      <trkpt lat="49.33795" lon="0.89421">
        <ele>87</ele>
        <time>2013-10-13T07:11:12Z</time>
      </trkpt>
      <trkpt lat="49.33794" lon="0.89449">
        <ele>87</ele>
        <time>2013-10-13T07:11:26Z</time>
      </trkpt>
      <trkpt lat="49.33804" lon="0.89472">
        <ele>86</ele>
        <time>2013-10-13T07:11:34Z</time>
      </trkpt>
      <trkpt lat="49.33808" lon="0.895">
        <ele>85</ele>
        <time>2013-10-13T07:11:42Z</time>
      </trkpt>
      <trkpt lat="49.33808" lon="0.89537">
        <ele>86</ele>
        <time>2013-10-13T07:11:54Z</time>
      </trkpt>
      <trkpt lat="49.33809" lon="0.89567">
        <ele>85</ele>
        <time>2013-10-13T07:12:02Z</time>
      </trkpt>
      <trkpt lat="49.33818" lon="0.89593">
        <ele>83</ele>
        <time>2013-10-13T07:12:10Z</time>
      </trkpt>
      <trkpt lat="49.33817" lon="0.89623">
        <ele>85</ele>
        <time>2013-10-13T07:12:18Z</time>
      </trkpt>
      <trkpt lat="49.33815" lon="0.89661">
        <ele>84</ele>
        <time>2013-10-13T07:12:24Z</time>
      </trkpt>
      <trkpt lat="49.33811" lon="0.89691">
        <ele>86</ele>
        <time>2013-10-13T07:12:30Z</time>
      </trkpt>
      <trkpt lat="49.33806" lon="0.89722">
        <ele>87</ele>
        <time>2013-10-13T07:12:38Z</time>
      </trkpt>
      <trkpt lat="49.33813" lon="0.89757">
        <ele>85</ele>
        <time>2013-10-13T07:12:46Z</time>
      </trkpt>
      <trkpt lat="49.33817" lon="0.89786">
        <ele>86</ele>
        <time>2013-10-13T07:12:58Z</time>
      </trkpt>
      <trkpt lat="49.3382" lon="0.89813">
        <ele>85</ele>
        <time>2013-10-13T07:13:28Z</time>
      </trkpt>
      <trkpt lat="49.33811" lon="0.89843">
        <ele>86</ele>
        <time>2013-10-13T07:13:50Z</time>
      </trkpt>
      <trkpt lat="49.338" lon="0.89865">
        <ele>88</ele>
        <time>2013-10-13T07:13:58Z</time>
      </trkpt>
      <trkpt lat="49.33797" lon="0.89904">
        <ele>88</ele>
        <time>2013-10-13T07:14:04Z</time>
      </trkpt>
      <trkpt lat="49.33789" lon="0.89934">
        <ele>89</ele>
        <time>2013-10-13T07:14:08Z</time>
      </trkpt>
      <trkpt lat="49.33784" lon="0.89962">
        <ele>89</ele>
        <time>2013-10-13T07:14:12Z</time>
      </trkpt>
      <trkpt lat="49.33785" lon="0.90003">
        <ele>87</ele>
        <time>2013-10-13T07:14:18Z</time>
      </trkpt>
      <trkpt lat="49.33788" lon="0.90035">
        <ele>86</ele>
        <time>2013-10-13T07:14:22Z</time>
      </trkpt>
      <trkpt lat="49.33781" lon="0.90064">
        <ele>87</ele>
        <time>2013-10-13T07:14:26Z</time>
      </trkpt>
      <trkpt lat="49.33772" lon="0.90094">
        <ele>86</ele>
        <time>2013-10-13T07:14:30Z</time>
      </trkpt>
      <trkpt lat="49.33761" lon="0.90115">
        <ele>86</ele>
        <time>2013-10-13T07:14:34Z</time>
      </trkpt>
      <trkpt lat="49.33752" lon="0.90144">
        <ele>85</ele>
        <time>2013-10-13T07:14:40Z</time>
      </trkpt>
      <trkpt lat="49.33743" lon="0.90171">
        <ele>86</ele>
        <time>2013-10-13T07:14:48Z</time>
      </trkpt>
      <trkpt lat="49.33735" lon="0.90202">
        <ele>87</ele>
        <time>2013-10-13T07:14:54Z</time>
      </trkpt>
      <trkpt lat="49.33732" lon="0.90231">
        <ele>85</ele>
        <time>2013-10-13T07:15:00Z</time>
      </trkpt>
      <trkpt lat="49.33733" lon="0.90259">
        <ele>82</ele>
        <time>2013-10-13T07:15:06Z</time>
      </trkpt>
      <trkpt lat="49.33726" lon="0.90287">
        <ele>83</ele>
        <time>2013-10-13T07:15:12Z</time>
      </trkpt>
      <trkpt lat="49.33723" lon="0.90326">
        <ele>82</ele>
        <time>2013-10-13T07:15:20Z</time>
      </trkpt>
      <trkpt lat="49.33715" lon="0.90358">
        <ele>81</ele>
        <time>2013-10-13T07:15:24Z</time>
      </trkpt>
      <trkpt lat="49.33715" lon="0.9039">
        <ele>81</ele>
        <time>2013-10-13T07:15:30Z</time>
      </trkpt>
      <trkpt lat="49.33715" lon="0.9042">
        <ele>79</ele>
        <time>2013-10-13T07:15:36Z</time>
      </trkpt>
      <trkpt lat="49.33704" lon="0.90449">
        <ele>80</ele>
        <time>2013-10-13T07:15:44Z</time>
      </trkpt>
      <trkpt lat="49.33693" lon="0.90485">
        <ele>81</ele>
        <time>2013-10-13T07:15:50Z</time>
      </trkpt>
      <trkpt lat="49.33688" lon="0.9052">
        <ele>80</ele>
        <time>2013-10-13T07:15:56Z</time>
      </trkpt>
      <trkpt lat="49.33689" lon="0.9056">
        <ele>79</ele>
        <time>2013-10-13T07:16:02Z</time>
      </trkpt>
      <trkpt lat="49.33687" lon="0.90591">
        <ele>78</ele>
        <time>2013-10-13T07:16:08Z</time>
      </trkpt>
      <trkpt lat="49.33683" lon="0.90619">
        <ele>78</ele>
        <time>2013-10-13T07:16:16Z</time>
      </trkpt>
      <trkpt lat="49.33678" lon="0.90645">
        <ele>78</ele>
        <time>2013-10-13T07:16:22Z</time>
      </trkpt>
      <trkpt lat="49.33669" lon="0.90672">
        <ele>78</ele>
        <time>2013-10-13T07:16:28Z</time>
      </trkpt>
      <trkpt lat="49.33666" lon="0.90709">
        <ele>83</ele>
        <time>2013-10-13T07:16:34Z</time>
      </trkpt>
      <trkpt lat="49.33673" lon="0.90742">
        <ele>75</ele>
        <time>2013-10-13T07:16:40Z</time>
      </trkpt>
      <trkpt lat="49.33677" lon="0.90776">
        <ele>74</ele>
        <time>2013-10-13T07:16:46Z</time>
      </trkpt>
      <trkpt lat="49.33676" lon="0.90804">
        <ele>75</ele>
        <time>2013-10-13T07:16:50Z</time>
      </trkpt>
      <trkpt lat="49.33677" lon="0.90842">
        <ele>76</ele>
        <time>2013-10-13T07:16:56Z</time>
      </trkpt>
      <trkpt lat="49.33657" lon="0.90828">
        <ele>80</ele>
        <time>2013-10-13T07:17:08Z</time>
      </trkpt>
      <trkpt lat="49.33644" lon="0.90848">
        <ele>85</ele>
        <time>2013-10-13T07:17:50Z</time>
      </trkpt>
      <trkpt lat="49.33646" lon="0.90879">
        <ele>87</ele>
        <time>2013-10-13T07:18:06Z</time>
      </trkpt>
      <trkpt lat="49.33646" lon="0.90909">
        <ele>87</ele>
        <time>2013-10-13T07:18:24Z</time>
      </trkpt>
      <trkpt lat="49.33627" lon="0.90914">
        <ele>89</ele>
        <time>2013-10-13T07:18:48Z</time>
      </trkpt>
      <trkpt lat="49.3361" lon="0.90897">
        <ele>91</ele>
        <time>2013-10-13T07:18:58Z</time>
      </trkpt>
      <trkpt lat="49.33593" lon="0.9088">
        <ele>92</ele>
        <time>2013-10-13T07:19:08Z</time>
      </trkpt>
      <trkpt lat="49.3358" lon="0.90862">
        <ele>100</ele>
        <time>2013-10-13T07:19:18Z</time>
      </trkpt>
      <trkpt lat="49.33563" lon="0.9084">
        <ele>101</ele>
        <time>2013-10-13T07:19:30Z</time>
      </trkpt>
      <trkpt lat="49.33544" lon="0.90824">
        <ele>104</ele>
        <time>2013-10-13T07:19:40Z</time>
      </trkpt>
      <trkpt lat="49.33532" lon="0.90799">
        <ele>106</ele>
        <time>2013-10-13T07:19:50Z</time>
      </trkpt>
      <trkpt lat="49.33525" lon="0.90771">
        <ele>107</ele>
        <time>2013-10-13T07:20:14Z</time>
      </trkpt>
      <trkpt lat="49.33508" lon="0.90755">
        <ele>112</ele>
        <time>2013-10-13T07:20:20Z</time>
      </trkpt>
      <trkpt lat="49.33486" lon="0.90738">
        <ele>116</ele>
        <time>2013-10-13T07:20:26Z</time>
      </trkpt>
      <trkpt lat="49.33465" lon="0.90727">
        <ele>116</ele>
        <time>2013-10-13T07:20:32Z</time>
      </trkpt>
      <trkpt lat="49.3344" lon="0.90721">
        <ele>116</ele>
        <time>2013-10-13T07:20:38Z</time>
      </trkpt>
      <trkpt lat="49.33417" lon="0.90715">
        <ele>116</ele>
        <time>2013-10-13T07:20:46Z</time>
      </trkpt>
      <trkpt lat="49.33408" lon="0.90748">
        <ele>118</ele>
        <time>2013-10-13T07:20:56Z</time>
      </trkpt>
      <trkpt lat="49.33397" lon="0.90771">
        <ele>118</ele>
        <time>2013-10-13T07:21:06Z</time>
      </trkpt>
      <trkpt lat="49.33378" lon="0.90783">
        <ele>119</ele>
        <time>2013-10-13T07:21:20Z</time>
      </trkpt>
      <trkpt lat="49.33362" lon="0.90796">
        <ele>119</ele>
        <time>2013-10-13T07:21:38Z</time>
      </trkpt>
      <trkpt lat="49.33344" lon="0.90811">
        <ele>120</ele>
        <time>2013-10-13T07:21:50Z</time>
      </trkpt>
      <trkpt lat="49.33326" lon="0.90824">
        <ele>123</ele>
        <time>2013-10-13T07:22:00Z</time>
      </trkpt>
      <trkpt lat="49.3331" lon="0.90843">
        <ele>121</ele>
        <time>2013-10-13T07:22:20Z</time>
      </trkpt>
      <trkpt lat="49.3329" lon="0.90858">
        <ele>121</ele>
        <time>2013-10-13T07:22:30Z</time>
      </trkpt>
      <trkpt lat="49.33273" lon="0.90871">
        <ele>121</ele>
        <time>2013-10-13T07:22:36Z</time>
      </trkpt>
      <trkpt lat="49.3326" lon="0.90898">
        <ele>121</ele>
        <time>2013-10-13T07:22:46Z</time>
      </trkpt>
      <trkpt lat="49.33259" lon="0.90929">
        <ele>118</ele>
        <time>2013-10-13T07:22:52Z</time>
      </trkpt>
      <trkpt lat="49.33263" lon="0.90962">
        <ele>115</ele>
        <time>2013-10-13T07:22:58Z</time>
      </trkpt>
      <trkpt lat="49.33259" lon="0.90994">
        <ele>114</ele>
        <time>2013-10-13T07:23:04Z</time>
      </trkpt>
      <trkpt lat="49.33248" lon="0.91019">
        <ele>115</ele>
        <time>2013-10-13T07:23:12Z</time>
      </trkpt>
      <trkpt lat="49.33238" lon="0.91045">
        <ele>115</ele>
        <time>2013-10-13T07:23:20Z</time>
      </trkpt>
      <trkpt lat="49.33232" lon="0.9108">
        <ele>114</ele>
        <time>2013-10-13T07:23:28Z</time>
      </trkpt>
      <trkpt lat="49.33225" lon="0.91112">
        <ele>112</ele>
        <time>2013-10-13T07:23:38Z</time>
      </trkpt>
      <trkpt lat="49.33218" lon="0.91144">
        <ele>112</ele>
        <time>2013-10-13T07:23:44Z</time>
      </trkpt>
      <trkpt lat="49.3322" lon="0.91181">
        <ele>108</ele>
        <time>2013-10-13T07:23:50Z</time>
      </trkpt>
      <trkpt lat="49.33219" lon="0.9122">
        <ele>107</ele>
        <time>2013-10-13T07:23:56Z</time>
      </trkpt>
      <trkpt lat="49.33234" lon="0.91242">
        <ele>105</ele>
        <time>2013-10-13T07:24:06Z</time>
      </trkpt>
      <trkpt lat="49.33233" lon="0.91272">
        <ele>103</ele>
        <time>2013-10-13T07:24:12Z</time>
      </trkpt>
      <trkpt lat="49.33236" lon="0.91303">
        <ele>101</ele>
        <time>2013-10-13T07:24:18Z</time>
      </trkpt>
      <trkpt lat="49.33243" lon="0.91329">
        <ele>99</ele>
        <time>2013-10-13T07:24:24Z</time>
      </trkpt>
      <trkpt lat="49.33249" lon="0.91371">
        <ele>100</ele>
        <time>2013-10-13T07:24:30Z</time>
      </trkpt>
      <trkpt lat="49.3326" lon="0.91397">
        <ele>95</ele>
        <time>2013-10-13T07:24:34Z</time>
      </trkpt>
      <trkpt lat="49.33271" lon="0.91432">
        <ele>96</ele>
        <time>2013-10-13T07:24:40Z</time>
      </trkpt>
      <trkpt lat="49.33276" lon="0.91461">
        <ele>95</ele>
        <time>2013-10-13T07:24:44Z</time>
      </trkpt>
      <trkpt lat="49.33286" lon="0.91488">
        <ele>95</ele>
        <time>2013-10-13T07:24:50Z</time>
      </trkpt>
      <trkpt lat="49.33296" lon="0.91515">
        <ele>93</ele>
        <time>2013-10-13T07:24:54Z</time>
      </trkpt>
      <trkpt lat="49.33307" lon="0.91539">
        <ele>92</ele>
        <time>2013-10-13T07:24:58Z</time>
      </trkpt>
      <trkpt lat="49.33315" lon="0.91567">
        <ele>91</ele>
        <time>2013-10-13T07:25:04Z</time>
      </trkpt>
      <trkpt lat="49.3332" lon="0.91595">
        <ele>87</ele>
        <time>2013-10-13T07:25:10Z</time>
      </trkpt>
      <trkpt lat="49.33331" lon="0.91625">
        <ele>86</ele>
        <time>2013-10-13T07:25:16Z</time>
      </trkpt>
      <trkpt lat="49.33334" lon="0.91654">
        <ele>78</ele>
        <time>2013-10-13T07:25:22Z</time>
      </trkpt>
      <trkpt lat="49.33335" lon="0.91686">
        <ele>75</ele>
        <time>2013-10-13T07:25:28Z</time>
      </trkpt>
      <trkpt lat="49.33343" lon="0.91715">
        <ele>73</ele>
        <time>2013-10-13T07:25:32Z</time>
      </trkpt>
      <trkpt lat="49.3335" lon="0.91746">
        <ele>73</ele>
        <time>2013-10-13T07:25:38Z</time>
      </trkpt>
      <trkpt lat="49.3335" lon="0.91779">
        <ele>70</ele>
        <time>2013-10-13T07:25:48Z</time>
      </trkpt>
      <trkpt lat="49.33344" lon="0.91807">
        <ele>70</ele>
        <time>2013-10-13T07:25:54Z</time>
      </trkpt>
      <trkpt lat="49.33355" lon="0.91835">
        <ele>69</ele>
        <time>2013-10-13T07:26:02Z</time>
      </trkpt>
      <trkpt lat="49.33371" lon="0.9182">
        <ele>68</ele>
        <time>2013-10-13T07:26:26Z</time>
      </trkpt>
      <trkpt lat="49.33389" lon="0.91847">
        <ele>66</ele>
        <time>2013-10-13T07:26:56Z</time>
      </trkpt>
      <trkpt lat="49.33414" lon="0.91864">
        <ele>65</ele>
        <time>2013-10-13T07:27:02Z</time>
      </trkpt>
      <trkpt lat="49.33435" lon="0.91879">
        <ele>62</ele>
        <time>2013-10-13T07:27:06Z</time>
      </trkpt>
      <trkpt lat="49.33452" lon="0.91892">
        <ele>63</ele>
        <time>2013-10-13T07:27:12Z</time>
      </trkpt>
      <trkpt lat="49.33468" lon="0.91908">
        <ele>63</ele>
        <time>2013-10-13T07:27:18Z</time>
      </trkpt>
      <trkpt lat="49.33488" lon="0.91921">
        <ele>64</ele>
        <time>2013-10-13T07:27:24Z</time>
      </trkpt>
      <trkpt lat="49.33507" lon="0.91918">
        <ele>66</ele>
        <time>2013-10-13T07:27:28Z</time>
      </trkpt>
      <trkpt lat="49.33523" lon="0.91898">
        <ele>71</ele>
        <time>2013-10-13T07:27:32Z</time>
      </trkpt>
      <trkpt lat="49.33531" lon="0.91873">
        <ele>73</ele>
        <time>2013-10-13T07:28:00Z</time>
      </trkpt>
      <trkpt lat="49.33524" lon="0.91843">
        <ele>72</ele>
        <time>2013-10-13T07:31:22Z</time>
      </trkpt>
      <trkpt lat="49.33518" lon="0.91809">
        <ele>73</ele>
        <time>2013-10-13T07:31:28Z</time>
      </trkpt>
      <trkpt lat="49.33508" lon="0.91777">
        <ele>72</ele>
        <time>2013-10-13T07:31:32Z</time>
      </trkpt>
      <trkpt lat="49.33496" lon="0.91743">
        <ele>64</ele>
        <time>2013-10-13T07:31:36Z</time>
      </trkpt>
      <trkpt lat="49.33488" lon="0.91715">
        <ele>63</ele>
        <time>2013-10-13T07:31:42Z</time>
      </trkpt>
      <trkpt lat="49.33486" lon="0.91744">
        <ele>63</ele>
        <time>2013-10-13T07:31:50Z</time>
      </trkpt>
      <trkpt lat="49.33484" lon="0.91774">
        <ele>63</ele>
        <time>2013-10-13T07:31:56Z</time>
      </trkpt>
      <trkpt lat="49.33477" lon="0.91806">
        <ele>63</ele>
        <time>2013-10-13T07:32:04Z</time>
      </trkpt>
      <trkpt lat="49.33457" lon="0.91818">
        <ele>62</ele>
        <time>2013-10-13T07:32:10Z</time>
      </trkpt>
      <trkpt lat="49.33467" lon="0.91844">
        <ele>63</ele>
        <time>2013-10-13T07:32:24Z</time>
      </trkpt>
      <trkpt lat="49.33448" lon="0.91838">
        <ele>62</ele>
        <time>2013-10-13T07:32:38Z</time>
      </trkpt>
      <trkpt lat="49.33437" lon="0.91863">
        <ele>62</ele>
        <time>2013-10-13T07:32:44Z</time>
      </trkpt>
      <trkpt lat="49.33435" lon="0.91891">
        <ele>62</ele>
        <time>2013-10-13T07:32:50Z</time>
      </trkpt>
      <trkpt lat="49.33431" lon="0.91919">
        <ele>63</ele>
        <time>2013-10-13T07:32:56Z</time>
      </trkpt>
      <trkpt lat="49.33428" lon="0.91946">
        <ele>64</ele>
        <time>2013-10-13T07:33:02Z</time>
      </trkpt>
      <trkpt lat="49.33431" lon="0.91975">
        <ele>64</ele>
        <time>2013-10-13T07:33:08Z</time>
      </trkpt>
      <trkpt lat="49.33427" lon="0.92004">
        <ele>65</ele>
        <time>2013-10-13T07:33:16Z</time>
      </trkpt>
      <trkpt lat="49.3343" lon="0.92038">
        <ele>66</ele>
        <time>2013-10-13T07:33:20Z</time>
      </trkpt>
      <trkpt lat="49.33434" lon="0.92065">
        <ele>65</ele>
        <time>2013-10-13T07:33:24Z</time>
      </trkpt>
      <trkpt lat="49.33439" lon="0.92107">
        <ele>67</ele>
        <time>2013-10-13T07:33:30Z</time>
      </trkpt>
      <trkpt lat="49.33445" lon="0.92137">
        <ele>68</ele>
        <time>2013-10-13T07:33:36Z</time>
      </trkpt>
      <trkpt lat="49.33429" lon="0.92154">
        <ele>66</ele>
        <time>2013-10-13T07:33:46Z</time>
      </trkpt>
      <trkpt lat="49.33444" lon="0.92136">
        <ele>68</ele>
        <time>2013-10-13T07:34:26Z</time>
      </trkpt>
      <trkpt lat="49.33463" lon="0.92125">
        <ele>69</ele>
        <time>2013-10-13T07:34:36Z</time>
      </trkpt>
      <trkpt lat="49.3349" lon="0.92114">
        <ele>70</ele>
        <time>2013-10-13T07:34:40Z</time>
      </trkpt>
      <trkpt lat="49.3351" lon="0.92107">
        <ele>78</ele>
        <time>2013-10-13T07:34:44Z</time>
      </trkpt>
      <trkpt lat="49.33533" lon="0.92081">
        <ele>73</ele>
        <time>2013-10-13T07:34:52Z</time>
      </trkpt>
      <trkpt lat="49.33557" lon="0.92063">
        <ele>75</ele>
        <time>2013-10-13T07:34:58Z</time>
      </trkpt>
      <trkpt lat="49.33576" lon="0.9206">
        <ele>77</ele>
        <time>2013-10-13T07:35:08Z</time>
      </trkpt>
      <trkpt lat="49.33598" lon="0.92057">
        <ele>82</ele>
        <time>2013-10-13T07:35:20Z</time>
      </trkpt>
      <trkpt lat="49.33617" lon="0.92048">
        <ele>82</ele>
        <time>2013-10-13T07:35:30Z</time>
      </trkpt>
      <trkpt lat="49.33635" lon="0.92063">
        <ele>85</ele>
        <time>2013-10-13T07:35:48Z</time>
      </trkpt>
      <trkpt lat="49.33657" lon="0.9207">
        <ele>89</ele>
        <time>2013-10-13T07:35:56Z</time>
      </trkpt>
      <trkpt lat="49.33674" lon="0.92087">
        <ele>98</ele>
        <time>2013-10-13T07:36:06Z</time>
      </trkpt>
      <trkpt lat="49.33694" lon="0.92096">
        <ele>101</ele>
        <time>2013-10-13T07:36:18Z</time>
      </trkpt>
      <trkpt lat="49.33711" lon="0.92109">
        <ele>103</ele>
        <time>2013-10-13T07:36:26Z</time>
      </trkpt>
      <trkpt lat="49.33727" lon="0.92124">
        <ele>105</ele>
        <time>2013-10-13T07:36:34Z</time>
      </trkpt>
      <trkpt lat="49.33748" lon="0.92137">
        <ele>107</ele>
        <time>2013-10-13T07:36:42Z</time>
      </trkpt>
      <trkpt lat="49.33769" lon="0.92137">
        <ele>104</ele>
        <time>2013-10-13T07:36:48Z</time>
      </trkpt>
      <trkpt lat="49.33789" lon="0.92133">
        <ele>102</ele>
        <time>2013-10-13T07:36:54Z</time>
      </trkpt>
      <trkpt lat="49.33808" lon="0.92141">
        <ele>101</ele>
        <time>2013-10-13T07:37:00Z</time>
      </trkpt>
      <trkpt lat="49.33825" lon="0.92154">
        <ele>102</ele>
        <time>2013-10-13T07:37:10Z</time>
      </trkpt>
      <trkpt lat="49.33843" lon="0.92159">
        <ele>100</ele>
        <time>2013-10-13T07:37:18Z</time>
      </trkpt>
      <trkpt lat="49.33847" lon="0.9219">
        <ele>103</ele>
        <time>2013-10-13T07:37:32Z</time>
      </trkpt>
      <trkpt lat="49.33856" lon="0.92216">
        <ele>105</ele>
        <time>2013-10-13T07:37:48Z</time>
      </trkpt>
      <trkpt lat="49.33857" lon="0.92246">
        <ele>107</ele>
        <time>2013-10-13T07:38:08Z</time>
      </trkpt>
      <trkpt lat="49.33846" lon="0.92269">
        <ele>112</ele>
        <time>2013-10-13T07:38:18Z</time>
      </trkpt>
      <trkpt lat="49.33836" lon="0.92299">
        <ele>112</ele>
        <time>2013-10-13T07:38:28Z</time>
      </trkpt>
      <trkpt lat="49.33829" lon="0.92325">
        <ele>117</ele>
        <time>2013-10-13T07:38:40Z</time>
      </trkpt>
      <trkpt lat="49.33829" lon="0.92353">
        <ele>119</ele>
        <time>2013-10-13T07:38:54Z</time>
      </trkpt>
      <trkpt lat="49.33836" lon="0.9238">
        <ele>115</ele>
        <time>2013-10-13T07:39:10Z</time>
      </trkpt>
      <trkpt lat="49.33839" lon="0.92412">
        <ele>117</ele>
        <time>2013-10-13T07:39:26Z</time>
      </trkpt>
      <trkpt lat="49.33831" lon="0.9244">
        <ele>122</ele>
        <time>2013-10-13T07:39:38Z</time>
      </trkpt>
      <trkpt lat="49.33827" lon="0.92469">
        <ele>123</ele>
        <time>2013-10-13T07:39:52Z</time>
      </trkpt>
      <trkpt lat="49.3382" lon="0.92495">
        <ele>123</ele>
        <time>2013-10-13T07:40:02Z</time>
      </trkpt>
      <trkpt lat="49.33803" lon="0.92515">
        <ele>124</ele>
        <time>2013-10-13T07:40:10Z</time>
      </trkpt>
      <trkpt lat="49.33784" lon="0.92534">
        <ele>124</ele>
        <time>2013-10-13T07:40:16Z</time>
      </trkpt>
      <trkpt lat="49.33771" lon="0.92563">
        <ele>124</ele>
        <time>2013-10-13T07:40:26Z</time>
      </trkpt>
      <trkpt lat="49.33753" lon="0.92574">
        <ele>123</ele>
        <time>2013-10-13T07:40:34Z</time>
      </trkpt>
      <trkpt lat="49.33736" lon="0.92583">
        <ele>120</ele>
        <time>2013-10-13T07:40:40Z</time>
      </trkpt>
      <trkpt lat="49.33721" lon="0.92604">
        <ele>111</ele>
        <time>2013-10-13T07:40:54Z</time>
      </trkpt>
      <trkpt lat="49.33722" lon="0.9264">
        <ele>109</ele>
        <time>2013-10-13T07:41:14Z</time>
      </trkpt>
      <trkpt lat="49.33729" lon="0.92665">
        <ele>110</ele>
        <time>2013-10-13T07:41:24Z</time>
      </trkpt>
      <trkpt lat="49.33748" lon="0.92683">
        <ele>107</ele>
        <time>2013-10-13T07:41:32Z</time>
      </trkpt>
      <trkpt lat="49.33769" lon="0.92692">
        <ele>114</ele>
        <time>2013-10-13T07:41:36Z</time>
      </trkpt>
      <trkpt lat="49.33784" lon="0.92709">
        <ele>114</ele>
        <time>2013-10-13T07:41:42Z</time>
      </trkpt>
      <trkpt lat="49.3379" lon="0.92741">
        <ele>113</ele>
        <time>2013-10-13T07:41:50Z</time>
      </trkpt>
      <trkpt lat="49.33818" lon="0.92771">
        <ele>111</ele>
        <time>2013-10-13T07:41:58Z</time>
      </trkpt>
      <trkpt lat="49.33842" lon="0.92779">
        <ele>119</ele>
        <time>2013-10-13T07:42:00Z</time>
      </trkpt>
      <trkpt lat="49.33862" lon="0.92788">
        <ele>120</ele>
        <time>2013-10-13T07:42:04Z</time>
      </trkpt>
      <trkpt lat="49.33868" lon="0.92815">
        <ele>119</ele>
        <time>2013-10-13T07:42:12Z</time>
      </trkpt>
      <trkpt lat="49.33863" lon="0.92846">
        <ele>115</ele>
        <time>2013-10-13T07:42:22Z</time>
      </trkpt>
      <trkpt lat="49.33852" lon="0.9288">
        <ele>112</ele>
        <time>2013-10-13T07:42:34Z</time>
      </trkpt>
      <trkpt lat="49.33856" lon="0.92918">
        <ele>105</ele>
        <time>2013-10-13T07:42:40Z</time>
      </trkpt>
      <trkpt lat="49.33864" lon="0.92956">
        <ele>106</ele>
        <time>2013-10-13T07:42:44Z</time>
      </trkpt>
      <trkpt lat="49.33875" lon="0.92985">
        <ele>106</ele>
        <time>2013-10-13T07:42:48Z</time>
      </trkpt>
      <trkpt lat="49.33886" lon="0.93006">
        <ele>103</ele>
        <time>2013-10-13T07:42:52Z</time>
      </trkpt>
      <trkpt lat="49.33897" lon="0.9304">
        <ele>103</ele>
        <time>2013-10-13T07:42:58Z</time>
      </trkpt>
      <trkpt lat="49.33907" lon="0.93067">
        <ele>104</ele>
        <time>2013-10-13T07:43:04Z</time>
      </trkpt>
      <trkpt lat="49.33929" lon="0.93084">
        <ele>112</ele>
        <time>2013-10-13T07:43:08Z</time>
      </trkpt>
      <trkpt lat="49.33941" lon="0.93109">
        <ele>115</ele>
        <time>2013-10-13T07:43:14Z</time>
      </trkpt>
      <trkpt lat="49.33954" lon="0.9314">
        <ele>116</ele>
        <time>2013-10-13T07:43:20Z</time>
      </trkpt>
      <trkpt lat="49.33965" lon="0.93164">
        <ele>118</ele>
        <time>2013-10-13T07:43:26Z</time>
      </trkpt>
      <trkpt lat="49.33972" lon="0.932">
        <ele>119</ele>
        <time>2013-10-13T07:43:38Z</time>
      </trkpt>
      <trkpt lat="49.33973" lon="0.93232">
        <ele>120</ele>
        <time>2013-10-13T07:43:46Z</time>
      </trkpt>
      <trkpt lat="49.33973" lon="0.93266">
        <ele>120</ele>
        <time>2013-10-13T07:43:54Z</time>
      </trkpt>
      <trkpt lat="49.33966" lon="0.933">
        <ele>119</ele>
        <time>2013-10-13T07:44:02Z</time>
      </trkpt>
      <trkpt lat="49.3396" lon="0.93327">
        <ele>118</ele>
        <time>2013-10-13T07:44:10Z</time>
      </trkpt>
      <trkpt lat="49.3395" lon="0.93352">
        <ele>116</ele>
        <time>2013-10-13T07:44:18Z</time>
      </trkpt>
      <trkpt lat="49.33944" lon="0.93393">
        <ele>115</ele>
        <time>2013-10-13T07:44:26Z</time>
      </trkpt>
      <trkpt lat="49.3394" lon="0.9342">
        <ele>115</ele>
        <time>2013-10-13T07:44:32Z</time>
      </trkpt>
      <trkpt lat="49.3393" lon="0.93454">
        <ele>117</ele>
        <time>2013-10-13T07:44:40Z</time>
      </trkpt>
      <trkpt lat="49.33927" lon="0.93483">
        <ele>116</ele>
        <time>2013-10-13T07:44:46Z</time>
      </trkpt>
      <trkpt lat="49.33921" lon="0.93522">
        <ele>119</ele>
        <time>2013-10-13T07:44:54Z</time>
      </trkpt>
      <trkpt lat="49.33915" lon="0.93558">
        <ele>109</ele>
        <time>2013-10-13T07:45:00Z</time>
      </trkpt>
      <trkpt lat="49.33906" lon="0.93589">
        <ele>118</ele>
        <time>2013-10-13T07:45:08Z</time>
      </trkpt>
      <trkpt lat="49.33905" lon="0.93619">
        <ele>117</ele>
        <time>2013-10-13T07:45:14Z</time>
      </trkpt>
      <trkpt lat="49.33898" lon="0.93649">
        <ele>120</ele>
        <time>2013-10-13T07:45:22Z</time>
      </trkpt>
      <trkpt lat="49.33893" lon="0.9368">
        <ele>128</ele>
        <time>2013-10-13T07:45:34Z</time>
      </trkpt>
      <trkpt lat="49.33881" lon="0.93702">
        <ele>127</ele>
        <time>2013-10-13T07:45:42Z</time>
      </trkpt>
      <trkpt lat="49.33865" lon="0.93721">
        <ele>127</ele>
        <time>2013-10-13T07:45:48Z</time>
      </trkpt>
      <trkpt lat="49.33843" lon="0.93724">
        <ele>126</ele>
        <time>2013-10-13T07:45:54Z</time>
      </trkpt>
      <trkpt lat="49.33822" lon="0.93721">
        <ele>118</ele>
        <time>2013-10-13T07:46:00Z</time>
      </trkpt>
      <trkpt lat="49.33799" lon="0.93717">
        <ele>116</ele>
        <time>2013-10-13T07:46:08Z</time>
      </trkpt>
      <trkpt lat="49.33781" lon="0.93714">
        <ele>114</ele>
        <time>2013-10-13T07:46:12Z</time>
      </trkpt>
      <trkpt lat="49.33759" lon="0.93721">
        <ele>115</ele>
        <time>2013-10-13T07:46:18Z</time>
      </trkpt>
      <trkpt lat="49.3374" lon="0.93714">
        <ele>110</ele>
        <time>2013-10-13T07:46:24Z</time>
      </trkpt>
      <trkpt lat="49.33719" lon="0.93702">
        <ele>108</ele>
        <time>2013-10-13T07:46:30Z</time>
      </trkpt>
      <trkpt lat="49.33701" lon="0.93689">
        <ele>107</ele>
        <time>2013-10-13T07:46:36Z</time>
      </trkpt>
      <trkpt lat="49.33682" lon="0.93676">
        <ele>104</ele>
        <time>2013-10-13T07:46:42Z</time>
      </trkpt>
      <trkpt lat="49.3366" lon="0.93685">
        <ele>102</ele>
        <time>2013-10-13T07:46:50Z</time>
      </trkpt>
      <trkpt lat="49.33641" lon="0.93697">
        <ele>103</ele>
        <time>2013-10-13T07:46:56Z</time>
      </trkpt>
      <trkpt lat="49.33628" lon="0.93716">
        <ele>104</ele>
        <time>2013-10-13T07:47:02Z</time>
      </trkpt>
      <trkpt lat="49.33632" lon="0.93744">
        <ele>107</ele>
        <time>2013-10-13T07:47:22Z</time>
      </trkpt>
      <trkpt lat="49.33635" lon="0.93771">
        <ele>115</ele>
        <time>2013-10-13T07:47:30Z</time>
      </trkpt>
      <trkpt lat="49.33629" lon="0.93798">
        <ele>115</ele>
        <time>2013-10-13T07:47:40Z</time>
      </trkpt>
      <trkpt lat="49.33637" lon="0.93826">
        <ele>118</ele>
        <time>2013-10-13T07:48:02Z</time>
      </trkpt>
      <trkpt lat="49.33648" lon="0.93855">
        <ele>122</ele>
        <time>2013-10-13T07:48:18Z</time>
      </trkpt>
      <trkpt lat="49.33658" lon="0.93886">
        <ele>123</ele>
        <time>2013-10-13T07:48:28Z</time>
      </trkpt>
      <trkpt lat="49.33661" lon="0.93914">
        <ele>128</ele>
        <time>2013-10-13T07:48:34Z</time>
      </trkpt>
      <trkpt lat="49.33671" lon="0.93944">
        <ele>131</ele>
        <time>2013-10-13T07:48:42Z</time>
      </trkpt>
      <trkpt lat="49.33682" lon="0.93973">
        <ele>131</ele>
        <time>2013-10-13T07:48:52Z</time>
      </trkpt>
      <trkpt lat="49.33687" lon="0.94007">
        <ele>129</ele>
        <time>2013-10-13T07:48:58Z</time>
      </trkpt>
      <trkpt lat="49.33695" lon="0.94032">
        <ele>129</ele>
        <time>2013-10-13T07:49:04Z</time>
      </trkpt>
      <trkpt lat="49.33693" lon="0.94063">
        <ele>127</ele>
        <time>2013-10-13T07:49:14Z</time>
      </trkpt>
      <trkpt lat="49.3368" lon="0.94083">
        <ele>124</ele>
        <time>2013-10-13T07:50:12Z</time>
      </trkpt>
      <trkpt lat="49.33675" lon="0.94113">
        <ele>121</ele>
        <time>2013-10-13T07:50:20Z</time>
      </trkpt>
      <trkpt lat="49.33671" lon="0.94154">
        <ele>118</ele>
        <time>2013-10-13T07:50:28Z</time>
      </trkpt>
      <trkpt lat="49.33669" lon="0.9419">
        <ele>117</ele>
        <time>2013-10-13T07:50:34Z</time>
      </trkpt>
      <trkpt lat="49.33669" lon="0.94226">
        <ele>116</ele>
        <time>2013-10-13T07:50:40Z</time>
      </trkpt>
      <trkpt lat="49.3367" lon="0.94269">
        <ele>115</ele>
        <time>2013-10-13T07:50:46Z</time>
      </trkpt>
      <trkpt lat="49.3367" lon="0.94308">
        <ele>115</ele>
        <time>2013-10-13T07:50:52Z</time>
      </trkpt>
      <trkpt lat="49.33672" lon="0.94339">
        <ele>113</ele>
        <time>2013-10-13T07:50:56Z</time>
      </trkpt>
      <trkpt lat="49.3367" lon="0.94375">
        <ele>115</ele>
        <time>2013-10-13T07:51:00Z</time>
      </trkpt>
      <trkpt lat="49.33662" lon="0.94412">
        <ele>109</ele>
        <time>2013-10-13T07:51:04Z</time>
      </trkpt>
      <trkpt lat="49.33656" lon="0.94444">
        <ele>104</ele>
        <time>2013-10-13T07:51:08Z</time>
      </trkpt>
      <trkpt lat="49.33652" lon="0.94478">
        <ele>104</ele>
        <time>2013-10-13T07:51:12Z</time>
      </trkpt>
      <trkpt lat="49.33649" lon="0.94507">
        <ele>104</ele>
        <time>2013-10-13T07:51:16Z</time>
      </trkpt>
      <trkpt lat="49.33635" lon="0.94546">
        <ele>99</ele>
        <time>2013-10-13T07:51:22Z</time>
      </trkpt>
      <trkpt lat="49.33627" lon="0.94581">
        <ele>97</ele>
        <time>2013-10-13T07:51:26Z</time>
      </trkpt>
      <trkpt lat="49.33618" lon="0.94607">
        <ele>93</ele>
        <time>2013-10-13T07:51:30Z</time>
      </trkpt>
      <trkpt lat="49.33609" lon="0.94636">
        <ele>91</ele>
        <time>2013-10-13T07:51:36Z</time>
      </trkpt>
      <trkpt lat="49.3361" lon="0.94672">
        <ele>85</ele>
        <time>2013-10-13T07:51:44Z</time>
      </trkpt>
      <trkpt lat="49.33617" lon="0.94706">
        <ele>85</ele>
        <time>2013-10-13T07:51:50Z</time>
      </trkpt>
      <trkpt lat="49.33626" lon="0.94743">
        <ele>84</ele>
        <time>2013-10-13T07:51:56Z</time>
      </trkpt>
      <trkpt lat="49.33632" lon="0.94775">
        <ele>77</ele>
        <time>2013-10-13T07:52:00Z</time>
      </trkpt>
      <trkpt lat="49.33638" lon="0.94815">
        <ele>75</ele>
        <time>2013-10-13T07:52:06Z</time>
      </trkpt>
      <trkpt lat="49.33653" lon="0.94844">
        <ele>72</ele>
        <time>2013-10-13T07:52:12Z</time>
      </trkpt>
      <trkpt lat="49.33667" lon="0.94865">
        <ele>80</ele>
        <time>2013-10-13T07:52:16Z</time>
      </trkpt>
      <trkpt lat="49.33677" lon="0.94896">
        <ele>76</ele>
        <time>2013-10-13T07:52:20Z</time>
      </trkpt>
      <trkpt lat="49.33694" lon="0.94922">
        <ele>72</ele>
        <time>2013-10-13T07:52:26Z</time>
      </trkpt>
      <trkpt lat="49.3371" lon="0.94936">
        <ele>74</ele>
        <time>2013-10-13T07:52:32Z</time>
      </trkpt>
      <trkpt lat="49.33732" lon="0.9494">
        <ele>77</ele>
        <time>2013-10-13T07:52:40Z</time>
      </trkpt>
      <trkpt lat="49.33751" lon="0.9493">
        <ele>87</ele>
        <time>2013-10-13T07:53:32Z</time>
      </trkpt>
      <trkpt lat="49.33771" lon="0.94931">
        <ele>88</ele>
        <time>2013-10-13T07:54:00Z</time>
      </trkpt>
      <trkpt lat="49.33767" lon="0.94958">
        <ele>88</ele>
        <time>2013-10-13T07:54:14Z</time>
      </trkpt>
      <trkpt lat="49.33756" lon="0.94981">
        <ele>86</ele>
        <time>2013-10-13T07:54:26Z</time>
      </trkpt>
      <trkpt lat="49.33749" lon="0.95007">
        <ele>79</ele>
        <time>2013-10-13T07:54:38Z</time>
      </trkpt>
      <trkpt lat="49.33743" lon="0.95034">
        <ele>75</ele>
        <time>2013-10-13T07:54:46Z</time>
      </trkpt>
      <trkpt lat="49.33743" lon="0.95068">
        <ele>78</ele>
        <time>2013-10-13T07:54:54Z</time>
      </trkpt>
      <trkpt lat="49.33748" lon="0.95097">
        <ele>79</ele>
        <time>2013-10-13T07:55:00Z</time>
      </trkpt>
      <trkpt lat="49.3375" lon="0.95137">
        <ele>92</ele>
        <time>2013-10-13T07:55:06Z</time>
      </trkpt>
      <trkpt lat="49.33751" lon="0.95165">
        <ele>85</ele>
        <time>2013-10-13T07:55:10Z</time>
      </trkpt>
      <trkpt lat="49.33753" lon="0.952">
        <ele>91</ele>
        <time>2013-10-13T07:55:14Z</time>
      </trkpt>
      <trkpt lat="49.33755" lon="0.95233">
        <ele>87</ele>
        <time>2013-10-13T07:55:18Z</time>
      </trkpt>
      <trkpt lat="49.33756" lon="0.95275">
        <ele>86</ele>
        <time>2013-10-13T07:55:22Z</time>
      </trkpt>
      <trkpt lat="49.33754" lon="0.95315">
        <ele>81</ele>
        <time>2013-10-13T07:55:26Z</time>
      </trkpt>
      <trkpt lat="49.33752" lon="0.95344">
        <ele>77</ele>
        <time>2013-10-13T07:55:28Z</time>
      </trkpt>
      <trkpt lat="49.33749" lon="0.95375">
        <ele>64</ele>
        <time>2013-10-13T07:55:30Z</time>
      </trkpt>
      <trkpt lat="49.33745" lon="0.95419">
        <ele>70</ele>
        <time>2013-10-13T07:55:34Z</time>
      </trkpt>
      <trkpt lat="49.33741" lon="0.95452">
        <ele>66</ele>
        <time>2013-10-13T07:55:38Z</time>
      </trkpt>
      <trkpt lat="49.33736" lon="0.95487">
        <ele>68</ele>
        <time>2013-10-13T07:55:42Z</time>
      </trkpt>
      <trkpt lat="49.33732" lon="0.95527">
        <ele>68</ele>
        <time>2013-10-13T07:55:46Z</time>
      </trkpt>
      <trkpt lat="49.3373" lon="0.95565">
        <ele>68</ele>
        <time>2013-10-13T07:55:50Z</time>
      </trkpt>
      <trkpt lat="49.33732" lon="0.95612">
        <ele>68</ele>
        <time>2013-10-13T07:55:54Z</time>
      </trkpt>
      <trkpt lat="49.33741" lon="0.95658">
        <ele>69</ele>
        <time>2013-10-13T07:55:58Z</time>
      </trkpt>
      <trkpt lat="49.33741" lon="0.95719">
        <ele>66</ele>
        <time>2013-10-13T07:56:02Z</time>
      </trkpt>
      <trkpt lat="49.33734" lon="0.95775">
        <ele>65</ele>
        <time>2013-10-13T07:56:06Z</time>
      </trkpt>
      <trkpt lat="49.3372" lon="0.9581">
        <ele>63</ele>
        <time>2013-10-13T07:56:12Z</time>
      </trkpt>
      <trkpt lat="49.33697" lon="0.95798">
        <ele>61</ele>
        <time>2013-10-13T07:56:18Z</time>
      </trkpt>
      <trkpt lat="49.33686" lon="0.95775">
        <ele>60</ele>
        <time>2013-10-13T07:56:24Z</time>
      </trkpt>
      <trkpt lat="49.33685" lon="0.95741">
        <ele>60</ele>
        <time>2013-10-13T07:56:30Z</time>
      </trkpt>
      <trkpt lat="49.33681" lon="0.95708">
        <ele>61</ele>
        <time>2013-10-13T07:56:36Z</time>
      </trkpt>
      <trkpt lat="49.33679" lon="0.95669">
        <ele>59</ele>
        <time>2013-10-13T07:56:44Z</time>
      </trkpt>
      <trkpt lat="49.33679" lon="0.9564">
        <ele>62</ele>
        <time>2013-10-13T07:56:48Z</time>
      </trkpt>
      <trkpt lat="49.33683" lon="0.95603">
        <ele>62</ele>
        <time>2013-10-13T07:56:54Z</time>
      </trkpt>
      <trkpt lat="49.33679" lon="0.9557">
        <ele>60</ele>
        <time>2013-10-13T07:57:00Z</time>
      </trkpt>
      <trkpt lat="49.33676" lon="0.95537">
        <ele>61</ele>
        <time>2013-10-13T07:57:06Z</time>
      </trkpt>
      <trkpt lat="49.33664" lon="0.95504">
        <ele>52</ele>
        <time>2013-10-13T07:57:12Z</time>
      </trkpt>
      <trkpt lat="49.33654" lon="0.95529">
        <ele>52</ele>
        <time>2013-10-13T07:57:30Z</time>
      </trkpt>
      <trkpt lat="49.3365" lon="0.95564">
        <ele>53</ele>
        <time>2013-10-13T07:57:36Z</time>
      </trkpt>
      <trkpt lat="49.33646" lon="0.95603">
        <ele>52</ele>
        <time>2013-10-13T07:57:44Z</time>
      </trkpt>
      <trkpt lat="49.33646" lon="0.9564">
        <ele>52</ele>
        <time>2013-10-13T07:57:56Z</time>
      </trkpt>
      <trkpt lat="49.33641" lon="0.95677">
        <ele>52</ele>
        <time>2013-10-13T07:58:02Z</time>
      </trkpt>
      <trkpt lat="49.3363" lon="0.95716">
        <ele>51</ele>
        <time>2013-10-13T07:58:10Z</time>
      </trkpt>
      <trkpt lat="49.33635" lon="0.95743">
        <ele>52</ele>
        <time>2013-10-13T07:58:14Z</time>
      </trkpt>
      <trkpt lat="49.33635" lon="0.95772">
        <ele>53</ele>
        <time>2013-10-13T07:58:20Z</time>
      </trkpt>
      <trkpt lat="49.33629" lon="0.95821">
        <ele>54</ele>
        <time>2013-10-13T07:58:30Z</time>
      </trkpt>
      <trkpt lat="49.33609" lon="0.95846">
        <ele>57</ele>
        <time>2013-10-13T07:58:44Z</time>
      </trkpt>
      <trkpt lat="49.336" lon="0.95875">
        <ele>59</ele>
        <time>2013-10-13T07:59:16Z</time>
      </trkpt>
      <trkpt lat="49.33587" lon="0.95897">
        <ele>61</ele>
        <time>2013-10-13T07:59:24Z</time>
      </trkpt>
      <trkpt lat="49.33578" lon="0.95922">
        <ele>63</ele>
        <time>2013-10-13T07:59:32Z</time>
      </trkpt>
      <trkpt lat="49.33557" lon="0.95946">
        <ele>63</ele>
        <time>2013-10-13T07:59:42Z</time>
      </trkpt>
      <trkpt lat="49.33552" lon="0.95978">
        <ele>65</ele>
        <time>2013-10-13T08:00:02Z</time>
      </trkpt>
      <trkpt lat="49.33536" lon="0.96006">
        <ele>71</ele>
        <time>2013-10-13T08:00:12Z</time>
      </trkpt>
      <trkpt lat="49.33525" lon="0.96038">
        <ele>71</ele>
        <time>2013-10-13T08:00:30Z</time>
      </trkpt>
      <trkpt lat="49.33512" lon="0.96058">
        <ele>72</ele>
        <time>2013-10-13T08:00:34Z</time>
      </trkpt>
      <trkpt lat="49.33502" lon="0.96087">
        <ele>73</ele>
        <time>2013-10-13T08:00:44Z</time>
      </trkpt>
      <trkpt lat="49.33496" lon="0.96113">
        <ele>68</ele>
        <time>2013-10-13T08:00:50Z</time>
      </trkpt>
      <trkpt lat="49.33495" lon="0.9615">
        <ele>70</ele>
        <time>2013-10-13T08:00:56Z</time>
      </trkpt>
      <trkpt lat="49.33498" lon="0.96188">
        <ele>69</ele>
        <time>2013-10-13T08:01:02Z</time>
      </trkpt>
      <trkpt lat="49.33504" lon="0.96217">
        <ele>75</ele>
        <time>2013-10-13T08:01:08Z</time>
      </trkpt>
      <trkpt lat="49.33513" lon="0.96243">
        <ele>74</ele>
        <time>2013-10-13T08:01:20Z</time>
      </trkpt>
      <trkpt lat="49.33533" lon="0.96258">
        <ele>75</ele>
        <time>2013-10-13T08:01:28Z</time>
      </trkpt>
      <trkpt lat="49.33552" lon="0.96272">
        <ele>76</ele>
        <time>2013-10-13T08:01:36Z</time>
      </trkpt>
      <trkpt lat="49.33571" lon="0.96272">
        <ele>78</ele>
        <time>2013-10-13T08:01:46Z</time>
      </trkpt>
      <trkpt lat="49.33587" lon="0.96294">
        <ele>85</ele>
        <time>2013-10-13T08:01:58Z</time>
      </trkpt>
      <trkpt lat="49.33594" lon="0.96321">
        <ele>84</ele>
        <time>2013-10-13T08:02:06Z</time>
      </trkpt>
      <trkpt lat="49.33603" lon="0.96348">
        <ele>85</ele>
        <time>2013-10-13T08:02:16Z</time>
      </trkpt>
      <trkpt lat="49.33604" lon="0.96378">
        <ele>85</ele>
        <time>2013-10-13T08:02:28Z</time>
      </trkpt>
      <trkpt lat="49.33604" lon="0.96406">
        <ele>83</ele>
        <time>2013-10-13T08:02:34Z</time>
      </trkpt>
      <trkpt lat="49.33603" lon="0.96442">
        <ele>82</ele>
        <time>2013-10-13T08:02:40Z</time>
      </trkpt>
      <trkpt lat="49.33601" lon="0.96478">
        <ele>81</ele>
        <time>2013-10-13T08:02:46Z</time>
      </trkpt>
      <trkpt lat="49.33597" lon="0.96515">
        <ele>78</ele>
        <time>2013-10-13T08:02:54Z</time>
      </trkpt>
      <trkpt lat="49.33597" lon="0.96562">
        <ele>77</ele>
        <time>2013-10-13T08:03:00Z</time>
      </trkpt>
      <trkpt lat="49.33597" lon="0.96599">
        <ele>75</ele>
        <time>2013-10-13T08:03:04Z</time>
      </trkpt>
      <trkpt lat="49.33593" lon="0.96632">
        <ele>76</ele>
        <time>2013-10-13T08:03:10Z</time>
      </trkpt>
      <trkpt lat="49.33583" lon="0.96655">
        <ele>65</ele>
        <time>2013-10-13T08:03:18Z</time>
      </trkpt>
      <trkpt lat="49.33574" lon="0.96681">
        <ele>63</ele>
        <time>2013-10-13T08:03:24Z</time>
      </trkpt>
      <trkpt lat="49.33567" lon="0.96711">
        <ele>59</ele>
        <time>2013-10-13T08:03:32Z</time>
      </trkpt>
      <trkpt lat="49.33556" lon="0.96736">
        <ele>59</ele>
        <time>2013-10-13T08:03:42Z</time>
      </trkpt>
      <trkpt lat="49.33554" lon="0.96768">
        <ele>59</ele>
        <time>2013-10-13T08:03:54Z</time>
      </trkpt>
      <trkpt lat="49.33558" lon="0.96797">
        <ele>59</ele>
        <time>2013-10-13T08:04:06Z</time>
      </trkpt>
      <trkpt lat="49.33553" lon="0.96831">
        <ele>60</ele>
        <time>2013-10-13T08:04:14Z</time>
      </trkpt>
      <trkpt lat="49.3354" lon="0.96855">
        <ele>58</ele>
        <time>2013-10-13T08:04:38Z</time>
      </trkpt>
      <trkpt lat="49.33534" lon="0.96886">
        <ele>57</ele>
        <time>2013-10-13T08:04:44Z</time>
      </trkpt>
      <trkpt lat="49.33522" lon="0.96912">
        <ele>55</ele>
        <time>2013-10-13T08:04:50Z</time>
      </trkpt>
      <trkpt lat="49.33507" lon="0.96936">
        <ele>54</ele>
        <time>2013-10-13T08:04:56Z</time>
      </trkpt>
      <trkpt lat="49.33501" lon="0.96965">
        <ele>55</ele>
        <time>2013-10-13T08:05:00Z</time>
      </trkpt>
      <trkpt lat="49.33494" lon="0.97005">
        <ele>49</ele>
        <time>2013-10-13T08:05:04Z</time>
      </trkpt>
      <trkpt lat="49.33481" lon="0.97031">
        <ele>49</ele>
        <time>2013-10-13T08:05:08Z</time>
      </trkpt>
      <trkpt lat="49.33465" lon="0.97056">
        <ele>49</ele>
        <time>2013-10-13T08:05:12Z</time>
      </trkpt>
      <trkpt lat="49.33452" lon="0.97079">
        <ele>48</ele>
        <time>2013-10-13T08:05:20Z</time>
      </trkpt>
      <trkpt lat="49.33447" lon="0.97114">
        <ele>50</ele>
        <time>2013-10-13T08:05:26Z</time>
      </trkpt>
      <trkpt lat="49.33434" lon="0.97143">
        <ele>49</ele>
        <time>2013-10-13T08:05:30Z</time>
      </trkpt>
      <trkpt lat="49.3342" lon="0.97163">
        <ele>47</ele>
        <time>2013-10-13T08:05:34Z</time>
      </trkpt>
      <trkpt lat="49.334" lon="0.97182">
        <ele>46</ele>
        <time>2013-10-13T08:05:42Z</time>
      </trkpt>
      <trkpt lat="49.33387" lon="0.97205">
        <ele>46</ele>
        <time>2013-10-13T08:05:50Z</time>
      </trkpt>
      <trkpt lat="49.33373" lon="0.97222">
        <ele>46</ele>
        <time>2013-10-13T08:05:58Z</time>
      </trkpt>
      <trkpt lat="49.33353" lon="0.97238">
        <ele>45</ele>
        <time>2013-10-13T08:06:04Z</time>
      </trkpt>
      <trkpt lat="49.33332" lon="0.97234">
        <ele>44</ele>
        <time>2013-10-13T08:06:10Z</time>
      </trkpt>
      <trkpt lat="49.33313" lon="0.97238">
        <ele>43</ele>
        <time>2013-10-13T08:06:18Z</time>
      </trkpt>
      <trkpt lat="49.3323" lon="0.97363">
        <ele>37</ele>
        <time>2013-10-13T08:07:16Z</time>
      </trkpt>
      <trkpt lat="49.33208" lon="0.97372">
        <ele>37</ele>
        <time>2013-10-13T08:07:22Z</time>
      </trkpt>
      <trkpt lat="49.3319" lon="0.97396">
        <ele>36</ele>
        <time>2013-10-13T08:07:28Z</time>
      </trkpt>
      <trkpt lat="49.33174" lon="0.97421">
        <ele>36</ele>
        <time>2013-10-13T08:07:32Z</time>
      </trkpt>
      <trkpt lat="49.33155" lon="0.97445">
        <ele>35</ele>
        <time>2013-10-13T08:07:40Z</time>
      </trkpt>
      <trkpt lat="49.33138" lon="0.97466">
        <ele>36</ele>
        <time>2013-10-13T08:07:50Z</time>
      </trkpt>
      <trkpt lat="49.33112" lon="0.97476">
        <ele>35</ele>
        <time>2013-10-13T08:07:58Z</time>
      </trkpt>
      <trkpt lat="49.33095" lon="0.9749">
        <ele>36</ele>
        <time>2013-10-13T08:08:02Z</time>
      </trkpt>
      <trkpt lat="49.33071" lon="0.97489">
        <ele>34</ele>
        <time>2013-10-13T08:08:06Z</time>
      </trkpt>
      <trkpt lat="49.33048" lon="0.97469">
        <ele>32</ele>
        <time>2013-10-13T08:08:10Z</time>
      </trkpt>
      <trkpt lat="49.33044" lon="0.97438">
        <ele>31</ele>
        <time>2013-10-13T08:08:16Z</time>
      </trkpt>
      <trkpt lat="49.33063" lon="0.97418">
        <ele>31</ele>
        <time>2013-10-13T08:08:22Z</time>
      </trkpt>
      <trkpt lat="49.33077" lon="0.97395">
        <ele>32</ele>
        <time>2013-10-13T08:08:28Z</time>
      </trkpt>
      <trkpt lat="49.33093" lon="0.97372">
        <ele>34</ele>
        <time>2013-10-13T08:08:36Z</time>
      </trkpt>
      <trkpt lat="49.33114" lon="0.97351">
        <ele>34</ele>
        <time>2013-10-13T08:08:42Z</time>
      </trkpt>
      <trkpt lat="49.33128" lon="0.97328">
        <ele>38</ele>
        <time>2013-10-13T08:08:48Z</time>
      </trkpt>
      <trkpt lat="49.3314" lon="0.97307">
        <ele>38</ele>
        <time>2013-10-13T08:08:52Z</time>
      </trkpt>
      <trkpt lat="49.3316" lon="0.97295">
        <ele>38</ele>
        <time>2013-10-13T08:08:58Z</time>
      </trkpt>
      <trkpt lat="49.3318" lon="0.97276">
        <ele>39</ele>
        <time>2013-10-13T08:09:06Z</time>
      </trkpt>
      <trkpt lat="49.33195" lon="0.97257">
        <ele>39</ele>
        <time>2013-10-13T08:09:12Z</time>
      </trkpt>
      <trkpt lat="49.33209" lon="0.97231">
        <ele>45</ele>
        <time>2013-10-13T08:09:18Z</time>
      </trkpt>
      <trkpt lat="49.3322" lon="0.97206">
        <ele>46</ele>
        <time>2013-10-13T08:09:26Z</time>
      </trkpt>
      <trkpt lat="49.33224" lon="0.97177">
        <ele>47</ele>
        <time>2013-10-13T08:09:38Z</time>
      </trkpt>
      <trkpt lat="49.33207" lon="0.97165">
        <ele>54</ele>
        <time>2013-10-13T08:10:22Z</time>
      </trkpt>
      <trkpt lat="49.33202" lon="0.97137">
        <ele>56</ele>
        <time>2013-10-13T08:10:52Z</time>
      </trkpt>
      <trkpt lat="49.33205" lon="0.97107">
        <ele>57</ele>
        <time>2013-10-13T08:11:12Z</time>
      </trkpt>
      <trkpt lat="49.33209" lon="0.97076">
        <ele>61</ele>
        <time>2013-10-13T08:11:22Z</time>
      </trkpt>
      <trkpt lat="49.33218" lon="0.97049">
        <ele>61</ele>
        <time>2013-10-13T08:11:28Z</time>
      </trkpt>
      <trkpt lat="49.33231" lon="0.97024">
        <ele>61</ele>
        <time>2013-10-13T08:11:36Z</time>
      </trkpt>
      <trkpt lat="49.33219" lon="0.97002">
        <ele>62</ele>
        <time>2013-10-13T08:11:48Z</time>
      </trkpt>
      <trkpt lat="49.33233" lon="0.96976">
        <ele>65</ele>
        <time>2013-10-13T08:12:02Z</time>
      </trkpt>
      <trkpt lat="49.33246" lon="0.96946">
        <ele>65</ele>
        <time>2013-10-13T08:12:10Z</time>
      </trkpt>
      <trkpt lat="49.3325" lon="0.96919">
        <ele>62</ele>
        <time>2013-10-13T08:12:28Z</time>
      </trkpt>
      <trkpt lat="49.33255" lon="0.96885">
        <ele>59</ele>
        <time>2013-10-13T08:12:52Z</time>
      </trkpt>
      <trkpt lat="49.33267" lon="0.96862">
        <ele>59</ele>
        <time>2013-10-13T08:13:12Z</time>
      </trkpt>
      <trkpt lat="49.33275" lon="0.96832">
        <ele>61</ele>
        <time>2013-10-13T08:13:26Z</time>
      </trkpt>
      <trkpt lat="49.33286" lon="0.96805">
        <ele>60</ele>
        <time>2013-10-13T08:13:38Z</time>
      </trkpt>
      <trkpt lat="49.33285" lon="0.96777">
        <ele>60</ele>
        <time>2013-10-13T08:14:04Z</time>
      </trkpt>
      <trkpt lat="49.33282" lon="0.96746">
        <ele>61</ele>
        <time>2013-10-13T08:14:12Z</time>
      </trkpt>
      <trkpt lat="49.33279" lon="0.96717">
        <ele>61</ele>
        <time>2013-10-13T08:14:18Z</time>
      </trkpt>
      <trkpt lat="49.3327" lon="0.9669">
        <ele>62</ele>
        <time>2013-10-13T08:14:22Z</time>
      </trkpt>
      <trkpt lat="49.33264" lon="0.96664">
        <ele>64</ele>
        <time>2013-10-13T08:14:28Z</time>
      </trkpt>
      <trkpt lat="49.33265" lon="0.96634">
        <ele>62</ele>
        <time>2013-10-13T08:14:34Z</time>
      </trkpt>
      <trkpt lat="49.33265" lon="0.96605">
        <ele>62</ele>
        <time>2013-10-13T08:14:42Z</time>
      </trkpt>
      <trkpt lat="49.33247" lon="0.96619">
        <ele>74</ele>
        <time>2013-10-13T08:15:14Z</time>
      </trkpt>
      <trkpt lat="49.33232" lon="0.96641">
        <ele>75</ele>
        <time>2013-10-13T08:15:28Z</time>
      </trkpt>
      <trkpt lat="49.3322" lon="0.96664">
        <ele>76</ele>
        <time>2013-10-13T08:15:36Z</time>
      </trkpt>
      <trkpt lat="49.33203" lon="0.96654">
        <ele>80</ele>
        <time>2013-10-13T08:15:50Z</time>
      </trkpt>
      <trkpt lat="49.33191" lon="0.96626">
        <ele>81</ele>
        <time>2013-10-13T08:15:58Z</time>
      </trkpt>
      <trkpt lat="49.33181" lon="0.966">
        <ele>83</ele>
        <time>2013-10-13T08:16:06Z</time>
      </trkpt>
      <trkpt lat="49.33171" lon="0.96576">
        <ele>84</ele>
        <time>2013-10-13T08:16:12Z</time>
      </trkpt>
      <trkpt lat="49.33161" lon="0.96538">
        <ele>91</ele>
        <time>2013-10-13T08:16:18Z</time>
      </trkpt>
      <trkpt lat="49.33153" lon="0.96504">
        <ele>89</ele>
        <time>2013-10-13T08:16:22Z</time>
      </trkpt>
      <trkpt lat="49.33145" lon="0.96474">
        <ele>85</ele>
        <time>2013-10-13T08:16:26Z</time>
      </trkpt>
      <trkpt lat="49.33135" lon="0.96438">
        <ele>83</ele>
        <time>2013-10-13T08:16:30Z</time>
      </trkpt>
      <trkpt lat="49.33125" lon="0.96403">
        <ele>75</ele>
        <time>2013-10-13T08:16:36Z</time>
      </trkpt>
      <trkpt lat="49.33117" lon="0.96372">
        <ele>73</ele>
        <time>2013-10-13T08:16:40Z</time>
      </trkpt>
      <trkpt lat="49.33105" lon="0.96337">
        <ele>70</ele>
        <time>2013-10-13T08:16:44Z</time>
      </trkpt>
      <trkpt lat="49.33107" lon="0.96303">
        <ele>66</ele>
        <time>2013-10-13T08:16:50Z</time>
      </trkpt>
      <trkpt lat="49.33121" lon="0.96285">
        <ele>65</ele>
        <time>2013-10-13T08:16:58Z</time>
      </trkpt>
      <trkpt lat="49.33133" lon="0.96262">
        <ele>64</ele>
        <time>2013-10-13T08:17:04Z</time>
      </trkpt>
      <trkpt lat="49.33146" lon="0.96235">
        <ele>64</ele>
        <time>2013-10-13T08:17:10Z</time>
      </trkpt>
      <trkpt lat="49.33143" lon="0.96201">
        <ele>65</ele>
        <time>2013-10-13T08:17:18Z</time>
      </trkpt>
      <trkpt lat="49.33138" lon="0.96171">
        <ele>65</ele>
        <time>2013-10-13T08:17:26Z</time>
      </trkpt>
      <trkpt lat="49.33127" lon="0.96142">
        <ele>67</ele>
        <time>2013-10-13T08:17:34Z</time>
      </trkpt>
      <trkpt lat="49.33121" lon="0.96115">
        <ele>68</ele>
        <time>2013-10-13T08:18:04Z</time>
      </trkpt>
      <trkpt lat="49.3312" lon="0.96085">
        <ele>69</ele>
        <time>2013-10-13T08:18:12Z</time>
      </trkpt>
      <trkpt lat="49.33114" lon="0.96045">
        <ele>67</ele>
        <time>2013-10-13T08:18:20Z</time>
      </trkpt>
      <trkpt lat="49.33114" lon="0.96015">
        <ele>66</ele>
        <time>2013-10-13T08:18:24Z</time>
      </trkpt>
      <trkpt lat="49.33119" lon="0.95983">
        <ele>63</ele>
        <time>2013-10-13T08:18:28Z</time>
      </trkpt>
      <trkpt lat="49.33133" lon="0.95947">
        <ele>61</ele>
        <time>2013-10-13T08:18:32Z</time>
      </trkpt>
      <trkpt lat="49.33144" lon="0.95907">
        <ele>58</ele>
        <time>2013-10-13T08:18:36Z</time>
      </trkpt>
      <trkpt lat="49.33153" lon="0.95869">
        <ele>59</ele>
        <time>2013-10-13T08:18:40Z</time>
      </trkpt>
      <trkpt lat="49.3316" lon="0.95839">
        <ele>55</ele>
        <time>2013-10-13T08:18:44Z</time>
      </trkpt>
      <trkpt lat="49.33166" lon="0.95812">
        <ele>59</ele>
        <time>2013-10-13T08:18:48Z</time>
      </trkpt>
      <trkpt lat="49.33174" lon="0.95778">
        <ele>52</ele>
        <time>2013-10-13T08:18:54Z</time>
      </trkpt>
      <trkpt lat="49.33184" lon="0.95746">
        <ele>55</ele>
        <time>2013-10-13T08:19:00Z</time>
      </trkpt>
      <trkpt lat="49.33195" lon="0.95718">
        <ele>55</ele>
        <time>2013-10-13T08:19:06Z</time>
      </trkpt>
      <trkpt lat="49.33209" lon="0.95691">
        <ele>55</ele>
        <time>2013-10-13T08:19:12Z</time>
      </trkpt>
      <trkpt lat="49.33231" lon="0.95661">
        <ele>58</ele>
        <time>2013-10-13T08:19:18Z</time>
      </trkpt>
      <trkpt lat="49.33247" lon="0.95637">
        <ele>59</ele>
        <time>2013-10-13T08:19:22Z</time>
      </trkpt>
      <trkpt lat="49.33268" lon="0.95617">
        <ele>55</ele>
        <time>2013-10-13T08:19:28Z</time>
      </trkpt>
      <trkpt lat="49.33289" lon="0.95608">
        <ele>55</ele>
        <time>2013-10-13T08:19:34Z</time>
      </trkpt>
      <trkpt lat="49.33311" lon="0.95602">
        <ele>55</ele>
        <time>2013-10-13T08:19:40Z</time>
      </trkpt>
      <trkpt lat="49.33316" lon="0.95571">
        <ele>60</ele>
        <time>2013-10-13T08:19:54Z</time>
      </trkpt>
      <trkpt lat="49.33322" lon="0.95543">
        <ele>61</ele>
        <time>2013-10-13T08:20:06Z</time>
      </trkpt>
      <trkpt lat="49.33324" lon="0.95512">
        <ele>62</ele>
        <time>2013-10-13T08:20:18Z</time>
      </trkpt>
      <trkpt lat="49.33323" lon="0.95484">
        <ele>66</ele>
        <time>2013-10-13T08:20:30Z</time>
      </trkpt>
      <trkpt lat="49.33322" lon="0.95454">
        <ele>68</ele>
        <time>2013-10-13T08:20:54Z</time>
      </trkpt>
      <trkpt lat="49.3334" lon="0.95443">
        <ele>67</ele>
        <time>2013-10-13T08:21:16Z</time>
      </trkpt>
      <trkpt lat="49.33354" lon="0.95426">
        <ele>68</ele>
        <time>2013-10-13T08:21:34Z</time>
      </trkpt>
      <trkpt lat="49.33353" lon="0.95397">
        <ele>74</ele>
        <time>2013-10-13T08:22:00Z</time>
      </trkpt>
      <trkpt lat="49.33344" lon="0.95373">
        <ele>76</ele>
        <time>2013-10-13T08:22:34Z</time>
      </trkpt>
      <trkpt lat="49.33332" lon="0.95348">
        <ele>79</ele>
        <time>2013-10-13T08:22:56Z</time>
      </trkpt>
      <trkpt lat="49.33318" lon="0.95325">
        <ele>83</ele>
        <time>2013-10-13T08:23:06Z</time>
      </trkpt>
      <trkpt lat="49.33305" lon="0.95306">
        <ele>83</ele>
        <time>2013-10-13T08:23:18Z</time>
      </trkpt>
      <trkpt lat="49.33291" lon="0.95283">
        <ele>85</ele>
        <time>2013-10-13T08:23:30Z</time>
      </trkpt>
      <trkpt lat="49.33273" lon="0.9527">
        <ele>85</ele>
        <time>2013-10-13T08:23:44Z</time>
      </trkpt>
      <trkpt lat="49.33258" lon="0.95254">
        <ele>88</ele>
        <time>2013-10-13T08:23:58Z</time>
      </trkpt>
      <trkpt lat="49.33239" lon="0.95237">
        <ele>92</ele>
        <time>2013-10-13T08:24:10Z</time>
      </trkpt>
      <trkpt lat="49.33221" lon="0.95225">
        <ele>93</ele>
        <time>2013-10-13T08:24:20Z</time>
      </trkpt>
      <trkpt lat="49.33199" lon="0.95215">
        <ele>94</ele>
        <time>2013-10-13T08:24:30Z</time>
      </trkpt>
      <trkpt lat="49.33179" lon="0.95206">
        <ele>94</ele>
        <time>2013-10-13T08:24:36Z</time>
      </trkpt>
      <trkpt lat="49.33163" lon="0.95189">
        <ele>97</ele>
        <time>2013-10-13T08:24:44Z</time>
      </trkpt>
      <trkpt lat="49.33148" lon="0.95168">
        <ele>98</ele>
        <time>2013-10-13T08:24:52Z</time>
      </trkpt>
      <trkpt lat="49.33141" lon="0.9514">
        <ele>100</ele>
        <time>2013-10-13T08:25:00Z</time>
      </trkpt>
      <trkpt lat="49.33136" lon="0.95112">
        <ele>101</ele>
        <time>2013-10-13T08:25:12Z</time>
      </trkpt>
      <trkpt lat="49.33112" lon="0.95096">
        <ele>100</ele>
        <time>2013-10-13T08:25:18Z</time>
      </trkpt>
      <trkpt lat="49.33092" lon="0.95083">
        <ele>99</ele>
        <time>2013-10-13T08:25:22Z</time>
      </trkpt>
      <trkpt lat="49.33075" lon="0.95066">
        <ele>102</ele>
        <time>2013-10-13T08:25:30Z</time>
      </trkpt>
      <trkpt lat="49.33056" lon="0.95076">
        <ele>103</ele>
        <time>2013-10-13T08:25:40Z</time>
      </trkpt>
      <trkpt lat="49.33036" lon="0.9508">
        <ele>104</ele>
        <time>2013-10-13T08:25:48Z</time>
      </trkpt>
      <trkpt lat="49.33019" lon="0.9507">
        <ele>105</ele>
        <time>2013-10-13T08:26:22Z</time>
      </trkpt>
      <trkpt lat="49.33001" lon="0.95054">
        <ele>106</ele>
        <time>2013-10-13T08:26:32Z</time>
      </trkpt>
      <trkpt lat="49.33007" lon="0.95027">
        <ele>106</ele>
        <time>2013-10-13T08:26:46Z</time>
      </trkpt>
      <trkpt lat="49.33007" lon="0.94996">
        <ele>110</ele>
        <time>2013-10-13T08:26:54Z</time>
      </trkpt>
      <trkpt lat="49.33014" lon="0.94964">
        <ele>110</ele>
        <time>2013-10-13T08:27:04Z</time>
      </trkpt>
      <trkpt lat="49.33012" lon="0.94931">
        <ele>111</ele>
        <time>2013-10-13T08:27:12Z</time>
      </trkpt>
      <trkpt lat="49.33014" lon="0.94902">
        <ele>113</ele>
        <time>2013-10-13T08:27:18Z</time>
      </trkpt>
      <trkpt lat="49.33016" lon="0.94873">
        <ele>112</ele>
        <time>2013-10-13T08:27:24Z</time>
      </trkpt>
      <trkpt lat="49.33017" lon="0.94842">
        <ele>114</ele>
        <time>2013-10-13T08:27:32Z</time>
      </trkpt>
      <trkpt lat="49.33022" lon="0.94802">
        <ele>113</ele>
        <time>2013-10-13T08:27:40Z</time>
      </trkpt>
      <trkpt lat="49.3303" lon="0.94774">
        <ele>113</ele>
        <time>2013-10-13T08:27:44Z</time>
      </trkpt>
      <trkpt lat="49.33041" lon="0.94745">
        <ele>112</ele>
        <time>2013-10-13T08:27:50Z</time>
      </trkpt>
      <trkpt lat="49.33049" lon="0.94712">
        <ele>112</ele>
        <time>2013-10-13T08:27:56Z</time>
      </trkpt>
      <trkpt lat="49.33054" lon="0.94685">
        <ele>112</ele>
        <time>2013-10-13T08:28:00Z</time>
      </trkpt>
      <trkpt lat="49.33059" lon="0.94657">
        <ele>113</ele>
        <time>2013-10-13T08:28:04Z</time>
      </trkpt>
      <trkpt lat="49.33062" lon="0.94629">
        <ele>114</ele>
        <time>2013-10-13T08:28:08Z</time>
      </trkpt>
      <trkpt lat="49.33066" lon="0.94596">
        <ele>114</ele>
        <time>2013-10-13T08:28:14Z</time>
      </trkpt>
      <trkpt lat="49.33069" lon="0.94566">
        <ele>115</ele>
        <time>2013-10-13T08:28:18Z</time>
      </trkpt>
      <trkpt lat="49.33071" lon="0.94531">
        <ele>115</ele>
        <time>2013-10-13T08:28:22Z</time>
      </trkpt>
      <trkpt lat="49.33075" lon="0.94494">
        <ele>113</ele>
        <time>2013-10-13T08:28:26Z</time>
      </trkpt>
      <trkpt lat="49.33081" lon="0.9446">
        <ele>113</ele>
        <time>2013-10-13T08:28:30Z</time>
      </trkpt>
      <trkpt lat="49.33082" lon="0.94423">
        <ele>111</ele>
        <time>2013-10-13T08:28:34Z</time>
      </trkpt>
      <trkpt lat="49.33085" lon="0.94383">
        <ele>105</ele>
        <time>2013-10-13T08:28:38Z</time>
      </trkpt>
      <trkpt lat="49.33091" lon="0.94329">
        <ele>107</ele>
        <time>2013-10-13T08:28:42Z</time>
      </trkpt>
      <trkpt lat="49.33099" lon="0.94281">
        <ele>103</ele>
        <time>2013-10-13T08:28:46Z</time>
      </trkpt>
      <trkpt lat="49.33111" lon="0.94247">
        <ele>102</ele>
        <time>2013-10-13T08:28:50Z</time>
      </trkpt>
      <trkpt lat="49.33127" lon="0.94215">
        <ele>100</ele>
        <time>2013-10-13T08:28:54Z</time>
      </trkpt>
      <trkpt lat="49.33135" lon="0.94178">
        <ele>99</ele>
        <time>2013-10-13T08:28:58Z</time>
      </trkpt>
      <trkpt lat="49.33144" lon="0.94147">
        <ele>103</ele>
        <time>2013-10-13T08:29:04Z</time>
      </trkpt>
      <trkpt lat="49.3315" lon="0.94115">
        <ele>106</ele>
        <time>2013-10-13T08:29:10Z</time>
      </trkpt>
      <trkpt lat="49.33152" lon="0.94079">
        <ele>109</ele>
        <time>2013-10-13T08:29:16Z</time>
      </trkpt>
      <trkpt lat="49.33158" lon="0.94048">
        <ele>111</ele>
        <time>2013-10-13T08:29:24Z</time>
      </trkpt>
      <trkpt lat="49.33164" lon="0.94019">
        <ele>111</ele>
        <time>2013-10-13T08:29:28Z</time>
      </trkpt>
      <trkpt lat="49.3317" lon="0.93977">
        <ele>101</ele>
        <time>2013-10-13T08:29:34Z</time>
      </trkpt>
      <trkpt lat="49.33175" lon="0.93945">
        <ele>98</ele>
        <time>2013-10-13T08:29:40Z</time>
      </trkpt>
      <trkpt lat="49.3318" lon="0.93919">
        <ele>99</ele>
        <time>2013-10-13T08:29:46Z</time>
      </trkpt>
      <trkpt lat="49.33189" lon="0.93886">
        <ele>93</ele>
        <time>2013-10-13T08:29:52Z</time>
      </trkpt>
      <trkpt lat="49.33197" lon="0.9386">
        <ele>92</ele>
        <time>2013-10-13T08:29:56Z</time>
      </trkpt>
      <trkpt lat="49.33204" lon="0.93831">
        <ele>87</ele>
        <time>2013-10-13T08:30:02Z</time>
      </trkpt>
      <trkpt lat="49.332" lon="0.93792">
        <ele>86</ele>
        <time>2013-10-13T08:30:08Z</time>
      </trkpt>
      <trkpt lat="49.33203" lon="0.93764">
        <ele>86</ele>
        <time>2013-10-13T08:30:12Z</time>
      </trkpt>
      <trkpt lat="49.33206" lon="0.93729">
        <ele>79</ele>
        <time>2013-10-13T08:30:16Z</time>
      </trkpt>
      <trkpt lat="49.33217" lon="0.93686">
        <ele>74</ele>
        <time>2013-10-13T08:30:20Z</time>
      </trkpt>
      <trkpt lat="49.33221" lon="0.93652">
        <ele>67</ele>
        <time>2013-10-13T08:30:24Z</time>
      </trkpt>
      <trkpt lat="49.33229" lon="0.93617">
        <ele>66</ele>
        <time>2013-10-13T08:30:32Z</time>
      </trkpt>
      <trkpt lat="49.33225" lon="0.93584">
        <ele>64</ele>
        <time>2013-10-13T08:30:38Z</time>
      </trkpt>
      <trkpt lat="49.33235" lon="0.93555">
        <ele>64</ele>
        <time>2013-10-13T08:30:44Z</time>
      </trkpt>
      <trkpt lat="49.33236" lon="0.9352">
        <ele>65</ele>
        <time>2013-10-13T08:30:50Z</time>
      </trkpt>
      <trkpt lat="49.33241" lon="0.93492">
        <ele>66</ele>
        <time>2013-10-13T08:30:56Z</time>
      </trkpt>
      <trkpt lat="49.33246" lon="0.9346">
        <ele>70</ele>
        <time>2013-10-13T08:31:02Z</time>
      </trkpt>
      <trkpt lat="49.33252" lon="0.93425">
        <ele>66</ele>
        <time>2013-10-13T08:31:10Z</time>
      </trkpt>
      <trkpt lat="49.33255" lon="0.93393">
        <ele>67</ele>
        <time>2013-10-13T08:31:18Z</time>
      </trkpt>
      <trkpt lat="49.33259" lon="0.93364">
        <ele>69</ele>
        <time>2013-10-13T08:31:28Z</time>
      </trkpt>
      <trkpt lat="49.33267" lon="0.93336">
        <ele>72</ele>
        <time>2013-10-13T08:31:36Z</time>
      </trkpt>
      <trkpt lat="49.33274" lon="0.93308">
        <ele>81</ele>
        <time>2013-10-13T08:31:52Z</time>
      </trkpt>
      <trkpt lat="49.33289" lon="0.93289">
        <ele>82</ele>
        <time>2013-10-13T08:32:04Z</time>
      </trkpt>
      <trkpt lat="49.33307" lon="0.93276">
        <ele>81</ele>
        <time>2013-10-13T08:32:16Z</time>
      </trkpt>
      <trkpt lat="49.33327" lon="0.9329">
        <ele>78</ele>
        <time>2013-10-13T08:32:30Z</time>
      </trkpt>
      <trkpt lat="49.33349" lon="0.93288">
        <ele>69</ele>
        <time>2013-10-13T08:32:40Z</time>
      </trkpt>
      <trkpt lat="49.3337" lon="0.93274">
        <ele>69</ele>
        <time>2013-10-13T08:32:46Z</time>
      </trkpt>
      <trkpt lat="49.33391" lon="0.93266">
        <ele>69</ele>
        <time>2013-10-13T08:32:52Z</time>
      </trkpt>
      <trkpt lat="49.3341" lon="0.93255">
        <ele>71</ele>
        <time>2013-10-13T08:32:58Z</time>
      </trkpt>
      <trkpt lat="49.3343" lon="0.93235">
        <ele>74</ele>
        <time>2013-10-13T08:33:04Z</time>
      </trkpt>
      <trkpt lat="49.33447" lon="0.93214">
        <ele>74</ele>
        <time>2013-10-13T08:33:12Z</time>
      </trkpt>
      <trkpt lat="49.33466" lon="0.93201">
        <ele>74</ele>
        <time>2013-10-13T08:33:20Z</time>
      </trkpt>
      <trkpt lat="49.33484" lon="0.93186">
        <ele>74</ele>
        <time>2013-10-13T08:33:28Z</time>
      </trkpt>
      <trkpt lat="49.33492" lon="0.9316">
        <ele>77</ele>
        <time>2013-10-13T08:33:34Z</time>
      </trkpt>
      <trkpt lat="49.33489" lon="0.93125">
        <ele>81</ele>
        <time>2013-10-13T08:33:40Z</time>
      </trkpt>
      <trkpt lat="49.33486" lon="0.9309">
        <ele>81</ele>
        <time>2013-10-13T08:33:44Z</time>
      </trkpt>
      <trkpt lat="49.33481" lon="0.93056">
        <ele>82</ele>
        <time>2013-10-13T08:33:48Z</time>
      </trkpt>
      <trkpt lat="49.33477" lon="0.93026">
        <ele>81</ele>
        <time>2013-10-13T08:33:52Z</time>
      </trkpt>
      <trkpt lat="49.33477" lon="0.92994">
        <ele>76</ele>
        <time>2013-10-13T08:33:56Z</time>
      </trkpt>
      <trkpt lat="49.33474" lon="0.92953">
        <ele>76</ele>
        <time>2013-10-13T08:34:00Z</time>
      </trkpt>
      <trkpt lat="49.3347" lon="0.92906">
        <ele>71</ele>
        <time>2013-10-13T08:34:04Z</time>
      </trkpt>
      <trkpt lat="49.33467" lon="0.92853">
        <ele>71</ele>
        <time>2013-10-13T08:34:08Z</time>
      </trkpt>
      <trkpt lat="49.33464" lon="0.92812">
        <ele>69</ele>
        <time>2013-10-13T08:34:12Z</time>
      </trkpt>
      <trkpt lat="49.33453" lon="0.92785">
        <ele>69</ele>
        <time>2013-10-13T08:34:16Z</time>
      </trkpt>
      <trkpt lat="49.33432" lon="0.9276">
        <ele>71</ele>
        <time>2013-10-13T08:34:20Z</time>
      </trkpt>
      <trkpt lat="49.33415" lon="0.92732">
        <ele>74</ele>
        <time>2013-10-13T08:34:24Z</time>
      </trkpt>
      <trkpt lat="49.33404" lon="0.92706">
        <ele>74</ele>
        <time>2013-10-13T08:34:30Z</time>
      </trkpt>
      <trkpt lat="49.33384" lon="0.92681">
        <ele>74</ele>
        <time>2013-10-13T08:34:36Z</time>
      </trkpt>
      <trkpt lat="49.33368" lon="0.92669">
        <ele>75</ele>
        <time>2013-10-13T08:34:42Z</time>
      </trkpt>
      <trkpt lat="49.3335" lon="0.92656">
        <ele>73</ele>
        <time>2013-10-13T08:34:58Z</time>
      </trkpt>
      <trkpt lat="49.33343" lon="0.92628">
        <ele>70</ele>
        <time>2013-10-13T08:35:08Z</time>
      </trkpt>
      <trkpt lat="49.33326" lon="0.92592">
        <ele>71</ele>
        <time>2013-10-13T08:35:14Z</time>
      </trkpt>
      <trkpt lat="49.33318" lon="0.92565">
        <ele>67</ele>
        <time>2013-10-13T08:35:22Z</time>
      </trkpt>
      <trkpt lat="49.33302" lon="0.92539">
        <ele>66</ele>
        <time>2013-10-13T08:35:28Z</time>
      </trkpt>
      <trkpt lat="49.33286" lon="0.92521">
        <ele>66</ele>
        <time>2013-10-13T08:35:58Z</time>
      </trkpt>
      <trkpt lat="49.3327" lon="0.92507">
        <ele>66</ele>
        <time>2013-10-13T08:36:06Z</time>
      </trkpt>
      <trkpt lat="49.3325" lon="0.9251">
        <ele>67</ele>
        <time>2013-10-13T08:36:16Z</time>
      </trkpt>
      <trkpt lat="49.33231" lon="0.92505">
        <ele>67</ele>
        <time>2013-10-13T08:36:26Z</time>
      </trkpt>
      <trkpt lat="49.33215" lon="0.92488">
        <ele>67</ele>
        <time>2013-10-13T08:36:50Z</time>
      </trkpt>
      <trkpt lat="49.33199" lon="0.92476">
        <ele>67</ele>
        <time>2013-10-13T08:37:10Z</time>
      </trkpt>
      <trkpt lat="49.33181" lon="0.92464">
        <ele>67</ele>
        <time>2013-10-13T08:37:28Z</time>
      </trkpt>
      <trkpt lat="49.33163" lon="0.92455">
        <ele>73</ele>
        <time>2013-10-13T08:37:48Z</time>
      </trkpt>
      <trkpt lat="49.33144" lon="0.92446">
        <ele>74</ele>
        <time>2013-10-13T08:38:08Z</time>
      </trkpt>
      <trkpt lat="49.33129" lon="0.92429">
        <ele>76</ele>
        <time>2013-10-13T08:38:26Z</time>
      </trkpt>
      <trkpt lat="49.33115" lon="0.92408">
        <ele>79</ele>
        <time>2013-10-13T08:38:46Z</time>
      </trkpt>
      <trkpt lat="49.33102" lon="0.92387">
        <ele>80</ele>
        <time>2013-10-13T08:39:08Z</time>
      </trkpt>
      <trkpt lat="49.33087" lon="0.92372">
        <ele>81</ele>
        <time>2013-10-13T08:39:28Z</time>
      </trkpt>
      <trkpt lat="49.33067" lon="0.92358">
        <ele>89</ele>
        <time>2013-10-13T08:39:40Z</time>
      </trkpt>
      <trkpt lat="49.33049" lon="0.92352">
        <ele>90</ele>
        <time>2013-10-13T08:39:52Z</time>
      </trkpt>
      <trkpt lat="49.33029" lon="0.9234">
        <ele>92</ele>
        <time>2013-10-13T08:40:02Z</time>
      </trkpt>
      <trkpt lat="49.33008" lon="0.92333">
        <ele>95</ele>
        <time>2013-10-13T08:40:12Z</time>
      </trkpt>
      <trkpt lat="49.32986" lon="0.92329">
        <ele>97</ele>
        <time>2013-10-13T08:40:22Z</time>
      </trkpt>
      <trkpt lat="49.32964" lon="0.92329">
        <ele>96</ele>
        <time>2013-10-13T08:40:30Z</time>
      </trkpt>
      <trkpt lat="49.32941" lon="0.92313">
        <ele>96</ele>
        <time>2013-10-13T08:40:36Z</time>
      </trkpt>
      <trkpt lat="49.32942" lon="0.92279">
        <ele>97</ele>
        <time>2013-10-13T08:40:44Z</time>
      </trkpt>
      <trkpt lat="49.32947" lon="0.92246">
        <ele>101</ele>
        <time>2013-10-13T08:40:54Z</time>
      </trkpt>
      <trkpt lat="49.32948" lon="0.92216">
        <ele>101</ele>
        <time>2013-10-13T08:41:02Z</time>
      </trkpt>
      <trkpt lat="49.32952" lon="0.92183">
        <ele>102</ele>
        <time>2013-10-13T08:41:10Z</time>
      </trkpt>
      <trkpt lat="49.32956" lon="0.92154">
        <ele>105</ele>
        <time>2013-10-13T08:41:16Z</time>
      </trkpt>
      <trkpt lat="49.32957" lon="0.92119">
        <ele>106</ele>
        <time>2013-10-13T08:41:24Z</time>
      </trkpt>
      <trkpt lat="49.32963" lon="0.92086">
        <ele>106</ele>
        <time>2013-10-13T08:41:30Z</time>
      </trkpt>
      <trkpt lat="49.32966" lon="0.92054">
        <ele>108</ele>
        <time>2013-10-13T08:41:38Z</time>
      </trkpt>
      <trkpt lat="49.32966" lon="0.92017">
        <ele>109</ele>
        <time>2013-10-13T08:41:44Z</time>
      </trkpt>
      <trkpt lat="49.32971" lon="0.91988">
        <ele>111</ele>
        <time>2013-10-13T08:41:50Z</time>
      </trkpt>
      <trkpt lat="49.32978" lon="0.91948">
        <ele>111</ele>
        <time>2013-10-13T08:41:56Z</time>
      </trkpt>
      <trkpt lat="49.32983" lon="0.9191">
        <ele>113</ele>
        <time>2013-10-13T08:42:02Z</time>
      </trkpt>
      <trkpt lat="49.32989" lon="0.91876">
        <ele>113</ele>
        <time>2013-10-13T08:42:06Z</time>
      </trkpt>
      <trkpt lat="49.32994" lon="0.9185">
        <ele>112</ele>
        <time>2013-10-13T08:42:10Z</time>
      </trkpt>
      <trkpt lat="49.33" lon="0.91821">
        <ele>112</ele>
        <time>2013-10-13T08:42:14Z</time>
      </trkpt>
      <trkpt lat="49.33006" lon="0.91788">
        <ele>108</ele>
        <time>2013-10-13T08:42:18Z</time>
      </trkpt>
      <trkpt lat="49.33012" lon="0.91759">
        <ele>109</ele>
        <time>2013-10-13T08:42:22Z</time>
      </trkpt>
      <trkpt lat="49.33022" lon="0.91725">
        <ele>107</ele>
        <time>2013-10-13T08:42:26Z</time>
      </trkpt>
      <trkpt lat="49.33034" lon="0.917">
        <ele>106</ele>
        <time>2013-10-13T08:42:32Z</time>
      </trkpt>
      <trkpt lat="49.33051" lon="0.91674">
        <ele>105</ele>
        <time>2013-10-13T08:42:38Z</time>
      </trkpt>
      <trkpt lat="49.33059" lon="0.91648">
        <ele>104</ele>
        <time>2013-10-13T08:42:52Z</time>
      </trkpt>
      <trkpt lat="49.33069" lon="0.91619">
        <ele>103</ele>
        <time>2013-10-13T08:43:12Z</time>
      </trkpt>
      <trkpt lat="49.33093" lon="0.91628">
        <ele>99</ele>
        <time>2013-10-13T08:43:24Z</time>
      </trkpt>
      <trkpt lat="49.33115" lon="0.9164">
        <ele>98</ele>
        <time>2013-10-13T08:43:30Z</time>
      </trkpt>
      <trkpt lat="49.33136" lon="0.91654">
        <ele>97</ele>
        <time>2013-10-13T08:43:38Z</time>
      </trkpt>
      <trkpt lat="49.33151" lon="0.91678">
        <ele>96</ele>
        <time>2013-10-13T08:43:44Z</time>
      </trkpt>
      <trkpt lat="49.33161" lon="0.91705">
        <ele>97</ele>
        <time>2013-10-13T08:43:50Z</time>
      </trkpt>
      <trkpt lat="49.33166" lon="0.9174">
        <ele>95</ele>
        <time>2013-10-13T08:43:56Z</time>
      </trkpt>
      <trkpt lat="49.33164" lon="0.91769">
        <ele>96</ele>
        <time>2013-10-13T08:44:02Z</time>
      </trkpt>
      <trkpt lat="49.33164" lon="0.918">
        <ele>97</ele>
        <time>2013-10-13T08:44:06Z</time>
      </trkpt>
      <trkpt lat="49.33172" lon="0.9183">
        <ele>93</ele>
        <time>2013-10-13T08:44:10Z</time>
      </trkpt>
      <trkpt lat="49.33183" lon="0.9186">
        <ele>89</ele>
        <time>2013-10-13T08:44:14Z</time>
      </trkpt>
      <trkpt lat="49.33196" lon="0.91887">
        <ele>88</ele>
        <time>2013-10-13T08:44:18Z</time>
      </trkpt>
      <trkpt lat="49.33205" lon="0.91921">
        <ele>84</ele>
        <time>2013-10-13T08:44:22Z</time>
      </trkpt>
      <trkpt lat="49.33215" lon="0.9195">
        <ele>83</ele>
        <time>2013-10-13T08:44:26Z</time>
      </trkpt>
      <trkpt lat="49.33231" lon="0.91976">
        <ele>81</ele>
        <time>2013-10-13T08:44:32Z</time>
      </trkpt>
      <trkpt lat="49.33251" lon="0.91991">
        <ele>78</ele>
        <time>2013-10-13T08:44:38Z</time>
      </trkpt>
      <trkpt lat="49.33272" lon="0.92008">
        <ele>74</ele>
        <time>2013-10-13T08:44:44Z</time>
      </trkpt>
      <trkpt lat="49.33288" lon="0.92029">
        <ele>72</ele>
        <time>2013-10-13T08:44:48Z</time>
      </trkpt>
      <trkpt lat="49.3331" lon="0.9205">
        <ele>70</ele>
        <time>2013-10-13T08:44:54Z</time>
      </trkpt>
      <trkpt lat="49.33329" lon="0.92071">
        <ele>68</ele>
        <time>2013-10-13T08:44:58Z</time>
      </trkpt>
      <trkpt lat="49.33355" lon="0.92075">
        <ele>67</ele>
        <time>2013-10-13T08:45:04Z</time>
      </trkpt>
      <trkpt lat="49.33373" lon="0.92079">
        <ele>66</ele>
        <time>2013-10-13T08:45:12Z</time>
      </trkpt>
      <trkpt lat="49.33369" lon="0.92051">
        <ele>67</ele>
        <time>2013-10-13T08:45:26Z</time>
      </trkpt>
      <trkpt lat="49.33366" lon="0.92018">
        <ele>68</ele>
        <time>2013-10-13T08:45:36Z</time>
      </trkpt>
      <trkpt lat="49.33364" lon="0.91987">
        <ele>70</ele>
        <time>2013-10-13T08:45:42Z</time>
      </trkpt>
      <trkpt lat="49.33364" lon="0.91952">
        <ele>69</ele>
        <time>2013-10-13T08:45:48Z</time>
      </trkpt>
      <trkpt lat="49.33381" lon="0.91928">
        <ele>68</ele>
        <time>2013-10-13T08:45:54Z</time>
      </trkpt>
      <trkpt lat="49.334" lon="0.91909">
        <ele>65</ele>
        <time>2013-10-13T08:45:58Z</time>
      </trkpt>
      <trkpt lat="49.33417" lon="0.91887">
        <ele>62</ele>
        <time>2013-10-13T08:46:10Z</time>
      </trkpt>
      <trkpt lat="49.33412" lon="0.91858">
        <ele>65</ele>
        <time>2013-10-13T08:46:16Z</time>
      </trkpt>
      <trkpt lat="49.33405" lon="0.91832">
        <ele>63</ele>
        <time>2013-10-13T08:46:20Z</time>
      </trkpt>
      <trkpt lat="49.334" lon="0.91802">
        <ele>65</ele>
        <time>2013-10-13T08:46:24Z</time>
      </trkpt>
      <trkpt lat="49.33403" lon="0.91769">
        <ele>65</ele>
        <time>2013-10-13T08:46:28Z</time>
      </trkpt>
      <trkpt lat="49.33408" lon="0.91735">
        <ele>65</ele>
        <time>2013-10-13T08:46:32Z</time>
      </trkpt>
      <trkpt lat="49.33412" lon="0.91704">
        <ele>67</ele>
        <time>2013-10-13T08:46:36Z</time>
      </trkpt>
      <trkpt lat="49.33417" lon="0.91668">
        <ele>63</ele>
        <time>2013-10-13T08:46:42Z</time>
      </trkpt>
      <trkpt lat="49.33396" lon="0.91657">
        <ele>70</ele>
        <time>2013-10-13T08:46:48Z</time>
      </trkpt>
      <trkpt lat="49.33385" lon="0.91684">
        <ele>69</ele>
        <time>2013-10-13T08:46:56Z</time>
      </trkpt>
      <trkpt lat="49.33384" lon="0.91718">
        <ele>69</ele>
        <time>2013-10-13T08:47:02Z</time>
      </trkpt>
      <trkpt lat="49.33381" lon="0.91747">
        <ele>69</ele>
        <time>2013-10-13T08:47:06Z</time>
      </trkpt>
      <trkpt lat="49.33377" lon="0.91775">
        <ele>67</ele>
        <time>2013-10-13T08:47:12Z</time>
      </trkpt>
      <trkpt lat="49.33362" lon="0.91806">
        <ele>68</ele>
        <time>2013-10-13T08:47:20Z</time>
      </trkpt>
      <trkpt lat="49.3337" lon="0.91836">
        <ele>67</ele>
        <time>2013-10-13T08:47:26Z</time>
      </trkpt>
      <trkpt lat="49.33393" lon="0.91852">
        <ele>65</ele>
        <time>2013-10-13T08:47:32Z</time>
      </trkpt>
      <trkpt lat="49.33411" lon="0.91861">
        <ele>65</ele>
        <time>2013-10-13T08:47:36Z</time>
      </trkpt>
      <trkpt lat="49.33435" lon="0.91869">
        <ele>62</ele>
        <time>2013-10-13T08:47:42Z</time>
      </trkpt>
      <trkpt lat="49.33453" lon="0.91878">
        <ele>63</ele>
        <time>2013-10-13T08:47:46Z</time>
      </trkpt>
      <trkpt lat="49.33477" lon="0.91893">
        <ele>63</ele>
        <time>2013-10-13T08:47:52Z</time>
      </trkpt>
      <trkpt lat="49.33497" lon="0.91904">
        <ele>64</ele>
        <time>2013-10-13T08:47:56Z</time>
      </trkpt>
      <trkpt lat="49.33515" lon="0.91914">
        <ele>69</ele>
        <time>2013-10-13T08:48:00Z</time>
      </trkpt>
      <trkpt lat="49.33527" lon="0.9189">
        <ele>72</ele>
        <time>2013-10-13T08:48:08Z</time>
      </trkpt>
      <trkpt lat="49.33529" lon="0.91863">
        <ele>73</ele>
        <time>2013-10-13T08:48:30Z</time>
      </trkpt>
      <trkpt lat="49.33534" lon="0.91836">
        <ele>74</ele>
        <time>2013-10-13T08:51:56Z</time>
      </trkpt>
      <trkpt lat="49.3354" lon="0.91805">
        <ele>77</ele>
        <time>2013-10-13T08:52:02Z</time>
      </trkpt>
      <trkpt lat="49.33549" lon="0.91777">
        <ele>78</ele>
        <time>2013-10-13T08:52:10Z</time>
      </trkpt>
      <trkpt lat="49.33557" lon="0.91744">
        <ele>79</ele>
        <time>2013-10-13T08:52:18Z</time>
      </trkpt>
      <trkpt lat="49.33564" lon="0.91711">
        <ele>78</ele>
        <time>2013-10-13T08:52:26Z</time>
      </trkpt>
      <trkpt lat="49.33569" lon="0.91682">
        <ele>80</ele>
        <time>2013-10-13T08:52:34Z</time>
      </trkpt>
      <trkpt lat="49.33571" lon="0.91652">
        <ele>79</ele>
        <time>2013-10-13T08:52:44Z</time>
      </trkpt>
      <trkpt lat="49.33575" lon="0.91621">
        <ele>76</ele>
        <time>2013-10-13T08:52:52Z</time>
      </trkpt>
      <trkpt lat="49.33582" lon="0.91592">
        <ele>78</ele>
        <time>2013-10-13T08:53:00Z</time>
      </trkpt>
      <trkpt lat="49.33595" lon="0.91563">
        <ele>84</ele>
        <time>2013-10-13T08:53:10Z</time>
      </trkpt>
      <trkpt lat="49.3361" lon="0.91539">
        <ele>85</ele>
        <time>2013-10-13T08:53:16Z</time>
      </trkpt>
      <trkpt lat="49.33627" lon="0.91521">
        <ele>86</ele>
        <time>2013-10-13T08:53:24Z</time>
      </trkpt>
      <trkpt lat="49.33643" lon="0.91504">
        <ele>88</ele>
        <time>2013-10-13T08:53:30Z</time>
      </trkpt>
      <trkpt lat="49.33666" lon="0.91492">
        <ele>87</ele>
        <time>2013-10-13T08:53:36Z</time>
      </trkpt>
      <trkpt lat="49.33686" lon="0.91478">
        <ele>91</ele>
        <time>2013-10-13T08:53:44Z</time>
      </trkpt>
      <trkpt lat="49.33707" lon="0.91471">
        <ele>93</ele>
        <time>2013-10-13T08:53:52Z</time>
      </trkpt>
      <trkpt lat="49.33728" lon="0.91457">
        <ele>93</ele>
        <time>2013-10-13T08:54:00Z</time>
      </trkpt>
      <trkpt lat="49.33745" lon="0.91445">
        <ele>92</ele>
        <time>2013-10-13T08:54:08Z</time>
      </trkpt>
      <trkpt lat="49.33763" lon="0.91429">
        <ele>99</ele>
        <time>2013-10-13T08:54:16Z</time>
      </trkpt>
      <trkpt lat="49.33781" lon="0.91411">
        <ele>93</ele>
        <time>2013-10-13T08:54:22Z</time>
      </trkpt>
      <trkpt lat="49.33802" lon="0.91395">
        <ele>96</ele>
        <time>2013-10-13T08:54:32Z</time>
      </trkpt>
      <trkpt lat="49.33821" lon="0.91375">
        <ele>96</ele>
        <time>2013-10-13T08:54:42Z</time>
      </trkpt>
      <trkpt lat="49.33838" lon="0.9136">
        <ele>106</ele>
        <time>2013-10-13T08:54:50Z</time>
      </trkpt>
      <trkpt lat="49.3385" lon="0.91338">
        <ele>103</ele>
        <time>2013-10-13T08:54:56Z</time>
      </trkpt>
      <trkpt lat="49.33867" lon="0.91319">
        <ele>100</ele>
        <time>2013-10-13T08:55:04Z</time>
      </trkpt>
      <trkpt lat="49.33881" lon="0.91298">
        <ele>101</ele>
        <time>2013-10-13T08:55:12Z</time>
      </trkpt>
      <trkpt lat="49.33899" lon="0.91278">
        <ele>103</ele>
        <time>2013-10-13T08:55:20Z</time>
      </trkpt>
      <trkpt lat="49.33909" lon="0.91252">
        <ele>106</ele>
        <time>2013-10-13T08:55:26Z</time>
      </trkpt>
      <trkpt lat="49.33918" lon="0.91224">
        <ele>109</ele>
        <time>2013-10-13T08:55:34Z</time>
      </trkpt>
      <trkpt lat="49.33929" lon="0.91194">
        <ele>107</ele>
        <time>2013-10-13T08:55:42Z</time>
      </trkpt>
      <trkpt lat="49.3394" lon="0.91168">
        <ele>107</ele>
        <time>2013-10-13T08:55:50Z</time>
      </trkpt>
      <trkpt lat="49.33953" lon="0.91142">
        <ele>107</ele>
        <time>2013-10-13T08:55:58Z</time>
      </trkpt>
      <trkpt lat="49.33959" lon="0.91115">
        <ele>107</ele>
        <time>2013-10-13T08:56:06Z</time>
      </trkpt>
      <trkpt lat="49.33963" lon="0.91088">
        <ele>108</ele>
        <time>2013-10-13T08:56:12Z</time>
      </trkpt>
      <trkpt lat="49.33972" lon="0.91062">
        <ele>109</ele>
        <time>2013-10-13T08:56:18Z</time>
      </trkpt>
      <trkpt lat="49.33983" lon="0.91037">
        <ele>110</ele>
        <time>2013-10-13T08:56:26Z</time>
      </trkpt>
      <trkpt lat="49.3399" lon="0.91007">
        <ele>114</ele>
        <time>2013-10-13T08:56:34Z</time>
      </trkpt>
      <trkpt lat="49.33991" lon="0.90968">
        <ele>113</ele>
        <time>2013-10-13T08:56:40Z</time>
      </trkpt>
      <trkpt lat="49.33985" lon="0.90938">
        <ele>113</ele>
        <time>2013-10-13T08:56:48Z</time>
      </trkpt>
      <trkpt lat="49.33973" lon="0.90905">
        <ele>115</ele>
        <time>2013-10-13T08:56:56Z</time>
      </trkpt>
      <trkpt lat="49.3397" lon="0.90876">
        <ele>116</ele>
        <time>2013-10-13T08:57:00Z</time>
      </trkpt>
      <trkpt lat="49.33965" lon="0.90849">
        <ele>117</ele>
        <time>2013-10-13T08:57:06Z</time>
      </trkpt>
      <trkpt lat="49.33967" lon="0.90819">
        <ele>122</ele>
        <time>2013-10-13T08:57:10Z</time>
      </trkpt>
      <trkpt lat="49.33969" lon="0.90788">
        <ele>123</ele>
        <time>2013-10-13T08:57:16Z</time>
      </trkpt>
      <trkpt lat="49.33975" lon="0.90754">
        <ele>126</ele>
        <time>2013-10-13T08:57:22Z</time>
      </trkpt>
      <trkpt lat="49.33978" lon="0.90725">
        <ele>128</ele>
        <time>2013-10-13T08:57:28Z</time>
      </trkpt>
      <trkpt lat="49.33978" lon="0.90689">
        <ele>129</ele>
        <time>2013-10-13T08:57:36Z</time>
      </trkpt>
      <trkpt lat="49.33976" lon="0.90661">
        <ele>132</ele>
        <time>2013-10-13T08:57:42Z</time>
      </trkpt>
      <trkpt lat="49.33973" lon="0.90632">
        <ele>132</ele>
        <time>2013-10-13T08:57:50Z</time>
      </trkpt>
      <trkpt lat="49.33971" lon="0.90602">
        <ele>133</ele>
        <time>2013-10-13T08:57:56Z</time>
      </trkpt>
      <trkpt lat="49.33979" lon="0.90564">
        <ele>135</ele>
        <time>2013-10-13T08:58:00Z</time>
      </trkpt>
      <trkpt lat="49.33986" lon="0.90526">
        <ele>135</ele>
        <time>2013-10-13T08:58:04Z</time>
      </trkpt>
      <trkpt lat="49.33992" lon="0.905">
        <ele>137</ele>
        <time>2013-10-13T08:58:08Z</time>
      </trkpt>
      <trkpt lat="49.34009" lon="0.90468">
        <ele>134</ele>
        <time>2013-10-13T08:58:12Z</time>
      </trkpt>
      <trkpt lat="49.34026" lon="0.90442">
        <ele>133</ele>
        <time>2013-10-13T08:58:16Z</time>
      </trkpt>
      <trkpt lat="49.3404" lon="0.90411">
        <ele>131</ele>
        <time>2013-10-13T08:58:24Z</time>
      </trkpt>
      <trkpt lat="49.34049" lon="0.90374">
        <ele>131</ele>
        <time>2013-10-13T08:58:30Z</time>
      </trkpt>
      <trkpt lat="49.34061" lon="0.90348">
        <ele>132</ele>
        <time>2013-10-13T08:58:34Z</time>
      </trkpt>
      <trkpt lat="49.34075" lon="0.90328">
        <ele>134</ele>
        <time>2013-10-13T08:58:40Z</time>
      </trkpt>
      <trkpt lat="49.34091" lon="0.90304">
        <ele>137</ele>
        <time>2013-10-13T08:58:46Z</time>
      </trkpt>
      <trkpt lat="49.34113" lon="0.9028">
        <ele>138</ele>
        <time>2013-10-13T08:58:52Z</time>
      </trkpt>
      <trkpt lat="49.34131" lon="0.90259">
        <ele>138</ele>
        <time>2013-10-13T08:58:56Z</time>
      </trkpt>
      <trkpt lat="49.34148" lon="0.90244">
        <ele>138</ele>
        <time>2013-10-13T08:59:00Z</time>
      </trkpt>
      <trkpt lat="49.34168" lon="0.90222">
        <ele>138</ele>
        <time>2013-10-13T08:59:06Z</time>
      </trkpt>
      <trkpt lat="49.34184" lon="0.90196">
        <ele>137</ele>
        <time>2013-10-13T08:59:12Z</time>
      </trkpt>
      <trkpt lat="49.34202" lon="0.90182">
        <ele>137</ele>
        <time>2013-10-13T08:59:16Z</time>
      </trkpt>
      <trkpt lat="49.34228" lon="0.90169">
        <ele>136</ele>
        <time>2013-10-13T08:59:20Z</time>
      </trkpt>
      <trkpt lat="49.34252" lon="0.90161">
        <ele>134</ele>
        <time>2013-10-13T08:59:26Z</time>
      </trkpt>
      <trkpt lat="49.34272" lon="0.90154">
        <ele>133</ele>
        <time>2013-10-13T08:59:30Z</time>
      </trkpt>
      <trkpt lat="49.34292" lon="0.90141">
        <ele>133</ele>
        <time>2013-10-13T08:59:36Z</time>
      </trkpt>
      <trkpt lat="49.34311" lon="0.90137">
        <ele>133</ele>
        <time>2013-10-13T08:59:40Z</time>
      </trkpt>
      <trkpt lat="49.3433" lon="0.90131">
        <ele>132</ele>
        <time>2013-10-13T08:59:44Z</time>
      </trkpt>
      <trkpt lat="49.34358" lon="0.90125">
        <ele>130</ele>
        <time>2013-10-13T08:59:50Z</time>
      </trkpt>
      <trkpt lat="49.34386" lon="0.90116">
        <ele>129</ele>
        <time>2013-10-13T08:59:54Z</time>
      </trkpt>
      <trkpt lat="49.34406" lon="0.90121">
        <ele>129</ele>
        <time>2013-10-13T08:59:58Z</time>
      </trkpt>
      <trkpt lat="49.34427" lon="0.90125">
        <ele>127</ele>
        <time>2013-10-13T09:00:02Z</time>
      </trkpt>
      <trkpt lat="49.34449" lon="0.90127">
        <ele>127</ele>
        <time>2013-10-13T09:00:06Z</time>
      </trkpt>
      <trkpt lat="49.34469" lon="0.90125">
        <ele>126</ele>
        <time>2013-10-13T09:00:10Z</time>
      </trkpt>
      <trkpt lat="49.34491" lon="0.90124">
        <ele>126</ele>
        <time>2013-10-13T09:00:14Z</time>
      </trkpt>
      <trkpt lat="49.34512" lon="0.90124">
        <ele>126</ele>
        <time>2013-10-13T09:00:18Z</time>
      </trkpt>
      <trkpt lat="49.34536" lon="0.90116">
        <ele>127</ele>
        <time>2013-10-13T09:00:24Z</time>
      </trkpt>
      <trkpt lat="49.34555" lon="0.90122">
        <ele>127</ele>
        <time>2013-10-13T09:00:28Z</time>
      </trkpt>
      <trkpt lat="49.34573" lon="0.90134">
        <ele>127</ele>
        <time>2013-10-13T09:00:32Z</time>
      </trkpt>
      <trkpt lat="49.34594" lon="0.90155">
        <ele>128</ele>
        <time>2013-10-13T09:00:38Z</time>
      </trkpt>
      <trkpt lat="49.3461" lon="0.90176">
        <ele>128</ele>
        <time>2013-10-13T09:00:42Z</time>
      </trkpt>
      <trkpt lat="49.34624" lon="0.90196">
        <ele>128</ele>
        <time>2013-10-13T09:00:46Z</time>
      </trkpt>
      <trkpt lat="49.34644" lon="0.90183">
        <ele>128</ele>
        <time>2013-10-13T09:00:52Z</time>
      </trkpt>
      <trkpt lat="49.34658" lon="0.90163">
        <ele>128</ele>
        <time>2013-10-13T09:00:56Z</time>
      </trkpt>
      <trkpt lat="49.34675" lon="0.90146">
        <ele>128</ele>
        <time>2013-10-13T09:01:00Z</time>
      </trkpt>
      <trkpt lat="49.34693" lon="0.90134">
        <ele>128</ele>
        <time>2013-10-13T09:01:04Z</time>
      </trkpt>
      <trkpt lat="49.34711" lon="0.90123">
        <ele>128</ele>
        <time>2013-10-13T09:01:08Z</time>
      </trkpt>
      <trkpt lat="49.3473" lon="0.90109">
        <ele>128</ele>
        <time>2013-10-13T09:01:12Z</time>
      </trkpt>
      <trkpt lat="49.34748" lon="0.9009">
        <ele>127</ele>
        <time>2013-10-13T09:01:16Z</time>
      </trkpt>
      <trkpt lat="49.34765" lon="0.9007">
        <ele>126</ele>
        <time>2013-10-13T09:01:20Z</time>
      </trkpt>
      <trkpt lat="49.34787" lon="0.90053">
        <ele>126</ele>
        <time>2013-10-13T09:01:24Z</time>
      </trkpt>
      <trkpt lat="49.34808" lon="0.90037">
        <ele>126</ele>
        <time>2013-10-13T09:01:30Z</time>
      </trkpt>
      <trkpt lat="49.34827" lon="0.90007">
        <ele>125</ele>
        <time>2013-10-13T09:01:36Z</time>
      </trkpt>
      <trkpt lat="49.3484" lon="0.8998">
        <ele>124</ele>
        <time>2013-10-13T09:01:44Z</time>
      </trkpt>
      <trkpt lat="49.34824" lon="0.89967">
        <ele>123</ele>
        <time>2013-10-13T09:01:56Z</time>
      </trkpt>
      <trkpt lat="49.34808" lon="0.89953">
        <ele>122</ele>
        <time>2013-10-13T09:02:04Z</time>
      </trkpt>
      <trkpt lat="49.34788" lon="0.89943">
        <ele>122</ele>
        <time>2013-10-13T09:02:12Z</time>
      </trkpt>
      <trkpt lat="49.3477" lon="0.89927">
        <ele>121</ele>
        <time>2013-10-13T09:02:20Z</time>
      </trkpt>
      <trkpt lat="49.34755" lon="0.89905">
        <ele>120</ele>
        <time>2013-10-13T09:02:28Z</time>
      </trkpt>
      <trkpt lat="49.34734" lon="0.89892">
        <ele>118</ele>
        <time>2013-10-13T09:02:34Z</time>
      </trkpt>
      <trkpt lat="49.34722" lon="0.8987">
        <ele>118</ele>
        <time>2013-10-13T09:02:38Z</time>
      </trkpt>
      <trkpt lat="49.3471" lon="0.89838">
        <ele>117</ele>
        <time>2013-10-13T09:02:44Z</time>
      </trkpt>
      <trkpt lat="49.34692" lon="0.89806">
        <ele>114</ele>
        <time>2013-10-13T09:02:50Z</time>
      </trkpt>
      <trkpt lat="49.34667" lon="0.89777">
        <ele>112</ele>
        <time>2013-10-13T09:02:54Z</time>
      </trkpt>
      <trkpt lat="49.3465" lon="0.89753">
        <ele>109</ele>
        <time>2013-10-13T09:02:56Z</time>
      </trkpt>
      <trkpt lat="49.34634" lon="0.89735">
        <ele>107</ele>
        <time>2013-10-13T09:02:58Z</time>
      </trkpt>
      <trkpt lat="49.3461" lon="0.8971">
        <ele>106</ele>
        <time>2013-10-13T09:03:02Z</time>
      </trkpt>
      <trkpt lat="49.34582" lon="0.89687">
        <ele>100</ele>
        <time>2013-10-13T09:03:06Z</time>
      </trkpt>
      <trkpt lat="49.34555" lon="0.89676">
        <ele>99</ele>
        <time>2013-10-13T09:03:10Z</time>
      </trkpt>
      <trkpt lat="49.34534" lon="0.89668">
        <ele>98</ele>
        <time>2013-10-13T09:03:14Z</time>
      </trkpt>
      <trkpt lat="49.34504" lon="0.89658">
        <ele>93</ele>
        <time>2013-10-13T09:03:18Z</time>
      </trkpt>
      <trkpt lat="49.34476" lon="0.89651">
        <ele>90</ele>
        <time>2013-10-13T09:03:22Z</time>
      </trkpt>
      <trkpt lat="49.34456" lon="0.89623">
        <ele>90</ele>
        <time>2013-10-13T09:03:28Z</time>
      </trkpt>
      <trkpt lat="49.34441" lon="0.89604">
        <ele>89</ele>
        <time>2013-10-13T09:03:32Z</time>
      </trkpt>
      <trkpt lat="49.34414" lon="0.89601">
        <ele>85</ele>
        <time>2013-10-13T09:03:36Z</time>
      </trkpt>
      <trkpt lat="49.34395" lon="0.89605">
        <ele>83</ele>
        <time>2013-10-13T09:03:40Z</time>
      </trkpt>
      <trkpt lat="49.34378" lon="0.89587">
        <ele>82</ele>
        <time>2013-10-13T09:03:46Z</time>
      </trkpt>
      <trkpt lat="49.34366" lon="0.89561">
        <ele>84</ele>
        <time>2013-10-13T09:03:50Z</time>
      </trkpt>
      <trkpt lat="49.34353" lon="0.89539">
        <ele>84</ele>
        <time>2013-10-13T09:03:54Z</time>
      </trkpt>
      <trkpt lat="49.34345" lon="0.89513">
        <ele>82</ele>
        <time>2013-10-13T09:03:58Z</time>
      </trkpt>
      <trkpt lat="49.34338" lon="0.89488">
        <ele>84</ele>
        <time>2013-10-13T09:04:02Z</time>
      </trkpt>
      <trkpt lat="49.34325" lon="0.89454">
        <ele>82</ele>
        <time>2013-10-13T09:04:06Z</time>
      </trkpt>
      <trkpt lat="49.34317" lon="0.89429">
        <ele>82</ele>
        <time>2013-10-13T09:04:10Z</time>
      </trkpt>
      <trkpt lat="49.3431" lon="0.89396">
        <ele>83</ele>
        <time>2013-10-13T09:04:14Z</time>
      </trkpt>
      <trkpt lat="49.34302" lon="0.89356">
        <ele>84</ele>
        <time>2013-10-13T09:04:20Z</time>
      </trkpt>
      <trkpt lat="49.34297" lon="0.89328">
        <ele>84</ele>
        <time>2013-10-13T09:04:24Z</time>
      </trkpt>
      <trkpt lat="49.34293" lon="0.89296">
        <ele>84</ele>
        <time>2013-10-13T09:04:28Z</time>
      </trkpt>
      <trkpt lat="49.34292" lon="0.89265">
        <ele>83</ele>
        <time>2013-10-13T09:04:32Z</time>
      </trkpt>
      <trkpt lat="49.34291" lon="0.89232">
        <ele>83</ele>
        <time>2013-10-13T09:04:38Z</time>
      </trkpt>
      <trkpt lat="49.34289" lon="0.89195">
        <ele>83</ele>
        <time>2013-10-13T09:04:44Z</time>
      </trkpt>
      <trkpt lat="49.3429" lon="0.89162">
        <ele>83</ele>
        <time>2013-10-13T09:04:50Z</time>
      </trkpt>
      <trkpt lat="49.34293" lon="0.89135">
        <ele>84</ele>
        <time>2013-10-13T09:04:56Z</time>
      </trkpt>
      <trkpt lat="49.34293" lon="0.89101">
        <ele>83</ele>
        <time>2013-10-13T09:05:02Z</time>
      </trkpt>
      <trkpt lat="49.34296" lon="0.89069">
        <ele>82</ele>
        <time>2013-10-13T09:05:08Z</time>
      </trkpt>
      <trkpt lat="49.34302" lon="0.89039">
        <ele>82</ele>
        <time>2013-10-13T09:05:14Z</time>
      </trkpt>
      <trkpt lat="49.34307" lon="0.89009">
        <ele>83</ele>
        <time>2013-10-13T09:05:20Z</time>
      </trkpt>
      <trkpt lat="49.34315" lon="0.88984">
        <ele>81</ele>
        <time>2013-10-13T09:05:26Z</time>
      </trkpt>
      <trkpt lat="49.34325" lon="0.88955">
        <ele>80</ele>
        <time>2013-10-13T09:05:34Z</time>
      </trkpt>
      <trkpt lat="49.34336" lon="0.88931">
        <ele>86</ele>
        <time>2013-10-13T09:05:40Z</time>
      </trkpt>
      <trkpt lat="49.3435" lon="0.88911">
        <ele>83</ele>
        <time>2013-10-13T09:05:46Z</time>
      </trkpt>
      <trkpt lat="49.34369" lon="0.88886">
        <ele>86</ele>
        <time>2013-10-13T09:06:10Z</time>
      </trkpt>
      <trkpt lat="49.34391" lon="0.88871">
        <ele>88</ele>
        <time>2013-10-13T09:06:20Z</time>
      </trkpt>
      <trkpt lat="49.34414" lon="0.88861">
        <ele>89</ele>
        <time>2013-10-13T09:06:36Z</time>
      </trkpt>
      <trkpt lat="49.34433" lon="0.88858">
        <ele>101</ele>
        <time>2013-10-13T09:06:50Z</time>
      </trkpt>
      <trkpt lat="49.34447" lon="0.88878">
        <ele>105</ele>
        <time>2013-10-13T09:07:06Z</time>
      </trkpt>
      <trkpt lat="49.34468" lon="0.8888">
        <ele>107</ele>
        <time>2013-10-13T09:07:20Z</time>
      </trkpt>
      <trkpt lat="49.34487" lon="0.88884">
        <ele>109</ele>
        <time>2013-10-13T09:07:30Z</time>
      </trkpt>
      <trkpt lat="49.34519" lon="0.88891">
        <ele>118</ele>
        <time>2013-10-13T09:08:02Z</time>
      </trkpt>
      <trkpt lat="49.34533" lon="0.88908">
        <ele>118</ele>
        <time>2013-10-13T09:08:12Z</time>
      </trkpt>
      <trkpt lat="49.34556" lon="0.88907">
        <ele>119</ele>
        <time>2013-10-13T09:08:36Z</time>
      </trkpt>
      <trkpt lat="49.34547" lon="0.88881">
        <ele>118</ele>
        <time>2013-10-13T09:09:04Z</time>
      </trkpt>
      <trkpt lat="49.3455" lon="0.88848">
        <ele>118</ele>
        <time>2013-10-13T09:09:10Z</time>
      </trkpt>
      <trkpt lat="49.34561" lon="0.88826">
        <ele>117</ele>
        <time>2013-10-13T09:09:18Z</time>
      </trkpt>
      <trkpt lat="49.34571" lon="0.88801">
        <ele>117</ele>
        <time>2013-10-13T09:09:28Z</time>
      </trkpt>
      <trkpt lat="49.34581" lon="0.88777">
        <ele>118</ele>
        <time>2013-10-13T09:09:34Z</time>
      </trkpt>
      <trkpt lat="49.34592" lon="0.88755">
        <ele>122</ele>
        <time>2013-10-13T09:09:40Z</time>
      </trkpt>
      <trkpt lat="49.34599" lon="0.88723">
        <ele>121</ele>
        <time>2013-10-13T09:09:48Z</time>
      </trkpt>
      <trkpt lat="49.34607" lon="0.88693">
        <ele>120</ele>
        <time>2013-10-13T09:09:54Z</time>
      </trkpt>
      <trkpt lat="49.34614" lon="0.88661">
        <ele>117</ele>
        <time>2013-10-13T09:10:00Z</time>
      </trkpt>
      <trkpt lat="49.34626" lon="0.88632">
        <ele>118</ele>
        <time>2013-10-13T09:10:06Z</time>
      </trkpt>
      <trkpt lat="49.34637" lon="0.88593">
        <ele>118</ele>
        <time>2013-10-13T09:10:12Z</time>
      </trkpt>
      <trkpt lat="49.34646" lon="0.88555">
        <ele>115</ele>
        <time>2013-10-13T09:10:18Z</time>
      </trkpt>
      <trkpt lat="49.34656" lon="0.88514">
        <ele>116</ele>
        <time>2013-10-13T09:10:24Z</time>
      </trkpt>
      <trkpt lat="49.34656" lon="0.88485">
        <ele>114</ele>
        <time>2013-10-13T09:10:30Z</time>
      </trkpt>
      <trkpt lat="49.34652" lon="0.88443">
        <ele>112</ele>
        <time>2013-10-13T09:10:36Z</time>
      </trkpt>
      <trkpt lat="49.34662" lon="0.88413">
        <ele>116</ele>
        <time>2013-10-13T09:10:40Z</time>
      </trkpt>
      <trkpt lat="49.34673" lon="0.88381">
        <ele>119</ele>
        <time>2013-10-13T09:10:46Z</time>
      </trkpt>
      <trkpt lat="49.34682" lon="0.88349">
        <ele>118</ele>
        <time>2013-10-13T09:10:52Z</time>
      </trkpt>
      <trkpt lat="49.34683" lon="0.88321">
        <ele>118</ele>
        <time>2013-10-13T09:10:58Z</time>
      </trkpt>
      <trkpt lat="49.34691" lon="0.88286">
        <ele>119</ele>
        <time>2013-10-13T09:11:04Z</time>
      </trkpt>
      <trkpt lat="49.34705" lon="0.8826">
        <ele>119</ele>
        <time>2013-10-13T09:11:10Z</time>
      </trkpt>
      <trkpt lat="49.34721" lon="0.88231">
        <ele>120</ele>
        <time>2013-10-13T09:11:16Z</time>
      </trkpt>
      <trkpt lat="49.34742" lon="0.88211">
        <ele>121</ele>
        <time>2013-10-13T09:11:22Z</time>
      </trkpt>
      <trkpt lat="49.34758" lon="0.88194">
        <ele>122</ele>
        <time>2013-10-13T09:11:26Z</time>
      </trkpt>
      <trkpt lat="49.34778" lon="0.88188">
        <ele>122</ele>
        <time>2013-10-13T09:11:32Z</time>
      </trkpt>
      <trkpt lat="49.34799" lon="0.88192">
        <ele>121</ele>
        <time>2013-10-13T09:11:38Z</time>
      </trkpt>
      <trkpt lat="49.34821" lon="0.88186">
        <ele>121</ele>
        <time>2013-10-13T09:11:44Z</time>
      </trkpt>
      <trkpt lat="49.3484" lon="0.88162">
        <ele>121</ele>
        <time>2013-10-13T09:11:52Z</time>
      </trkpt>
      <trkpt lat="49.34848" lon="0.88131">
        <ele>121</ele>
        <time>2013-10-13T09:11:58Z</time>
      </trkpt>
      <trkpt lat="49.34855" lon="0.88099">
        <ele>121</ele>
        <time>2013-10-13T09:12:04Z</time>
      </trkpt>
      <trkpt lat="49.34857" lon="0.88072">
        <ele>120</ele>
        <time>2013-10-13T09:12:14Z</time>
      </trkpt>
      <trkpt lat="49.3486" lon="0.8804">
        <ele>121</ele>
        <time>2013-10-13T09:12:20Z</time>
      </trkpt>
      <trkpt lat="49.34862" lon="0.88008">
        <ele>121</ele>
        <time>2013-10-13T09:12:26Z</time>
      </trkpt>
      <trkpt lat="49.34858" lon="0.87971">
        <ele>120</ele>
        <time>2013-10-13T09:12:32Z</time>
      </trkpt>
      <trkpt lat="49.34844" lon="0.87937">
        <ele>120</ele>
        <time>2013-10-13T09:12:38Z</time>
      </trkpt>
      <trkpt lat="49.34825" lon="0.87913">
        <ele>118</ele>
        <time>2013-10-13T09:12:44Z</time>
      </trkpt>
      <trkpt lat="49.34816" lon="0.87886">
        <ele>119</ele>
        <time>2013-10-13T09:12:48Z</time>
      </trkpt>
      <trkpt lat="49.34806" lon="0.87844">
        <ele>119</ele>
        <time>2013-10-13T09:12:52Z</time>
      </trkpt>
      <trkpt lat="49.34805" lon="0.87804">
        <ele>121</ele>
        <time>2013-10-13T09:12:56Z</time>
      </trkpt>
      <trkpt lat="49.34793" lon="0.87772">
        <ele>122</ele>
        <time>2013-10-13T09:13:00Z</time>
      </trkpt>
      <trkpt lat="49.34771" lon="0.87758">
        <ele>122</ele>
        <time>2013-10-13T09:13:06Z</time>
      </trkpt>
      <trkpt lat="49.34753" lon="0.87749">
        <ele>124</ele>
        <time>2013-10-13T09:13:10Z</time>
      </trkpt>
      <trkpt lat="49.34737" lon="0.87735">
        <ele>122</ele>
        <time>2013-10-13T09:13:14Z</time>
      </trkpt>
      <trkpt lat="49.34715" lon="0.87714">
        <ele>121</ele>
        <time>2013-10-13T09:13:18Z</time>
      </trkpt>
      <trkpt lat="49.34687" lon="0.87715">
        <ele>121</ele>
        <time>2013-10-13T09:13:24Z</time>
      </trkpt>
      <trkpt lat="49.34654" lon="0.87708">
        <ele>118</ele>
        <time>2013-10-13T09:13:28Z</time>
      </trkpt>
      <trkpt lat="49.34627" lon="0.8771">
        <ele>118</ele>
        <time>2013-10-13T09:13:32Z</time>
      </trkpt>
      <trkpt lat="49.34598" lon="0.87717">
        <ele>116</ele>
        <time>2013-10-13T09:13:36Z</time>
      </trkpt>
      <trkpt lat="49.34572" lon="0.87705">
        <ele>112</ele>
        <time>2013-10-13T09:13:40Z</time>
      </trkpt>
      <trkpt lat="49.3455" lon="0.87691">
        <ele>112</ele>
        <time>2013-10-13T09:13:44Z</time>
      </trkpt>
      <trkpt lat="49.34536" lon="0.87657">
        <ele>115</ele>
        <time>2013-10-13T09:13:50Z</time>
      </trkpt>
      <trkpt lat="49.34516" lon="0.87633">
        <ele>115</ele>
        <time>2013-10-13T09:13:56Z</time>
      </trkpt>
      <trkpt lat="49.345" lon="0.87601">
        <ele>110</ele>
        <time>2013-10-13T09:14:00Z</time>
      </trkpt>
      <trkpt lat="49.34489" lon="0.87579">
        <ele>112</ele>
        <time>2013-10-13T09:14:04Z</time>
      </trkpt>
      <trkpt lat="49.34476" lon="0.87551">
        <ele>109</ele>
        <time>2013-10-13T09:14:08Z</time>
      </trkpt>
      <trkpt lat="49.34458" lon="0.8752">
        <ele>108</ele>
        <time>2013-10-13T09:14:12Z</time>
      </trkpt>
      <trkpt lat="49.34445" lon="0.87484">
        <ele>108</ele>
        <time>2013-10-13T09:14:16Z</time>
      </trkpt>
      <trkpt lat="49.34429" lon="0.87452">
        <ele>108</ele>
        <time>2013-10-13T09:14:20Z</time>
      </trkpt>
      <trkpt lat="49.34412" lon="0.87409">
        <ele>104</ele>
        <time>2013-10-13T09:14:24Z</time>
      </trkpt>
      <trkpt lat="49.34409" lon="0.87362">
        <ele>106</ele>
        <time>2013-10-13T09:14:28Z</time>
      </trkpt>
      <trkpt lat="49.34414" lon="0.87329">
        <ele>110</ele>
        <time>2013-10-13T09:14:30Z</time>
      </trkpt>
      <trkpt lat="49.3443" lon="0.87288">
        <ele>116</ele>
        <time>2013-10-13T09:14:34Z</time>
      </trkpt>
      <trkpt lat="49.34438" lon="0.87258">
        <ele>117</ele>
        <time>2013-10-13T09:14:38Z</time>
      </trkpt>
      <trkpt lat="49.34446" lon="0.87226">
        <ele>118</ele>
        <time>2013-10-13T09:14:44Z</time>
      </trkpt>
      <trkpt lat="49.34455" lon="0.87199">
        <ele>119</ele>
        <time>2013-10-13T09:14:58Z</time>
      </trkpt>
      <trkpt lat="49.34453" lon="0.87167">
        <ele>119</ele>
        <time>2013-10-13T09:15:38Z</time>
      </trkpt>
      <trkpt lat="49.34459" lon="0.87139">
        <ele>120</ele>
        <time>2013-10-13T09:15:44Z</time>
      </trkpt>
      <trkpt lat="49.34464" lon="0.87111">
        <ele>120</ele>
        <time>2013-10-13T09:15:50Z</time>
      </trkpt>
      <trkpt lat="49.34465" lon="0.87079">
        <ele>120</ele>
        <time>2013-10-13T09:15:56Z</time>
      </trkpt>
      <trkpt lat="49.34462" lon="0.87051">
        <ele>120</ele>
        <time>2013-10-13T09:16:02Z</time>
      </trkpt>
      <trkpt lat="49.34468" lon="0.8701">
        <ele>120</ele>
        <time>2013-10-13T09:16:08Z</time>
      </trkpt>
      <trkpt lat="49.3447" lon="0.86973">
        <ele>121</ele>
        <time>2013-10-13T09:16:14Z</time>
      </trkpt>
      <trkpt lat="49.34468" lon="0.86945">
        <ele>121</ele>
        <time>2013-10-13T09:16:18Z</time>
      </trkpt>
      <trkpt lat="49.34463" lon="0.86914">
        <ele>121</ele>
        <time>2013-10-13T09:16:24Z</time>
      </trkpt>
      <trkpt lat="49.34456" lon="0.86882">
        <ele>121</ele>
        <time>2013-10-13T09:16:30Z</time>
      </trkpt>
      <trkpt lat="49.34452" lon="0.86847">
        <ele>122</ele>
        <time>2013-10-13T09:16:36Z</time>
      </trkpt>
      <trkpt lat="49.34454" lon="0.86817">
        <ele>123</ele>
        <time>2013-10-13T09:16:40Z</time>
      </trkpt>
      <trkpt lat="49.34452" lon="0.86788">
        <ele>123</ele>
        <time>2013-10-13T09:16:44Z</time>
      </trkpt>
      <trkpt lat="49.34445" lon="0.86751">
        <ele>123</ele>
        <time>2013-10-13T09:16:50Z</time>
      </trkpt>
      <trkpt lat="49.34427" lon="0.86734">
        <ele>121</ele>
        <time>2013-10-13T09:16:54Z</time>
      </trkpt>
      <trkpt lat="49.34404" lon="0.86721">
        <ele>117</ele>
        <time>2013-10-13T09:16:58Z</time>
      </trkpt>
      <trkpt lat="49.34383" lon="0.86712">
        <ele>116</ele>
        <time>2013-10-13T09:17:02Z</time>
      </trkpt>
      <trkpt lat="49.34365" lon="0.86727">
        <ele>115</ele>
        <time>2013-10-13T09:17:10Z</time>
      </trkpt>
      <trkpt lat="49.34357" lon="0.8676">
        <ele>113</ele>
        <time>2013-10-13T09:17:16Z</time>
      </trkpt>
      <trkpt lat="49.34348" lon="0.86787">
        <ele>113</ele>
        <time>2013-10-13T09:17:20Z</time>
      </trkpt>
      <trkpt lat="49.34342" lon="0.86819">
        <ele>111</ele>
        <time>2013-10-13T09:17:24Z</time>
      </trkpt>
      <trkpt lat="49.34333" lon="0.8685">
        <ele>106</ele>
        <time>2013-10-13T09:17:28Z</time>
      </trkpt>
      <trkpt lat="49.34323" lon="0.86873">
        <ele>106</ele>
        <time>2013-10-13T09:17:32Z</time>
      </trkpt>
      <trkpt lat="49.3431" lon="0.86894">
        <ele>105</ele>
        <time>2013-10-13T09:17:36Z</time>
      </trkpt>
      <trkpt lat="49.34297" lon="0.86915">
        <ele>105</ele>
        <time>2013-10-13T09:18:10Z</time>
      </trkpt>
      <trkpt lat="49.3428" lon="0.86949">
        <ele>105</ele>
        <time>2013-10-13T09:18:16Z</time>
      </trkpt>
      <trkpt lat="49.34263" lon="0.86977">
        <ele>105</ele>
        <time>2013-10-13T09:18:22Z</time>
      </trkpt>
      <trkpt lat="49.34248" lon="0.87">
        <ele>104</ele>
        <time>2013-10-13T09:18:26Z</time>
      </trkpt>
      <trkpt lat="49.34224" lon="0.87024">
        <ele>106</ele>
        <time>2013-10-13T09:18:32Z</time>
      </trkpt>
      <trkpt lat="49.34206" lon="0.87034">
        <ele>107</ele>
        <time>2013-10-13T09:18:36Z</time>
      </trkpt>
      <trkpt lat="49.34186" lon="0.87028">
        <ele>108</ele>
        <time>2013-10-13T09:18:44Z</time>
      </trkpt>
      <trkpt lat="49.34178" lon="0.87067">
        <ele>108</ele>
        <time>2013-10-13T09:18:50Z</time>
      </trkpt>
      <trkpt lat="49.34178" lon="0.87099">
        <ele>107</ele>
        <time>2013-10-13T09:18:56Z</time>
      </trkpt>
      <trkpt lat="49.34182" lon="0.87136">
        <ele>107</ele>
        <time>2013-10-13T09:19:02Z</time>
      </trkpt>
      <trkpt lat="49.34191" lon="0.87163">
        <ele>107</ele>
        <time>2013-10-13T09:19:06Z</time>
      </trkpt>
      <trkpt lat="49.34206" lon="0.8718">
        <ele>106</ele>
        <time>2013-10-13T09:19:10Z</time>
      </trkpt>
      <trkpt lat="49.34226" lon="0.87206">
        <ele>105</ele>
        <time>2013-10-13T09:19:14Z</time>
      </trkpt>
      <trkpt lat="49.34244" lon="0.87235">
        <ele>103</ele>
        <time>2013-10-13T09:19:18Z</time>
      </trkpt>
      <trkpt lat="49.34256" lon="0.87262">
        <ele>101</ele>
        <time>2013-10-13T09:19:24Z</time>
      </trkpt>
      <trkpt lat="49.34257" lon="0.87291">
        <ele>101</ele>
        <time>2013-10-13T09:19:30Z</time>
      </trkpt>
      <trkpt lat="49.34261" lon="0.8732">
        <ele>101</ele>
        <time>2013-10-13T09:19:34Z</time>
      </trkpt>
      <trkpt lat="49.34267" lon="0.87352">
        <ele>101</ele>
        <time>2013-10-13T09:19:38Z</time>
      </trkpt>
      <trkpt lat="49.34271" lon="0.87389">
        <ele>101</ele>
        <time>2013-10-13T09:19:42Z</time>
      </trkpt>
      <trkpt lat="49.34275" lon="0.87421">
        <ele>101</ele>
        <time>2013-10-13T09:19:50Z</time>
      </trkpt>
      <trkpt lat="49.34282" lon="0.8746">
        <ele>100</ele>
        <time>2013-10-13T09:19:56Z</time>
      </trkpt>
      <trkpt lat="49.34288" lon="0.87494">
        <ele>99</ele>
        <time>2013-10-13T09:20:04Z</time>
      </trkpt>
      <trkpt lat="49.34294" lon="0.87524">
        <ele>96</ele>
        <time>2013-10-13T09:20:10Z</time>
      </trkpt>
      <trkpt lat="49.34299" lon="0.87554">
        <ele>96</ele>
        <time>2013-10-13T09:20:14Z</time>
      </trkpt>
      <trkpt lat="49.34301" lon="0.87582">
        <ele>95</ele>
        <time>2013-10-13T09:20:20Z</time>
      </trkpt>
      <trkpt lat="49.34298" lon="0.87615">
        <ele>93</ele>
        <time>2013-10-13T09:20:30Z</time>
      </trkpt>
      <trkpt lat="49.34296" lon="0.87646">
        <ele>93</ele>
        <time>2013-10-13T09:20:40Z</time>
      </trkpt>
      <trkpt lat="49.34295" lon="0.87676">
        <ele>93</ele>
        <time>2013-10-13T09:20:52Z</time>
      </trkpt>
      <trkpt lat="49.34291" lon="0.87703">
        <ele>94</ele>
        <time>2013-10-13T09:21:04Z</time>
      </trkpt>
      <trkpt lat="49.34284" lon="0.87736">
        <ele>94</ele>
        <time>2013-10-13T09:21:14Z</time>
      </trkpt>
      <trkpt lat="49.34278" lon="0.87775">
        <ele>95</ele>
        <time>2013-10-13T09:21:22Z</time>
      </trkpt>
      <trkpt lat="49.34291" lon="0.87804">
        <ele>95</ele>
        <time>2013-10-13T09:21:30Z</time>
      </trkpt>
      <trkpt lat="49.34305" lon="0.87835">
        <ele>94</ele>
        <time>2013-10-13T09:21:34Z</time>
      </trkpt>
      <trkpt lat="49.34317" lon="0.87873">
        <ele>94</ele>
        <time>2013-10-13T09:21:38Z</time>
      </trkpt>
      <trkpt lat="49.34332" lon="0.87914">
        <ele>94</ele>
        <time>2013-10-13T09:21:42Z</time>
      </trkpt>
      <trkpt lat="49.34346" lon="0.87944">
        <ele>93</ele>
        <time>2013-10-13T09:21:46Z</time>
      </trkpt>
      <trkpt lat="49.34362" lon="0.87975">
        <ele>92</ele>
        <time>2013-10-13T09:21:50Z</time>
      </trkpt>
      <trkpt lat="49.34377" lon="0.88016">
        <ele>89</ele>
        <time>2013-10-13T09:21:54Z</time>
      </trkpt>
      <trkpt lat="49.34375" lon="0.88049">
        <ele>88</ele>
        <time>2013-10-13T09:21:58Z</time>
      </trkpt>
      <trkpt lat="49.3439" lon="0.88078">
        <ele>88</ele>
        <time>2013-10-13T09:22:06Z</time>
      </trkpt>
      <trkpt lat="49.34402" lon="0.881">
        <ele>88</ele>
        <time>2013-10-13T09:22:10Z</time>
      </trkpt>
      <trkpt lat="49.34407" lon="0.88128">
        <ele>87</ele>
        <time>2013-10-13T09:22:14Z</time>
      </trkpt>
      <trkpt lat="49.34414" lon="0.8816">
        <ele>87</ele>
        <time>2013-10-13T09:22:20Z</time>
      </trkpt>
      <trkpt lat="49.34418" lon="0.88194">
        <ele>88</ele>
        <time>2013-10-13T09:22:26Z</time>
      </trkpt>
      <trkpt lat="49.34423" lon="0.88224">
        <ele>88</ele>
        <time>2013-10-13T09:22:30Z</time>
      </trkpt>
      <trkpt lat="49.3443" lon="0.88255">
        <ele>88</ele>
        <time>2013-10-13T09:22:34Z</time>
      </trkpt>
      <trkpt lat="49.34438" lon="0.88286">
        <ele>89</ele>
        <time>2013-10-13T09:22:38Z</time>
      </trkpt>
      <trkpt lat="49.34443" lon="0.88314">
        <ele>90</ele>
        <time>2013-10-13T09:22:42Z</time>
      </trkpt>
      <trkpt lat="49.3445" lon="0.8835">
        <ele>90</ele>
        <time>2013-10-13T09:22:48Z</time>
      </trkpt>
      <trkpt lat="49.34455" lon="0.88386">
        <ele>90</ele>
        <time>2013-10-13T09:22:52Z</time>
      </trkpt>
      <trkpt lat="49.34454" lon="0.88419">
        <ele>88</ele>
        <time>2013-10-13T09:22:56Z</time>
      </trkpt>
      <trkpt lat="49.34449" lon="0.88454">
        <ele>87</ele>
        <time>2013-10-13T09:23:04Z</time>
      </trkpt>
      <trkpt lat="49.34433" lon="0.8847">
        <ele>87</ele>
        <time>2013-10-13T09:23:16Z</time>
      </trkpt>
      <trkpt lat="49.34409" lon="0.88465">
        <ele>95</ele>
        <time>2013-10-13T09:23:32Z</time>
      </trkpt>
      <trkpt lat="49.34392" lon="0.88454">
        <ele>96</ele>
        <time>2013-10-13T09:23:42Z</time>
      </trkpt>
      <trkpt lat="49.34374" lon="0.88447">
        <ele>98</ele>
        <time>2013-10-13T09:23:54Z</time>
      </trkpt>
      <trkpt lat="49.34354" lon="0.8844">
        <ele>100</ele>
        <time>2013-10-13T09:24:08Z</time>
      </trkpt>
      <trkpt lat="49.34334" lon="0.88432">
        <ele>102</ele>
        <time>2013-10-13T09:24:20Z</time>
      </trkpt>
      <trkpt lat="49.34315" lon="0.88426">
        <ele>106</ele>
        <time>2013-10-13T09:24:30Z</time>
      </trkpt>
      <trkpt lat="49.3429" lon="0.88421">
        <ele>108</ele>
        <time>2013-10-13T09:24:40Z</time>
      </trkpt>
      <trkpt lat="49.34272" lon="0.88408">
        <ele>108</ele>
        <time>2013-10-13T09:24:50Z</time>
      </trkpt>
      <trkpt lat="49.34249" lon="0.88389">
        <ele>109</ele>
        <time>2013-10-13T09:25:00Z</time>
      </trkpt>
      <trkpt lat="49.34228" lon="0.8838">
        <ele>108</ele>
        <time>2013-10-13T09:25:08Z</time>
      </trkpt>
      <trkpt lat="49.34206" lon="0.88367">
        <ele>108</ele>
        <time>2013-10-13T09:25:16Z</time>
      </trkpt>
      <trkpt lat="49.34176" lon="0.88355">
        <ele>108</ele>
        <time>2013-10-13T09:25:22Z</time>
      </trkpt>
      <trkpt lat="49.34149" lon="0.8835">
        <ele>106</ele>
        <time>2013-10-13T09:25:26Z</time>
      </trkpt>
      <trkpt lat="49.34127" lon="0.88347">
        <ele>104</ele>
        <time>2013-10-13T09:25:30Z</time>
      </trkpt>
      <trkpt lat="49.34105" lon="0.88351">
        <ele>103</ele>
        <time>2013-10-13T09:25:34Z</time>
      </trkpt>
      <trkpt lat="49.34082" lon="0.88351">
        <ele>99</ele>
        <time>2013-10-13T09:25:40Z</time>
      </trkpt>
      <trkpt lat="49.34064" lon="0.88333">
        <ele>97</ele>
        <time>2013-10-13T09:25:44Z</time>
      </trkpt>
      <trkpt lat="49.34046" lon="0.88314">
        <ele>96</ele>
        <time>2013-10-13T09:25:48Z</time>
      </trkpt>
      <trkpt lat="49.34034" lon="0.88291">
        <ele>95</ele>
        <time>2013-10-13T09:25:56Z</time>
      </trkpt>
      <trkpt lat="49.34023" lon="0.88258">
        <ele>95</ele>
        <time>2013-10-13T09:26:04Z</time>
      </trkpt>
      <trkpt lat="49.34034" lon="0.88224">
        <ele>95</ele>
        <time>2013-10-13T09:26:10Z</time>
      </trkpt>
      <trkpt lat="49.34043" lon="0.88198">
        <ele>95</ele>
        <time>2013-10-13T09:26:16Z</time>
      </trkpt>
      <trkpt lat="49.3405" lon="0.88169">
        <ele>95</ele>
        <time>2013-10-13T09:26:22Z</time>
      </trkpt>
      <trkpt lat="49.34053" lon="0.88131">
        <ele>97</ele>
        <time>2013-10-13T09:26:28Z</time>
      </trkpt>
      <trkpt lat="49.34055" lon="0.88093">
        <ele>96</ele>
        <time>2013-10-13T09:26:34Z</time>
      </trkpt>
      <trkpt lat="49.34061" lon="0.88061">
        <ele>96</ele>
        <time>2013-10-13T09:26:38Z</time>
      </trkpt>
      <trkpt lat="49.3408" lon="0.88048">
        <ele>95</ele>
        <time>2013-10-13T09:26:42Z</time>
      </trkpt>
      <trkpt lat="49.34102" lon="0.88051">
        <ele>88</ele>
        <time>2013-10-13T09:26:56Z</time>
      </trkpt>
      <trkpt lat="49.3412" lon="0.88061">
        <ele>88</ele>
        <time>2013-10-13T09:27:02Z</time>
      </trkpt>
      <trkpt lat="49.34138" lon="0.88046">
        <ele>87</ele>
        <time>2013-10-13T09:27:08Z</time>
      </trkpt>
      <trkpt lat="49.34135" lon="0.88012">
        <ele>87</ele>
        <time>2013-10-13T09:27:18Z</time>
      </trkpt>
      <trkpt lat="49.34121" lon="0.87995">
        <ele>86</ele>
        <time>2013-10-13T09:27:24Z</time>
      </trkpt>
      <trkpt lat="49.34105" lon="0.8798">
        <ele>86</ele>
        <time>2013-10-13T09:27:32Z</time>
      </trkpt>
      <trkpt lat="49.34092" lon="0.87961">
        <ele>86</ele>
        <time>2013-10-13T09:27:36Z</time>
      </trkpt>
      <trkpt lat="49.34091" lon="0.87932">
        <ele>85</ele>
        <time>2013-10-13T09:27:46Z</time>
      </trkpt>
      <trkpt lat="49.34079" lon="0.87911">
        <ele>86</ele>
        <time>2013-10-13T09:27:50Z</time>
      </trkpt>
      <trkpt lat="49.34064" lon="0.87891">
        <ele>90</ele>
        <time>2013-10-13T09:27:56Z</time>
      </trkpt>
      <trkpt lat="49.34059" lon="0.87857">
        <ele>90</ele>
        <time>2013-10-13T09:28:04Z</time>
      </trkpt>
      <trkpt lat="49.3406" lon="0.87827">
        <ele>89</ele>
        <time>2013-10-13T09:28:10Z</time>
      </trkpt>
      <trkpt lat="49.34069" lon="0.87801">
        <ele>89</ele>
        <time>2013-10-13T09:28:16Z</time>
      </trkpt>
      <trkpt lat="49.34077" lon="0.87775">
        <ele>89</ele>
        <time>2013-10-13T09:28:34Z</time>
      </trkpt>
      <trkpt lat="49.3409" lon="0.87749">
        <ele>90</ele>
        <time>2013-10-13T09:29:16Z</time>
      </trkpt>
      <trkpt lat="49.341" lon="0.87723">
        <ele>92</ele>
        <time>2013-10-13T09:29:26Z</time>
      </trkpt>
      <trkpt lat="49.34109" lon="0.87697">
        <ele>92</ele>
        <time>2013-10-13T09:29:36Z</time>
      </trkpt>
      <trkpt lat="49.34117" lon="0.87672">
        <ele>92</ele>
        <time>2013-10-13T09:29:46Z</time>
      </trkpt>
      <trkpt lat="49.34128" lon="0.87648">
        <ele>93</ele>
        <time>2013-10-13T09:29:54Z</time>
      </trkpt>
      <trkpt lat="49.34137" lon="0.87624">
        <ele>94</ele>
        <time>2013-10-13T09:30:02Z</time>
      </trkpt>
      <trkpt lat="49.3414" lon="0.87593">
        <ele>95</ele>
        <time>2013-10-13T09:30:12Z</time>
      </trkpt>
      <trkpt lat="49.34135" lon="0.87559">
        <ele>96</ele>
        <time>2013-10-13T09:30:22Z</time>
      </trkpt>
      <trkpt lat="49.34135" lon="0.87529">
        <ele>96</ele>
        <time>2013-10-13T09:30:30Z</time>
      </trkpt>
      <trkpt lat="49.34122" lon="0.87499">
        <ele>98</ele>
        <time>2013-10-13T09:30:38Z</time>
      </trkpt>
      <trkpt lat="49.34112" lon="0.87465">
        <ele>98</ele>
        <time>2013-10-13T09:30:46Z</time>
      </trkpt>
      <trkpt lat="49.34102" lon="0.87436">
        <ele>97</ele>
        <time>2013-10-13T09:30:52Z</time>
      </trkpt>
      <trkpt lat="49.34099" lon="0.87399">
        <ele>101</ele>
        <time>2013-10-13T09:30:58Z</time>
      </trkpt>
      <trkpt lat="49.34092" lon="0.87363">
        <ele>103</ele>
        <time>2013-10-13T09:31:04Z</time>
      </trkpt>
      <trkpt lat="49.3409" lon="0.87332">
        <ele>104</ele>
        <time>2013-10-13T09:31:10Z</time>
      </trkpt>
      <trkpt lat="49.34077" lon="0.87301">
        <ele>100</ele>
        <time>2013-10-13T09:31:16Z</time>
      </trkpt>
      <trkpt lat="49.34062" lon="0.87274">
        <ele>101</ele>
        <time>2013-10-13T09:31:22Z</time>
      </trkpt>
      <trkpt lat="49.34051" lon="0.87248">
        <ele>106</ele>
        <time>2013-10-13T09:31:28Z</time>
      </trkpt>
      <trkpt lat="49.34034" lon="0.87232">
        <ele>105</ele>
        <time>2013-10-13T09:31:34Z</time>
      </trkpt>
      <trkpt lat="49.34012" lon="0.87217">
        <ele>104</ele>
        <time>2013-10-13T09:31:38Z</time>
      </trkpt>
      <trkpt lat="49.33995" lon="0.87195">
        <ele>98</ele>
        <time>2013-10-13T09:31:42Z</time>
      </trkpt>
      <trkpt lat="49.33981" lon="0.87177">
        <ele>100</ele>
        <time>2013-10-13T09:31:46Z</time>
      </trkpt>
      <trkpt lat="49.33965" lon="0.8715">
        <ele>104</ele>
        <time>2013-10-13T09:31:52Z</time>
      </trkpt>
      <trkpt lat="49.33949" lon="0.87131">
        <ele>103</ele>
        <time>2013-10-13T09:31:56Z</time>
      </trkpt>
      <trkpt lat="49.33932" lon="0.87095">
        <ele>103</ele>
        <time>2013-10-13T09:32:02Z</time>
      </trkpt>
      <trkpt lat="49.33923" lon="0.87071">
        <ele>107</ele>
        <time>2013-10-13T09:32:06Z</time>
      </trkpt>
      <trkpt lat="49.33918" lon="0.87031">
        <ele>112</ele>
        <time>2013-10-13T09:32:12Z</time>
      </trkpt>
      <trkpt lat="49.33918" lon="0.86995">
        <ele>114</ele>
        <time>2013-10-13T09:32:18Z</time>
      </trkpt>
      <trkpt lat="49.339" lon="0.86976">
        <ele>113</ele>
        <time>2013-10-13T09:32:32Z</time>
      </trkpt>
      <trkpt lat="49.33881" lon="0.86967">
        <ele>113</ele>
        <time>2013-10-13T09:32:38Z</time>
      </trkpt>
      <trkpt lat="49.33854" lon="0.86956">
        <ele>113</ele>
        <time>2013-10-13T09:32:44Z</time>
      </trkpt>
      <trkpt lat="49.33834" lon="0.86944">
        <ele>114</ele>
        <time>2013-10-13T09:32:48Z</time>
      </trkpt>
      <trkpt lat="49.33821" lon="0.86911">
        <ele>119</ele>
        <time>2013-10-13T09:32:54Z</time>
      </trkpt>
      <trkpt lat="49.33806" lon="0.86884">
        <ele>120</ele>
        <time>2013-10-13T09:33:00Z</time>
      </trkpt>
      <trkpt lat="49.3379" lon="0.86863">
        <ele>121</ele>
        <time>2013-10-13T09:33:12Z</time>
      </trkpt>
      <trkpt lat="49.33778" lon="0.86838">
        <ele>122</ele>
        <time>2013-10-13T09:33:20Z</time>
      </trkpt>
      <trkpt lat="49.33772" lon="0.8681">
        <ele>125</ele>
        <time>2013-10-13T09:33:32Z</time>
      </trkpt>
      <trkpt lat="49.33771" lon="0.86781">
        <ele>125</ele>
        <time>2013-10-13T09:33:42Z</time>
      </trkpt>
      <trkpt lat="49.33773" lon="0.8675">
        <ele>126</ele>
        <time>2013-10-13T09:33:52Z</time>
      </trkpt>
      <trkpt lat="49.33775" lon="0.86721">
        <ele>127</ele>
        <time>2013-10-13T09:34:00Z</time>
      </trkpt>
      <trkpt lat="49.33779" lon="0.86686">
        <ele>128</ele>
        <time>2013-10-13T09:34:08Z</time>
      </trkpt>
      <trkpt lat="49.33784" lon="0.86659">
        <ele>130</ele>
        <time>2013-10-13T09:34:14Z</time>
      </trkpt>
      <trkpt lat="49.33801" lon="0.86625">
        <ele>130</ele>
        <time>2013-10-13T09:34:20Z</time>
      </trkpt>
      <trkpt lat="49.33786" lon="0.86601">
        <ele>131</ele>
        <time>2013-10-13T09:34:32Z</time>
      </trkpt>
      <trkpt lat="49.33766" lon="0.8659">
        <ele>131</ele>
        <time>2013-10-13T09:34:40Z</time>
      </trkpt>
      <trkpt lat="49.33749" lon="0.86572">
        <ele>131</ele>
        <time>2013-10-13T09:34:52Z</time>
      </trkpt>
      <trkpt lat="49.33724" lon="0.86562">
        <ele>131</ele>
        <time>2013-10-13T09:34:56Z</time>
      </trkpt>
      <trkpt lat="49.33701" lon="0.86556">
        <ele>131</ele>
        <time>2013-10-13T09:35:00Z</time>
      </trkpt>
      <trkpt lat="49.3368" lon="0.86549">
        <ele>130</ele>
        <time>2013-10-13T09:35:04Z</time>
      </trkpt>
      <trkpt lat="49.33658" lon="0.86547">
        <ele>127</ele>
        <time>2013-10-13T09:35:10Z</time>
      </trkpt>
      <trkpt lat="49.33637" lon="0.86541">
        <ele>127</ele>
        <time>2013-10-13T09:35:16Z</time>
      </trkpt>
      <trkpt lat="49.33613" lon="0.86535">
        <ele>126</ele>
        <time>2013-10-13T09:35:20Z</time>
      </trkpt>
      <trkpt lat="49.33594" lon="0.8653">
        <ele>126</ele>
        <time>2013-10-13T09:35:24Z</time>
      </trkpt>
      <trkpt lat="49.33569" lon="0.86519">
        <ele>124</ele>
        <time>2013-10-13T09:35:30Z</time>
      </trkpt>
      <trkpt lat="49.33551" lon="0.86512">
        <ele>123</ele>
        <time>2013-10-13T09:35:34Z</time>
      </trkpt>
      <trkpt lat="49.33524" lon="0.86504">
        <ele>123</ele>
        <time>2013-10-13T09:35:38Z</time>
      </trkpt>
      <trkpt lat="49.33497" lon="0.86489">
        <ele>124</ele>
        <time>2013-10-13T09:35:42Z</time>
      </trkpt>
      <trkpt lat="49.33482" lon="0.86471">
        <ele>124</ele>
        <time>2013-10-13T09:35:48Z</time>
      </trkpt>
      <trkpt lat="49.33467" lon="0.86446">
        <ele>125</ele>
        <time>2013-10-13T09:35:56Z</time>
      </trkpt>
      <trkpt lat="49.33448" lon="0.86434">
        <ele>125</ele>
        <time>2013-10-13T09:36:02Z</time>
      </trkpt>
      <trkpt lat="49.33434" lon="0.86407">
        <ele>126</ele>
        <time>2013-10-13T09:36:10Z</time>
      </trkpt>
      <trkpt lat="49.33423" lon="0.86376">
        <ele>127</ele>
        <time>2013-10-13T09:36:18Z</time>
      </trkpt>
      <trkpt lat="49.33414" lon="0.86345">
        <ele>124</ele>
        <time>2013-10-13T09:36:26Z</time>
      </trkpt>
      <trkpt lat="49.33414" lon="0.86312">
        <ele>124</ele>
        <time>2013-10-13T09:36:34Z</time>
      </trkpt>
      <trkpt lat="49.33418" lon="0.8628">
        <ele>129</ele>
        <time>2013-10-13T09:36:40Z</time>
      </trkpt>
      <trkpt lat="49.33426" lon="0.86245">
        <ele>129</ele>
        <time>2013-10-13T09:36:46Z</time>
      </trkpt>
      <trkpt lat="49.33433" lon="0.86216">
        <ele>131</ele>
        <time>2013-10-13T09:36:52Z</time>
      </trkpt>
      <trkpt lat="49.33434" lon="0.86186">
        <ele>131</ele>
        <time>2013-10-13T09:36:58Z</time>
      </trkpt>
      <trkpt lat="49.33437" lon="0.86153">
        <ele>132</ele>
        <time>2013-10-13T09:37:06Z</time>
      </trkpt>
      <trkpt lat="49.33439" lon="0.86121">
        <ele>133</ele>
        <time>2013-10-13T09:37:12Z</time>
      </trkpt>
      <trkpt lat="49.33448" lon="0.86094">
        <ele>133</ele>
        <time>2013-10-13T09:37:18Z</time>
      </trkpt>
      <trkpt lat="49.33454" lon="0.86058">
        <ele>134</ele>
        <time>2013-10-13T09:37:22Z</time>
      </trkpt>
      <trkpt lat="49.33467" lon="0.86025">
        <ele>134</ele>
        <time>2013-10-13T09:37:28Z</time>
      </trkpt>
      <trkpt lat="49.33473" lon="0.85993">
        <ele>135</ele>
        <time>2013-10-13T09:37:34Z</time>
      </trkpt>
      <trkpt lat="49.33477" lon="0.85953">
        <ele>135</ele>
        <time>2013-10-13T09:37:40Z</time>
      </trkpt>
      <trkpt lat="49.33482" lon="0.85923">
        <ele>135</ele>
        <time>2013-10-13T09:37:44Z</time>
      </trkpt>
      <trkpt lat="49.33478" lon="0.85892">
        <ele>133</ele>
        <time>2013-10-13T09:37:52Z</time>
      </trkpt>
      <trkpt lat="49.33481" lon="0.85859">
        <ele>132</ele>
        <time>2013-10-13T09:37:58Z</time>
      </trkpt>
      <trkpt lat="49.3349" lon="0.85823">
        <ele>131</ele>
        <time>2013-10-13T09:38:04Z</time>
      </trkpt>
      <trkpt lat="49.33497" lon="0.85795">
        <ele>129</ele>
        <time>2013-10-13T09:38:08Z</time>
      </trkpt>
      <trkpt lat="49.33499" lon="0.85753">
        <ele>129</ele>
        <time>2013-10-13T09:38:14Z</time>
      </trkpt>
      <trkpt lat="49.33502" lon="0.85723">
        <ele>132</ele>
        <time>2013-10-13T09:38:18Z</time>
      </trkpt>
      <trkpt lat="49.33506" lon="0.8569">
        <ele>131</ele>
        <time>2013-10-13T09:38:22Z</time>
      </trkpt>
      <trkpt lat="49.33516" lon="0.85651">
        <ele>131</ele>
        <time>2013-10-13T09:38:28Z</time>
      </trkpt>
      <trkpt lat="49.33517" lon="0.85609">
        <ele>131</ele>
        <time>2013-10-13T09:38:34Z</time>
      </trkpt>
      <trkpt lat="49.33514" lon="0.85581">
        <ele>131</ele>
        <time>2013-10-13T09:38:38Z</time>
      </trkpt>
      <trkpt lat="49.3352" lon="0.85544">
        <ele>132</ele>
        <time>2013-10-13T09:38:42Z</time>
      </trkpt>
      <trkpt lat="49.33525" lon="0.85511">
        <ele>133</ele>
        <time>2013-10-13T09:38:46Z</time>
      </trkpt>
      <trkpt lat="49.33535" lon="0.85476">
        <ele>133</ele>
        <time>2013-10-13T09:38:50Z</time>
      </trkpt>
      <trkpt lat="49.3354" lon="0.85444">
        <ele>133</ele>
        <time>2013-10-13T09:38:54Z</time>
      </trkpt>
      <trkpt lat="49.33548" lon="0.85411">
        <ele>132</ele>
        <time>2013-10-13T09:38:58Z</time>
      </trkpt>
      <trkpt lat="49.3355" lon="0.85375">
        <ele>132</ele>
        <time>2013-10-13T09:39:04Z</time>
      </trkpt>
      <trkpt lat="49.33559" lon="0.85345">
        <ele>132</ele>
        <time>2013-10-13T09:39:08Z</time>
      </trkpt>
      <trkpt lat="49.33556" lon="0.85316">
        <ele>133</ele>
        <time>2013-10-13T09:39:14Z</time>
      </trkpt>
      <trkpt lat="49.3356" lon="0.85288">
        <ele>133</ele>
        <time>2013-10-13T09:39:18Z</time>
      </trkpt>
      <trkpt lat="49.33565" lon="0.85256">
        <ele>134</ele>
        <time>2013-10-13T09:39:24Z</time>
      </trkpt>
      <trkpt lat="49.33571" lon="0.85226">
        <ele>134</ele>
        <time>2013-10-13T09:39:28Z</time>
      </trkpt>
      <trkpt lat="49.33576" lon="0.85192">
        <ele>133</ele>
        <time>2013-10-13T09:39:34Z</time>
      </trkpt>
      <trkpt lat="49.33574" lon="0.85163">
        <ele>132</ele>
        <time>2013-10-13T09:39:38Z</time>
      </trkpt>
      <trkpt lat="49.33583" lon="0.85122">
        <ele>131</ele>
        <time>2013-10-13T09:39:42Z</time>
      </trkpt>
      <trkpt lat="49.33592" lon="0.8509">
        <ele>128</ele>
        <time>2013-10-13T09:39:46Z</time>
      </trkpt>
      <trkpt lat="49.33595" lon="0.85058">
        <ele>124</ele>
        <time>2013-10-13T09:39:50Z</time>
      </trkpt>
      <trkpt lat="49.33601" lon="0.85019">
        <ele>121</ele>
        <time>2013-10-13T09:39:54Z</time>
      </trkpt>
      <trkpt lat="49.33609" lon="0.84983">
        <ele>117</ele>
        <time>2013-10-13T09:39:58Z</time>
      </trkpt>
      <trkpt lat="49.33617" lon="0.84949">
        <ele>117</ele>
        <time>2013-10-13T09:40:02Z</time>
      </trkpt>
      <trkpt lat="49.33624" lon="0.8491">
        <ele>115</ele>
        <time>2013-10-13T09:40:06Z</time>
      </trkpt>
      <trkpt lat="49.33626" lon="0.84879">
        <ele>115</ele>
        <time>2013-10-13T09:40:10Z</time>
      </trkpt>
      <trkpt lat="49.33606" lon="0.8485">
        <ele>115</ele>
        <time>2013-10-13T09:40:16Z</time>
      </trkpt>
      <trkpt lat="49.33587" lon="0.8484">
        <ele>116</ele>
        <time>2013-10-13T09:40:26Z</time>
      </trkpt>
      <trkpt lat="49.3357" lon="0.84861">
        <ele>117</ele>
        <time>2013-10-13T09:40:34Z</time>
      </trkpt>
      <trkpt lat="49.33552" lon="0.84885">
        <ele>117</ele>
        <time>2013-10-13T09:40:42Z</time>
      </trkpt>
      <trkpt lat="49.33537" lon="0.84911">
        <ele>116</ele>
        <time>2013-10-13T09:40:48Z</time>
      </trkpt>
      <trkpt lat="49.33524" lon="0.84941">
        <ele>116</ele>
        <time>2013-10-13T09:40:56Z</time>
      </trkpt>
      <trkpt lat="49.33506" lon="0.84967">
        <ele>116</ele>
        <time>2013-10-13T09:41:02Z</time>
      </trkpt>
      <trkpt lat="49.33488" lon="0.84999">
        <ele>117</ele>
        <time>2013-10-13T09:41:08Z</time>
      </trkpt>
      <trkpt lat="49.33482" lon="0.85039">
        <ele>119</ele>
        <time>2013-10-13T09:41:14Z</time>
      </trkpt>
      <trkpt lat="49.33472" lon="0.85061">
        <ele>120</ele>
        <time>2013-10-13T09:41:18Z</time>
      </trkpt>
      <trkpt lat="49.33458" lon="0.85081">
        <ele>120</ele>
        <time>2013-10-13T09:41:22Z</time>
      </trkpt>
      <trkpt lat="49.33442" lon="0.85102">
        <ele>123</ele>
        <time>2013-10-13T09:41:26Z</time>
      </trkpt>
      <trkpt lat="49.33422" lon="0.85126">
        <ele>124</ele>
        <time>2013-10-13T09:41:30Z</time>
      </trkpt>
      <trkpt lat="49.33404" lon="0.85151">
        <ele>123</ele>
        <time>2013-10-13T09:41:34Z</time>
      </trkpt>
      <trkpt lat="49.33387" lon="0.85174">
        <ele>123</ele>
        <time>2013-10-13T09:41:38Z</time>
      </trkpt>
      <trkpt lat="49.3337" lon="0.85198">
        <ele>122</ele>
        <time>2013-10-13T09:41:42Z</time>
      </trkpt>
      <trkpt lat="49.33355" lon="0.85214">
        <ele>122</ele>
        <time>2013-10-13T09:41:46Z</time>
      </trkpt>
      <trkpt lat="49.33338" lon="0.85237">
        <ele>121</ele>
        <time>2013-10-13T09:41:50Z</time>
      </trkpt>
      <trkpt lat="49.33321" lon="0.85256">
        <ele>120</ele>
        <time>2013-10-13T09:41:56Z</time>
      </trkpt>
      <trkpt lat="49.33298" lon="0.8526">
        <ele>119</ele>
        <time>2013-10-13T09:42:02Z</time>
      </trkpt>
      <trkpt lat="49.33275" lon="0.85265">
        <ele>118</ele>
        <time>2013-10-13T09:42:08Z</time>
      </trkpt>
      <trkpt lat="49.33245" lon="0.85265">
        <ele>113</ele>
        <time>2013-10-13T09:42:12Z</time>
      </trkpt>
      <trkpt lat="49.33223" lon="0.8527">
        <ele>113</ele>
        <time>2013-10-13T09:42:16Z</time>
      </trkpt>
      <trkpt lat="49.33201" lon="0.85268">
        <ele>111</ele>
        <time>2013-10-13T09:42:20Z</time>
      </trkpt>
      <trkpt lat="49.33179" lon="0.85272">
        <ele>110</ele>
        <time>2013-10-13T09:42:24Z</time>
      </trkpt>
      <trkpt lat="49.33158" lon="0.8526">
        <ele>108</ele>
        <time>2013-10-13T09:42:30Z</time>
      </trkpt>
      <trkpt lat="49.33136" lon="0.85252">
        <ele>109</ele>
        <time>2013-10-13T09:42:36Z</time>
      </trkpt>
      <trkpt lat="49.33117" lon="0.85242">
        <ele>110</ele>
        <time>2013-10-13T09:42:42Z</time>
      </trkpt>
      <trkpt lat="49.33095" lon="0.85235">
        <ele>111</ele>
        <time>2013-10-13T09:42:50Z</time>
      </trkpt>
      <trkpt lat="49.33076" lon="0.8523">
        <ele>113</ele>
        <time>2013-10-13T09:43:00Z</time>
      </trkpt>
      <trkpt lat="49.33056" lon="0.85223">
        <ele>113</ele>
        <time>2013-10-13T09:43:06Z</time>
      </trkpt>
      <trkpt lat="49.33038" lon="0.85217">
        <ele>113</ele>
        <time>2013-10-13T09:43:12Z</time>
      </trkpt>
      <trkpt lat="49.33019" lon="0.85213">
        <ele>113</ele>
        <time>2013-10-13T09:43:16Z</time>
      </trkpt>
      <trkpt lat="49.32995" lon="0.8521">
        <ele>114</ele>
        <time>2013-10-13T09:43:22Z</time>
      </trkpt>
      <trkpt lat="49.32977" lon="0.8519">
        <ele>115</ele>
        <time>2013-10-13T09:43:30Z</time>
      </trkpt>
      <trkpt lat="49.32956" lon="0.85173">
        <ele>115</ele>
        <time>2013-10-13T09:43:38Z</time>
      </trkpt>
      <trkpt lat="49.32935" lon="0.85157">
        <ele>116</ele>
        <time>2013-10-13T09:43:44Z</time>
      </trkpt>
      <trkpt lat="49.32917" lon="0.85139">
        <ele>119</ele>
        <time>2013-10-13T09:43:52Z</time>
      </trkpt>
      <trkpt lat="49.32898" lon="0.85115">
        <ele>120</ele>
        <time>2013-10-13T09:44:00Z</time>
      </trkpt>
      <trkpt lat="49.32879" lon="0.851">
        <ele>120</ele>
        <time>2013-10-13T09:44:10Z</time>
      </trkpt>
      <trkpt lat="49.32859" lon="0.85093">
        <ele>121</ele>
        <time>2013-10-13T09:44:18Z</time>
      </trkpt>
      <trkpt lat="49.32842" lon="0.85082">
        <ele>122</ele>
        <time>2013-10-13T09:44:24Z</time>
      </trkpt>
      <trkpt lat="49.32828" lon="0.85065">
        <ele>126</ele>
        <time>2013-10-13T09:44:32Z</time>
      </trkpt>
      <trkpt lat="49.32819" lon="0.8504">
        <ele>128</ele>
        <time>2013-10-13T09:44:44Z</time>
      </trkpt>
      <trkpt lat="49.32826" lon="0.85009">
        <ele>127</ele>
        <time>2013-10-13T09:44:52Z</time>
      </trkpt>
      <trkpt lat="49.32834" lon="0.84983">
        <ele>125</ele>
        <time>2013-10-13T09:45:02Z</time>
      </trkpt>
      <trkpt lat="49.32831" lon="0.84955">
        <ele>130</ele>
        <time>2013-10-13T09:45:12Z</time>
      </trkpt>
      <trkpt lat="49.3283" lon="0.84928">
        <ele>130</ele>
        <time>2013-10-13T09:45:20Z</time>
      </trkpt>
      <trkpt lat="49.32836" lon="0.84895">
        <ele>127</ele>
        <time>2013-10-13T09:45:26Z</time>
      </trkpt>
      <trkpt lat="49.32842" lon="0.84862">
        <ele>126</ele>
        <time>2013-10-13T09:45:34Z</time>
      </trkpt>
      <trkpt lat="49.32849" lon="0.84825">
        <ele>126</ele>
        <time>2013-10-13T09:45:38Z</time>
      </trkpt>
      <trkpt lat="49.32857" lon="0.8479">
        <ele>124</ele>
        <time>2013-10-13T09:45:42Z</time>
      </trkpt>
      <trkpt lat="49.32863" lon="0.84761">
        <ele>124</ele>
        <time>2013-10-13T09:45:48Z</time>
      </trkpt>
      <trkpt lat="49.32868" lon="0.84733">
        <ele>124</ele>
        <time>2013-10-13T09:45:52Z</time>
      </trkpt>
      <trkpt lat="49.32874" lon="0.84697">
        <ele>124</ele>
        <time>2013-10-13T09:45:58Z</time>
      </trkpt>
      <trkpt lat="49.32876" lon="0.84659">
        <ele>127</ele>
        <time>2013-10-13T09:46:04Z</time>
      </trkpt>
      <trkpt lat="49.32879" lon="0.84624">
        <ele>127</ele>
        <time>2013-10-13T09:46:10Z</time>
      </trkpt>
      <trkpt lat="49.32889" lon="0.84599">
        <ele>127</ele>
        <time>2013-10-13T09:46:18Z</time>
      </trkpt>
      <trkpt lat="49.32897" lon="0.84572">
        <ele>129</ele>
        <time>2013-10-13T09:46:24Z</time>
      </trkpt>
      <trkpt lat="49.329" lon="0.84543">
        <ele>129</ele>
        <time>2013-10-13T09:46:30Z</time>
      </trkpt>
      <trkpt lat="49.32898" lon="0.84514">
        <ele>130</ele>
        <time>2013-10-13T09:46:36Z</time>
      </trkpt>
      <trkpt lat="49.32902" lon="0.84479">
        <ele>131</ele>
        <time>2013-10-13T09:46:42Z</time>
      </trkpt>
      <trkpt lat="49.32906" lon="0.84447">
        <ele>131</ele>
        <time>2013-10-13T09:46:50Z</time>
      </trkpt>
      <trkpt lat="49.32915" lon="0.84417">
        <ele>133</ele>
        <time>2013-10-13T09:46:56Z</time>
      </trkpt>
      <trkpt lat="49.32925" lon="0.84387">
        <ele>127</ele>
        <time>2013-10-13T09:47:02Z</time>
      </trkpt>
      <trkpt lat="49.32933" lon="0.84361">
        <ele>126</ele>
        <time>2013-10-13T09:47:08Z</time>
      </trkpt>
      <trkpt lat="49.32941" lon="0.84322">
        <ele>125</ele>
        <time>2013-10-13T09:47:14Z</time>
      </trkpt>
      <trkpt lat="49.32948" lon="0.84288">
        <ele>123</ele>
        <time>2013-10-13T09:47:20Z</time>
      </trkpt>
      <trkpt lat="49.32946" lon="0.84237">
        <ele>125</ele>
        <time>2013-10-13T09:47:24Z</time>
      </trkpt>
      <trkpt lat="49.32938" lon="0.84208">
        <ele>125</ele>
        <time>2013-10-13T09:47:30Z</time>
      </trkpt>
      <trkpt lat="49.32918" lon="0.84203">
        <ele>126</ele>
        <time>2013-10-13T09:47:48Z</time>
      </trkpt>
      <trkpt lat="49.32895" lon="0.84201">
        <ele>130</ele>
        <time>2013-10-13T09:47:56Z</time>
      </trkpt>
      <trkpt lat="49.32879" lon="0.8422">
        <ele>130</ele>
        <time>2013-10-13T09:48:02Z</time>
      </trkpt>
      <trkpt lat="49.32862" lon="0.8424">
        <ele>131</ele>
        <time>2013-10-13T09:48:10Z</time>
      </trkpt>
      <trkpt lat="49.32845" lon="0.8425">
        <ele>131</ele>
        <time>2013-10-13T09:48:16Z</time>
      </trkpt>
      <trkpt lat="49.32818" lon="0.84259">
        <ele>131</ele>
        <time>2013-10-13T09:48:22Z</time>
      </trkpt>
      <trkpt lat="49.32798" lon="0.84263">
        <ele>131</ele>
        <time>2013-10-13T09:48:26Z</time>
      </trkpt>
      <trkpt lat="49.3278" lon="0.84279">
        <ele>131</ele>
        <time>2013-10-13T09:48:32Z</time>
      </trkpt>
      <trkpt lat="49.32764" lon="0.84298">
        <ele>131</ele>
        <time>2013-10-13T09:48:38Z</time>
      </trkpt>
      <trkpt lat="49.3275" lon="0.84322">
        <ele>129</ele>
        <time>2013-10-13T09:48:44Z</time>
      </trkpt>
      <trkpt lat="49.32731" lon="0.84341">
        <ele>128</ele>
        <time>2013-10-13T09:48:52Z</time>
      </trkpt>
      <trkpt lat="49.32712" lon="0.84359">
        <ele>127</ele>
        <time>2013-10-13T09:48:56Z</time>
      </trkpt>
      <trkpt lat="49.32698" lon="0.84379">
        <ele>126</ele>
        <time>2013-10-13T09:49:00Z</time>
      </trkpt>
      <trkpt lat="49.3268" lon="0.84394">
        <ele>126</ele>
        <time>2013-10-13T09:49:06Z</time>
      </trkpt>
      <trkpt lat="49.32661" lon="0.84401">
        <ele>124</ele>
        <time>2013-10-13T09:49:14Z</time>
      </trkpt>
      <trkpt lat="49.32638" lon="0.84415">
        <ele>123</ele>
        <time>2013-10-13T09:49:22Z</time>
      </trkpt>
      <trkpt lat="49.32616" lon="0.84412">
        <ele>121</ele>
        <time>2013-10-13T09:49:28Z</time>
      </trkpt>
      <trkpt lat="49.32592" lon="0.84418">
        <ele>121</ele>
        <time>2013-10-13T09:49:34Z</time>
      </trkpt>
      <trkpt lat="49.3257" lon="0.84428">
        <ele>119</ele>
        <time>2013-10-13T09:49:38Z</time>
      </trkpt>
      <trkpt lat="49.32549" lon="0.84434">
        <ele>119</ele>
        <time>2013-10-13T09:49:42Z</time>
      </trkpt>
      <trkpt lat="49.32527" lon="0.84437">
        <ele>118</ele>
        <time>2013-10-13T09:49:46Z</time>
      </trkpt>
      <trkpt lat="49.325" lon="0.84443">
        <ele>115</ele>
        <time>2013-10-13T09:49:50Z</time>
      </trkpt>
      <trkpt lat="49.32484" lon="0.84457">
        <ele>115</ele>
        <time>2013-10-13T09:49:52Z</time>
      </trkpt>
      <trkpt lat="49.32471" lon="0.84484">
        <ele>115</ele>
        <time>2013-10-13T09:49:56Z</time>
      </trkpt>
      <trkpt lat="49.32457" lon="0.84518">
        <ele>115</ele>
        <time>2013-10-13T09:50:02Z</time>
      </trkpt>
      <trkpt lat="49.32448" lon="0.84549">
        <ele>115</ele>
        <time>2013-10-13T09:50:06Z</time>
      </trkpt>
      <trkpt lat="49.32451" lon="0.8458">
        <ele>115</ele>
        <time>2013-10-13T09:50:14Z</time>
      </trkpt>
      <trkpt lat="49.32456" lon="0.84614">
        <ele>116</ele>
        <time>2013-10-13T09:50:22Z</time>
      </trkpt>
      <trkpt lat="49.32462" lon="0.84646">
        <ele>116</ele>
        <time>2013-10-13T09:50:32Z</time>
      </trkpt>
      <trkpt lat="49.32465" lon="0.84677">
        <ele>118</ele>
        <time>2013-10-13T09:50:40Z</time>
      </trkpt>
      <trkpt lat="49.32466" lon="0.84713">
        <ele>119</ele>
        <time>2013-10-13T09:50:48Z</time>
      </trkpt>
      <trkpt lat="49.32469" lon="0.84743">
        <ele>119</ele>
        <time>2013-10-13T09:50:54Z</time>
      </trkpt>
      <trkpt lat="49.3247" lon="0.84771">
        <ele>121</ele>
        <time>2013-10-13T09:51:00Z</time>
      </trkpt>
      <trkpt lat="49.32466" lon="0.848">
        <ele>120</ele>
        <time>2013-10-13T09:51:06Z</time>
      </trkpt>
      <trkpt lat="49.32462" lon="0.8483">
        <ele>120</ele>
        <time>2013-10-13T09:51:12Z</time>
      </trkpt>
      <trkpt lat="49.32456" lon="0.8486">
        <ele>120</ele>
        <time>2013-10-13T09:51:18Z</time>
      </trkpt>
      <trkpt lat="49.32471" lon="0.84877">
        <ele>120</ele>
        <time>2013-10-13T09:51:34Z</time>
      </trkpt>
      <trkpt lat="49.32467" lon="0.84906">
        <ele>120</ele>
        <time>2013-10-13T09:51:46Z</time>
      </trkpt>
      <trkpt lat="49.32449" lon="0.84932">
        <ele>120</ele>
        <time>2013-10-13T09:51:54Z</time>
      </trkpt>
      <trkpt lat="49.32439" lon="0.84956">
        <ele>120</ele>
        <time>2013-10-13T09:51:58Z</time>
      </trkpt>
      <trkpt lat="49.32431" lon="0.84985">
        <ele>119</ele>
        <time>2013-10-13T09:52:06Z</time>
      </trkpt>
      <trkpt lat="49.32452" lon="0.84995">
        <ele>121</ele>
        <time>2013-10-13T09:52:16Z</time>
      </trkpt>
      <trkpt lat="49.32473" lon="0.8499">
        <ele>123</ele>
        <time>2013-10-13T09:52:24Z</time>
      </trkpt>
      <trkpt lat="49.32492" lon="0.84992">
        <ele>125</ele>
        <time>2013-10-13T09:52:32Z</time>
      </trkpt>
      <trkpt lat="49.32515" lon="0.85007">
        <ele>129</ele>
        <time>2013-10-13T09:52:42Z</time>
      </trkpt>
      <trkpt lat="49.32532" lon="0.8502">
        <ele>130</ele>
        <time>2013-10-13T09:52:50Z</time>
      </trkpt>
      <trkpt lat="49.32551" lon="0.85026">
        <ele>130</ele>
        <time>2013-10-13T09:52:58Z</time>
      </trkpt>
      <trkpt lat="49.32573" lon="0.85031">
        <ele>130</ele>
        <time>2013-10-13T09:53:06Z</time>
      </trkpt>
      <trkpt lat="49.32591" lon="0.85036">
        <ele>131</ele>
        <time>2013-10-13T09:53:14Z</time>
      </trkpt>
      <trkpt lat="49.3261" lon="0.85049">
        <ele>131</ele>
        <time>2013-10-13T09:53:22Z</time>
      </trkpt>
      <trkpt lat="49.32633" lon="0.85054">
        <ele>131</ele>
        <time>2013-10-13T09:53:30Z</time>
      </trkpt>
      <trkpt lat="49.32654" lon="0.85064">
        <ele>132</ele>
        <time>2013-10-13T09:53:38Z</time>
      </trkpt>
      <trkpt lat="49.32667" lon="0.85084">
        <ele>132</ele>
        <time>2013-10-13T09:53:44Z</time>
      </trkpt>
      <trkpt lat="49.3267" lon="0.85122">
        <ele>131</ele>
        <time>2013-10-13T09:53:50Z</time>
      </trkpt>
      <trkpt lat="49.32676" lon="0.85157">
        <ele>130</ele>
        <time>2013-10-13T09:53:56Z</time>
      </trkpt>
      <trkpt lat="49.32679" lon="0.85185">
        <ele>129</ele>
        <time>2013-10-13T09:54:00Z</time>
      </trkpt>
      <trkpt lat="49.32679" lon="0.85214">
        <ele>129</ele>
        <time>2013-10-13T09:54:04Z</time>
      </trkpt>
      <trkpt lat="49.32674" lon="0.85241">
        <ele>129</ele>
        <time>2013-10-13T09:54:08Z</time>
      </trkpt>
      <trkpt lat="49.32667" lon="0.85272">
        <ele>127</ele>
        <time>2013-10-13T09:54:14Z</time>
      </trkpt>
      <trkpt lat="49.32667" lon="0.85304">
        <ele>127</ele>
        <time>2013-10-13T09:54:20Z</time>
      </trkpt>
      <trkpt lat="49.32669" lon="0.85343">
        <ele>127</ele>
        <time>2013-10-13T09:54:26Z</time>
      </trkpt>
      <trkpt lat="49.32671" lon="0.85371">
        <ele>126</ele>
        <time>2013-10-13T09:54:32Z</time>
      </trkpt>
      <trkpt lat="49.32672" lon="0.85402">
        <ele>127</ele>
        <time>2013-10-13T09:54:38Z</time>
      </trkpt>
      <trkpt lat="49.32672" lon="0.85431">
        <ele>128</ele>
        <time>2013-10-13T09:54:44Z</time>
      </trkpt>
      <trkpt lat="49.32683" lon="0.85463">
        <ele>127</ele>
        <time>2013-10-13T09:54:52Z</time>
      </trkpt>
      <trkpt lat="49.32693" lon="0.85498">
        <ele>128</ele>
        <time>2013-10-13T09:54:58Z</time>
      </trkpt>
      <trkpt lat="49.32698" lon="0.85531">
        <ele>128</ele>
        <time>2013-10-13T09:55:04Z</time>
      </trkpt>
      <trkpt lat="49.32697" lon="0.85563">
        <ele>128</ele>
        <time>2013-10-13T09:55:10Z</time>
      </trkpt>
      <trkpt lat="49.32683" lon="0.85594">
        <ele>130</ele>
        <time>2013-10-13T09:55:18Z</time>
      </trkpt>
      <trkpt lat="49.3267" lon="0.85616">
        <ele>130</ele>
        <time>2013-10-13T09:55:24Z</time>
      </trkpt>
      <trkpt lat="49.32658" lon="0.85641">
        <ele>130</ele>
        <time>2013-10-13T09:55:30Z</time>
      </trkpt>
      <trkpt lat="49.32654" lon="0.85678">
        <ele>130</ele>
        <time>2013-10-13T09:55:38Z</time>
      </trkpt>
      <trkpt lat="49.32649" lon="0.85704">
        <ele>129</ele>
        <time>2013-10-13T09:55:44Z</time>
      </trkpt>
      <trkpt lat="49.32639" lon="0.85731">
        <ele>129</ele>
        <time>2013-10-13T09:55:50Z</time>
      </trkpt>
      <trkpt lat="49.32631" lon="0.85756">
        <ele>129</ele>
        <time>2013-10-13T09:55:54Z</time>
      </trkpt>
      <trkpt lat="49.32622" lon="0.85787">
        <ele>129</ele>
        <time>2013-10-13T09:56:00Z</time>
      </trkpt>
      <trkpt lat="49.32612" lon="0.85814">
        <ele>129</ele>
        <time>2013-10-13T09:56:06Z</time>
      </trkpt>
      <trkpt lat="49.32606" lon="0.85846">
        <ele>128</ele>
        <time>2013-10-13T09:56:12Z</time>
      </trkpt>
      <trkpt lat="49.32594" lon="0.85883">
        <ele>128</ele>
        <time>2013-10-13T09:56:18Z</time>
      </trkpt>
      <trkpt lat="49.32592" lon="0.85918">
        <ele>125</ele>
        <time>2013-10-13T09:56:24Z</time>
      </trkpt>
      <trkpt lat="49.32593" lon="0.8595">
        <ele>123</ele>
        <time>2013-10-13T09:56:28Z</time>
      </trkpt>
      <trkpt lat="49.32584" lon="0.85975">
        <ele>121</ele>
        <time>2013-10-13T09:56:32Z</time>
      </trkpt>
      <trkpt lat="49.32575" lon="0.86001">
        <ele>115</ele>
        <time>2013-10-13T09:56:38Z</time>
      </trkpt>
      <trkpt lat="49.32574" lon="0.86029">
        <ele>111</ele>
        <time>2013-10-13T09:56:46Z</time>
      </trkpt>
      <trkpt lat="49.32592" lon="0.86036">
        <ele>116</ele>
        <time>2013-10-13T09:56:54Z</time>
      </trkpt>
      <trkpt lat="49.32608" lon="0.86052">
        <ele>115</ele>
        <time>2013-10-13T09:57:02Z</time>
      </trkpt>
      <trkpt lat="49.32631" lon="0.86063">
        <ele>116</ele>
        <time>2013-10-13T09:57:12Z</time>
      </trkpt>
      <trkpt lat="49.32649" lon="0.86067">
        <ele>117</ele>
        <time>2013-10-13T09:57:18Z</time>
      </trkpt>
      <trkpt lat="49.32664" lon="0.86085">
        <ele>117</ele>
        <time>2013-10-13T09:57:26Z</time>
      </trkpt>
      <trkpt lat="49.32682" lon="0.861">
        <ele>114</ele>
        <time>2013-10-13T09:57:32Z</time>
      </trkpt>
      <trkpt lat="49.32703" lon="0.86118">
        <ele>112</ele>
        <time>2013-10-13T09:57:38Z</time>
      </trkpt>
      <trkpt lat="49.32723" lon="0.86134">
        <ele>111</ele>
        <time>2013-10-13T09:57:44Z</time>
      </trkpt>
      <trkpt lat="49.32742" lon="0.86153">
        <ele>109</ele>
        <time>2013-10-13T09:57:50Z</time>
      </trkpt>
      <trkpt lat="49.32761" lon="0.8616">
        <ele>108</ele>
        <time>2013-10-13T09:57:58Z</time>
      </trkpt>
      <trkpt lat="49.32782" lon="0.86169">
        <ele>104</ele>
        <time>2013-10-13T09:58:04Z</time>
      </trkpt>
      <trkpt lat="49.32805" lon="0.86185">
        <ele>104</ele>
        <time>2013-10-13T09:58:08Z</time>
      </trkpt>
      <trkpt lat="49.32822" lon="0.86195">
        <ele>104</ele>
        <time>2013-10-13T09:58:14Z</time>
      </trkpt>
      <trkpt lat="49.3283" lon="0.86225">
        <ele>103</ele>
        <time>2013-10-13T09:58:28Z</time>
      </trkpt>
      <trkpt lat="49.32819" lon="0.86257">
        <ele>101</ele>
        <time>2013-10-13T09:58:52Z</time>
      </trkpt>
      <trkpt lat="49.32807" lon="0.8628">
        <ele>101</ele>
        <time>2013-10-13T09:59:10Z</time>
      </trkpt>
      <trkpt lat="49.32788" lon="0.86291">
        <ele>101</ele>
        <time>2013-10-13T09:59:22Z</time>
      </trkpt>
      <trkpt lat="49.32768" lon="0.86294">
        <ele>100</ele>
        <time>2013-10-13T09:59:28Z</time>
      </trkpt>
      <trkpt lat="49.32746" lon="0.86296">
        <ele>100</ele>
        <time>2013-10-13T09:59:32Z</time>
      </trkpt>
      <trkpt lat="49.32723" lon="0.86295">
        <ele>100</ele>
        <time>2013-10-13T09:59:38Z</time>
      </trkpt>
      <trkpt lat="49.32703" lon="0.8629">
        <ele>100</ele>
        <time>2013-10-13T09:59:44Z</time>
      </trkpt>
      <trkpt lat="49.32681" lon="0.86284">
        <ele>100</ele>
        <time>2013-10-13T09:59:50Z</time>
      </trkpt>
      <trkpt lat="49.32661" lon="0.86282">
        <ele>102</ele>
        <time>2013-10-13T09:59:54Z</time>
      </trkpt>
      <trkpt lat="49.32634" lon="0.86264">
        <ele>101</ele>
        <time>2013-10-13T10:00:00Z</time>
      </trkpt>
      <trkpt lat="49.32615" lon="0.86251">
        <ele>101</ele>
        <time>2013-10-13T10:00:06Z</time>
      </trkpt>
      <trkpt lat="49.32605" lon="0.86225">
        <ele>100</ele>
        <time>2013-10-13T10:00:12Z</time>
      </trkpt>
      <trkpt lat="49.32583" lon="0.86207">
        <ele>101</ele>
        <time>2013-10-13T10:00:18Z</time>
      </trkpt>
      <trkpt lat="49.32565" lon="0.86189">
        <ele>101</ele>
        <time>2013-10-13T10:00:24Z</time>
      </trkpt>
      <trkpt lat="49.32545" lon="0.86182">
        <ele>100</ele>
        <time>2013-10-13T10:00:28Z</time>
      </trkpt>
      <trkpt lat="49.32523" lon="0.86171">
        <ele>99</ele>
        <time>2013-10-13T10:00:32Z</time>
      </trkpt>
      <trkpt lat="49.32502" lon="0.86167">
        <ele>95</ele>
        <time>2013-10-13T10:00:36Z</time>
      </trkpt>
      <trkpt lat="49.32483" lon="0.86164">
        <ele>97</ele>
        <time>2013-10-13T10:00:40Z</time>
      </trkpt>
      <trkpt lat="49.32459" lon="0.86169">
        <ele>100</ele>
        <time>2013-10-13T10:00:46Z</time>
      </trkpt>
      <trkpt lat="49.32436" lon="0.86199">
        <ele>101</ele>
        <time>2013-10-13T10:00:50Z</time>
      </trkpt>
      <trkpt lat="49.32409" lon="0.86225">
        <ele>101</ele>
        <time>2013-10-13T10:00:54Z</time>
      </trkpt>
      <trkpt lat="49.32393" lon="0.86245">
        <ele>102</ele>
        <time>2013-10-13T10:00:58Z</time>
      </trkpt>
      <trkpt lat="49.3238" lon="0.86267">
        <ele>102</ele>
        <time>2013-10-13T10:01:02Z</time>
      </trkpt>
      <trkpt lat="49.3237" lon="0.86294">
        <ele>102</ele>
        <time>2013-10-13T10:01:06Z</time>
      </trkpt>
      <trkpt lat="49.32362" lon="0.86319">
        <ele>102</ele>
        <time>2013-10-13T10:01:10Z</time>
      </trkpt>
      <trkpt lat="49.32352" lon="0.86356">
        <ele>105</ele>
        <time>2013-10-13T10:01:16Z</time>
      </trkpt>
      <trkpt lat="49.32343" lon="0.86381">
        <ele>107</ele>
        <time>2013-10-13T10:01:20Z</time>
      </trkpt>
      <trkpt lat="49.32333" lon="0.86408">
        <ele>104</ele>
        <time>2013-10-13T10:01:24Z</time>
      </trkpt>
      <trkpt lat="49.32323" lon="0.86432">
        <ele>106</ele>
        <time>2013-10-13T10:01:28Z</time>
      </trkpt>
      <trkpt lat="49.32307" lon="0.86452">
        <ele>105</ele>
        <time>2013-10-13T10:01:34Z</time>
      </trkpt>
      <trkpt lat="49.32299" lon="0.86483">
        <ele>106</ele>
        <time>2013-10-13T10:01:40Z</time>
      </trkpt>
      <trkpt lat="49.32298" lon="0.86513">
        <ele>108</ele>
        <time>2013-10-13T10:01:46Z</time>
      </trkpt>
      <trkpt lat="49.32299" lon="0.86546">
        <ele>107</ele>
        <time>2013-10-13T10:01:56Z</time>
      </trkpt>
      <trkpt lat="49.32306" lon="0.86579">
        <ele>108</ele>
        <time>2013-10-13T10:02:02Z</time>
      </trkpt>
      <trkpt lat="49.32316" lon="0.86616">
        <ele>106</ele>
        <time>2013-10-13T10:02:08Z</time>
      </trkpt>
      <trkpt lat="49.3232" lon="0.86646">
        <ele>106</ele>
        <time>2013-10-13T10:02:12Z</time>
      </trkpt>
      <trkpt lat="49.3232" lon="0.86684">
        <ele>106</ele>
        <time>2013-10-13T10:02:18Z</time>
      </trkpt>
      <trkpt lat="49.32322" lon="0.86714">
        <ele>105</ele>
        <time>2013-10-13T10:02:22Z</time>
      </trkpt>
      <trkpt lat="49.32323" lon="0.86748">
        <ele>107</ele>
        <time>2013-10-13T10:02:30Z</time>
      </trkpt>
      <trkpt lat="49.32321" lon="0.86783">
        <ele>106</ele>
        <time>2013-10-13T10:02:38Z</time>
      </trkpt>
      <trkpt lat="49.32332" lon="0.86814">
        <ele>106</ele>
        <time>2013-10-13T10:02:44Z</time>
      </trkpt>
      <trkpt lat="49.32344" lon="0.86837">
        <ele>108</ele>
        <time>2013-10-13T10:02:48Z</time>
      </trkpt>
      <trkpt lat="49.3236" lon="0.8687">
        <ele>109</ele>
        <time>2013-10-13T10:02:54Z</time>
      </trkpt>
      <trkpt lat="49.32372" lon="0.86902">
        <ele>109</ele>
        <time>2013-10-13T10:03:00Z</time>
      </trkpt>
      <trkpt lat="49.32376" lon="0.86934">
        <ele>108</ele>
        <time>2013-10-13T10:03:04Z</time>
      </trkpt>
      <trkpt lat="49.32377" lon="0.86969">
        <ele>108</ele>
        <time>2013-10-13T10:03:08Z</time>
      </trkpt>
      <trkpt lat="49.3238" lon="0.87002">
        <ele>109</ele>
        <time>2013-10-13T10:03:12Z</time>
      </trkpt>
      <trkpt lat="49.32368" lon="0.87028">
        <ele>109</ele>
        <time>2013-10-13T10:03:20Z</time>
      </trkpt>
      <trkpt lat="49.32353" lon="0.87048">
        <ele>109</ele>
        <time>2013-10-13T10:03:28Z</time>
      </trkpt>
      <trkpt lat="49.32334" lon="0.87073">
        <ele>108</ele>
        <time>2013-10-13T10:03:36Z</time>
      </trkpt>
      <trkpt lat="49.32314" lon="0.87095">
        <ele>107</ele>
        <time>2013-10-13T10:03:42Z</time>
      </trkpt>
      <trkpt lat="49.32302" lon="0.87115">
        <ele>107</ele>
        <time>2013-10-13T10:03:48Z</time>
      </trkpt>
      <trkpt lat="49.3229" lon="0.87146">
        <ele>107</ele>
        <time>2013-10-13T10:03:54Z</time>
      </trkpt>
      <trkpt lat="49.3228" lon="0.87176">
        <ele>108</ele>
        <time>2013-10-13T10:04:00Z</time>
      </trkpt>
      <trkpt lat="49.32276" lon="0.87205">
        <ele>109</ele>
        <time>2013-10-13T10:04:04Z</time>
      </trkpt>
      <trkpt lat="49.32274" lon="0.87241">
        <ele>109</ele>
        <time>2013-10-13T10:04:10Z</time>
      </trkpt>
      <trkpt lat="49.32267" lon="0.87276">
        <ele>110</ele>
        <time>2013-10-13T10:04:16Z</time>
      </trkpt>
      <trkpt lat="49.32258" lon="0.87308">
        <ele>110</ele>
        <time>2013-10-13T10:04:22Z</time>
      </trkpt>
      <trkpt lat="49.32251" lon="0.87339">
        <ele>110</ele>
        <time>2013-10-13T10:04:30Z</time>
      </trkpt>
      <trkpt lat="49.32235" lon="0.87366">
        <ele>110</ele>
        <time>2013-10-13T10:04:36Z</time>
      </trkpt>
      <trkpt lat="49.32223" lon="0.87386">
        <ele>111</ele>
        <time>2013-10-13T10:04:42Z</time>
      </trkpt>
      <trkpt lat="49.32211" lon="0.87412">
        <ele>111</ele>
        <time>2013-10-13T10:04:48Z</time>
      </trkpt>
      <trkpt lat="49.32197" lon="0.87431">
        <ele>115</ele>
        <time>2013-10-13T10:04:54Z</time>
      </trkpt>
      <trkpt lat="49.32174" lon="0.87454">
        <ele>116</ele>
        <time>2013-10-13T10:05:00Z</time>
      </trkpt>
      <trkpt lat="49.32159" lon="0.87484">
        <ele>114</ele>
        <time>2013-10-13T10:05:06Z</time>
      </trkpt>
      <trkpt lat="49.32149" lon="0.87514">
        <ele>117</ele>
        <time>2013-10-13T10:05:10Z</time>
      </trkpt>
      <trkpt lat="49.32135" lon="0.87535">
        <ele>116</ele>
        <time>2013-10-13T10:05:16Z</time>
      </trkpt>
      <trkpt lat="49.32127" lon="0.87564">
        <ele>117</ele>
        <time>2013-10-13T10:05:24Z</time>
      </trkpt>
      <trkpt lat="49.32121" lon="0.87592">
        <ele>119</ele>
        <time>2013-10-13T10:05:32Z</time>
      </trkpt>
      <trkpt lat="49.32103" lon="0.87603">
        <ele>118</ele>
        <time>2013-10-13T10:05:40Z</time>
      </trkpt>
      <trkpt lat="49.32084" lon="0.87612">
        <ele>117</ele>
        <time>2013-10-13T10:05:50Z</time>
      </trkpt>
      <trkpt lat="49.32067" lon="0.87598">
        <ele>111</ele>
        <time>2013-10-13T10:06:10Z</time>
      </trkpt>
      <trkpt lat="49.32048" lon="0.8759">
        <ele>110</ele>
        <time>2013-10-13T10:06:28Z</time>
      </trkpt>
      <trkpt lat="49.32027" lon="0.87563">
        <ele>108</ele>
        <time>2013-10-13T10:06:36Z</time>
      </trkpt>
      <trkpt lat="49.32004" lon="0.87546">
        <ele>107</ele>
        <time>2013-10-13T10:06:42Z</time>
      </trkpt>
      <trkpt lat="49.31988" lon="0.87521">
        <ele>107</ele>
        <time>2013-10-13T10:06:46Z</time>
      </trkpt>
      <trkpt lat="49.31971" lon="0.87502">
        <ele>108</ele>
        <time>2013-10-13T10:06:50Z</time>
      </trkpt>
      <trkpt lat="49.31945" lon="0.8748">
        <ele>109</ele>
        <time>2013-10-13T10:06:56Z</time>
      </trkpt>
      <trkpt lat="49.31926" lon="0.87457">
        <ele>110</ele>
        <time>2013-10-13T10:07:02Z</time>
      </trkpt>
      <trkpt lat="49.31909" lon="0.87441">
        <ele>112</ele>
        <time>2013-10-13T10:07:08Z</time>
      </trkpt>
      <trkpt lat="49.31892" lon="0.8742">
        <ele>112</ele>
        <time>2013-10-13T10:07:14Z</time>
      </trkpt>
      <trkpt lat="49.31877" lon="0.87402">
        <ele>113</ele>
        <time>2013-10-13T10:07:20Z</time>
      </trkpt>
      <trkpt lat="49.31861" lon="0.87381">
        <ele>114</ele>
        <time>2013-10-13T10:07:26Z</time>
      </trkpt>
      <trkpt lat="49.31844" lon="0.87365">
        <ele>114</ele>
        <time>2013-10-13T10:07:32Z</time>
      </trkpt>
      <trkpt lat="49.31827" lon="0.87354">
        <ele>116</ele>
        <time>2013-10-13T10:07:38Z</time>
      </trkpt>
      <trkpt lat="49.31809" lon="0.8734">
        <ele>117</ele>
        <time>2013-10-13T10:07:44Z</time>
      </trkpt>
      <trkpt lat="49.31791" lon="0.87327">
        <ele>119</ele>
        <time>2013-10-13T10:07:50Z</time>
      </trkpt>
      <trkpt lat="49.31772" lon="0.87316">
        <ele>120</ele>
        <time>2013-10-13T10:07:56Z</time>
      </trkpt>
      <trkpt lat="49.31751" lon="0.87307">
        <ele>120</ele>
        <time>2013-10-13T10:08:02Z</time>
      </trkpt>
      <trkpt lat="49.31732" lon="0.87302">
        <ele>122</ele>
        <time>2013-10-13T10:08:08Z</time>
      </trkpt>
      <trkpt lat="49.31712" lon="0.87294">
        <ele>123</ele>
        <time>2013-10-13T10:08:16Z</time>
      </trkpt>
      <trkpt lat="49.3169" lon="0.87287">
        <ele>123</ele>
        <time>2013-10-13T10:08:24Z</time>
      </trkpt>
      <trkpt lat="49.31671" lon="0.87281">
        <ele>123</ele>
        <time>2013-10-13T10:08:30Z</time>
      </trkpt>
      <trkpt lat="49.31652" lon="0.87274">
        <ele>124</ele>
        <time>2013-10-13T10:08:38Z</time>
      </trkpt>
      <trkpt lat="49.31631" lon="0.87266">
        <ele>124</ele>
        <time>2013-10-13T10:08:44Z</time>
      </trkpt>
      <trkpt lat="49.3161" lon="0.87253">
        <ele>124</ele>
        <time>2013-10-13T10:08:50Z</time>
      </trkpt>
      <trkpt lat="49.31592" lon="0.87237">
        <ele>125</ele>
        <time>2013-10-13T10:08:56Z</time>
      </trkpt>
      <trkpt lat="49.31572" lon="0.87217">
        <ele>126</ele>
        <time>2013-10-13T10:09:02Z</time>
      </trkpt>
      <trkpt lat="49.31557" lon="0.87196">
        <ele>127</ele>
        <time>2013-10-13T10:09:08Z</time>
      </trkpt>
      <trkpt lat="49.3154" lon="0.87175">
        <ele>127</ele>
        <time>2013-10-13T10:09:14Z</time>
      </trkpt>
      <trkpt lat="49.31523" lon="0.87157">
        <ele>128</ele>
        <time>2013-10-13T10:09:20Z</time>
      </trkpt>
      <trkpt lat="49.31503" lon="0.87144">
        <ele>128</ele>
        <time>2013-10-13T10:09:26Z</time>
      </trkpt>
      <trkpt lat="49.31479" lon="0.87133">
        <ele>128</ele>
        <time>2013-10-13T10:09:32Z</time>
      </trkpt>
      <trkpt lat="49.31453" lon="0.87126">
        <ele>129</ele>
        <time>2013-10-13T10:09:38Z</time>
      </trkpt>
      <trkpt lat="49.31428" lon="0.87119">
        <ele>129</ele>
        <time>2013-10-13T10:09:44Z</time>
      </trkpt>
      <trkpt lat="49.3141" lon="0.87115">
        <ele>129</ele>
        <time>2013-10-13T10:09:48Z</time>
      </trkpt>
      <trkpt lat="49.3139" lon="0.87109">
        <ele>129</ele>
        <time>2013-10-13T10:09:52Z</time>
      </trkpt>
      <trkpt lat="49.31369" lon="0.87104">
        <ele>128</ele>
        <time>2013-10-13T10:09:56Z</time>
      </trkpt>
      <trkpt lat="49.31348" lon="0.87107">
        <ele>128</ele>
        <time>2013-10-13T10:10:00Z</time>
      </trkpt>
      <trkpt lat="49.31329" lon="0.87115">
        <ele>128</ele>
        <time>2013-10-13T10:10:04Z</time>
      </trkpt>
      <trkpt lat="49.3131" lon="0.87126">
        <ele>128</ele>
        <time>2013-10-13T10:10:08Z</time>
      </trkpt>
      <trkpt lat="49.31288" lon="0.87138">
        <ele>128</ele>
        <time>2013-10-13T10:10:12Z</time>
      </trkpt>
      <trkpt lat="49.31267" lon="0.8715">
        <ele>128</ele>
        <time>2013-10-13T10:10:16Z</time>
      </trkpt>
      <trkpt lat="49.31247" lon="0.87161">
        <ele>128</ele>
        <time>2013-10-13T10:10:20Z</time>
      </trkpt>
      <trkpt lat="49.31226" lon="0.87167">
        <ele>127</ele>
        <time>2013-10-13T10:10:24Z</time>
      </trkpt>
      <trkpt lat="49.31204" lon="0.87167">
        <ele>127</ele>
        <time>2013-10-13T10:10:28Z</time>
      </trkpt>
      <trkpt lat="49.31181" lon="0.87168">
        <ele>127</ele>
        <time>2013-10-13T10:10:32Z</time>
      </trkpt>
      <trkpt lat="49.3116" lon="0.8716">
        <ele>127</ele>
        <time>2013-10-13T10:10:36Z</time>
      </trkpt>
      <trkpt lat="49.31147" lon="0.87129">
        <ele>127</ele>
        <time>2013-10-13T10:10:40Z</time>
      </trkpt>
      <trkpt lat="49.31139" lon="0.87091">
        <ele>127</ele>
        <time>2013-10-13T10:10:44Z</time>
      </trkpt>
      <trkpt lat="49.31121" lon="0.87072">
        <ele>127</ele>
        <time>2013-10-13T10:10:48Z</time>
      </trkpt>
      <trkpt lat="49.31097" lon="0.87071">
        <ele>127</ele>
        <time>2013-10-13T10:10:52Z</time>
      </trkpt>
      <trkpt lat="49.31072" lon="0.87075">
        <ele>126</ele>
        <time>2013-10-13T10:10:56Z</time>
      </trkpt>
      <trkpt lat="49.31047" lon="0.8708">
        <ele>125</ele>
        <time>2013-10-13T10:11:00Z</time>
      </trkpt>
      <trkpt lat="49.31028" lon="0.87083">
        <ele>124</ele>
        <time>2013-10-13T10:11:04Z</time>
      </trkpt>
      <trkpt lat="49.31006" lon="0.87092">
        <ele>123</ele>
        <time>2013-10-13T10:11:10Z</time>
      </trkpt>
      <trkpt lat="49.30986" lon="0.87107">
        <ele>121</ele>
        <time>2013-10-13T10:11:16Z</time>
      </trkpt>
      <trkpt lat="49.3096" lon="0.87118">
        <ele>121</ele>
        <time>2013-10-13T10:11:20Z</time>
      </trkpt>
      <trkpt lat="49.30931" lon="0.87121">
        <ele>120</ele>
        <time>2013-10-13T10:11:24Z</time>
      </trkpt>
      <trkpt lat="49.30899" lon="0.87116">
        <ele>118</ele>
        <time>2013-10-13T10:11:28Z</time>
      </trkpt>
      <trkpt lat="49.3087" lon="0.8712">
        <ele>118</ele>
        <time>2013-10-13T10:11:32Z</time>
      </trkpt>
      <trkpt lat="49.30838" lon="0.87135">
        <ele>118</ele>
        <time>2013-10-13T10:11:36Z</time>
      </trkpt>
      <trkpt lat="49.30808" lon="0.87153">
        <ele>119</ele>
        <time>2013-10-13T10:11:40Z</time>
      </trkpt>
      <trkpt lat="49.3078" lon="0.87166">
        <ele>119</ele>
        <time>2013-10-13T10:11:44Z</time>
      </trkpt>
      <trkpt lat="49.30755" lon="0.87171">
        <ele>120</ele>
        <time>2013-10-13T10:11:48Z</time>
      </trkpt>
      <trkpt lat="49.3073" lon="0.87172">
        <ele>120</ele>
        <time>2013-10-13T10:11:52Z</time>
      </trkpt>
      <trkpt lat="49.30704" lon="0.87169">
        <ele>121</ele>
        <time>2013-10-13T10:11:56Z</time>
      </trkpt>
      <trkpt lat="49.30685" lon="0.87163">
        <ele>121</ele>
        <time>2013-10-13T10:12:00Z</time>
      </trkpt>
      <trkpt lat="49.30667" lon="0.8716">
        <ele>121</ele>
        <time>2013-10-13T10:12:04Z</time>
      </trkpt>
      <trkpt lat="49.30646" lon="0.87154">
        <ele>121</ele>
        <time>2013-10-13T10:12:08Z</time>
      </trkpt>
      <trkpt lat="49.30627" lon="0.87149">
        <ele>121</ele>
        <time>2013-10-13T10:12:12Z</time>
      </trkpt>
      <trkpt lat="49.30607" lon="0.87147">
        <ele>121</ele>
        <time>2013-10-13T10:12:16Z</time>
      </trkpt>
      <trkpt lat="49.30587" lon="0.87148">
        <ele>121</ele>
        <time>2013-10-13T10:12:20Z</time>
      </trkpt>
      <trkpt lat="49.30565" lon="0.87151">
        <ele>122</ele>
        <time>2013-10-13T10:12:24Z</time>
      </trkpt>
      <trkpt lat="49.30545" lon="0.87155">
        <ele>122</ele>
        <time>2013-10-13T10:12:28Z</time>
      </trkpt>
      <trkpt lat="49.30523" lon="0.87158">
        <ele>122</ele>
        <time>2013-10-13T10:12:32Z</time>
      </trkpt>
      <trkpt lat="49.30501" lon="0.87161">
        <ele>122</ele>
        <time>2013-10-13T10:12:36Z</time>
      </trkpt>
      <trkpt lat="49.30478" lon="0.87164">
        <ele>122</ele>
        <time>2013-10-13T10:12:40Z</time>
      </trkpt>
      <trkpt lat="49.30456" lon="0.87163">
        <ele>122</ele>
        <time>2013-10-13T10:12:44Z</time>
      </trkpt>
      <trkpt lat="49.30434" lon="0.87159">
        <ele>122</ele>
        <time>2013-10-13T10:12:48Z</time>
      </trkpt>
      <trkpt lat="49.30412" lon="0.87155">
        <ele>122</ele>
        <time>2013-10-13T10:12:52Z</time>
      </trkpt>
      <trkpt lat="49.3039" lon="0.87153">
        <ele>123</ele>
        <time>2013-10-13T10:12:56Z</time>
      </trkpt>
      <trkpt lat="49.30369" lon="0.87151">
        <ele>123</ele>
        <time>2013-10-13T10:13:00Z</time>
      </trkpt>
      <trkpt lat="49.30347" lon="0.87153">
        <ele>123</ele>
        <time>2013-10-13T10:13:04Z</time>
      </trkpt>
      <trkpt lat="49.30325" lon="0.87156">
        <ele>123</ele>
        <time>2013-10-13T10:13:08Z</time>
      </trkpt>
      <trkpt lat="49.30303" lon="0.87155">
        <ele>124</ele>
        <time>2013-10-13T10:13:12Z</time>
      </trkpt>
      <trkpt lat="49.30279" lon="0.87158">
        <ele>123</ele>
        <time>2013-10-13T10:13:16Z</time>
      </trkpt>
      <trkpt lat="49.30256" lon="0.87158">
        <ele>123</ele>
        <time>2013-10-13T10:13:20Z</time>
      </trkpt>
      <trkpt lat="49.30236" lon="0.87156">
        <ele>124</ele>
        <time>2013-10-13T10:13:24Z</time>
      </trkpt>
      <trkpt lat="49.30216" lon="0.87158">
        <ele>124</ele>
        <time>2013-10-13T10:13:28Z</time>
      </trkpt>
      <trkpt lat="49.30196" lon="0.87163">
        <ele>124</ele>
        <time>2013-10-13T10:13:32Z</time>
      </trkpt>
      <trkpt lat="49.30176" lon="0.87169">
        <ele>125</ele>
        <time>2013-10-13T10:13:36Z</time>
      </trkpt>
      <trkpt lat="49.30156" lon="0.87174">
        <ele>126</ele>
        <time>2013-10-13T10:13:40Z</time>
      </trkpt>
      <trkpt lat="49.30134" lon="0.87176">
        <ele>126</ele>
        <time>2013-10-13T10:13:44Z</time>
      </trkpt>
      <trkpt lat="49.30112" lon="0.87175">
        <ele>127</ele>
        <time>2013-10-13T10:13:48Z</time>
      </trkpt>
      <trkpt lat="49.30091" lon="0.87175">
        <ele>127</ele>
        <time>2013-10-13T10:13:52Z</time>
      </trkpt>
      <trkpt lat="49.30073" lon="0.87175">
        <ele>128</ele>
        <time>2013-10-13T10:13:56Z</time>
      </trkpt>
      <trkpt lat="49.30054" lon="0.87175">
        <ele>129</ele>
        <time>2013-10-13T10:14:00Z</time>
      </trkpt>
      <trkpt lat="49.30029" lon="0.87175">
        <ele>129</ele>
        <time>2013-10-13T10:14:06Z</time>
      </trkpt>
      <trkpt lat="49.30012" lon="0.8719">
        <ele>129</ele>
        <time>2013-10-13T10:14:14Z</time>
      </trkpt>
      <trkpt lat="49.29999" lon="0.87222">
        <ele>130</ele>
        <time>2013-10-13T10:14:20Z</time>
      </trkpt>
      <trkpt lat="49.29986" lon="0.87253">
        <ele>130</ele>
        <time>2013-10-13T10:14:26Z</time>
      </trkpt>
      <trkpt lat="49.29972" lon="0.87286">
        <ele>131</ele>
        <time>2013-10-13T10:14:32Z</time>
      </trkpt>
      <trkpt lat="49.29961" lon="0.87309">
        <ele>131</ele>
        <time>2013-10-13T10:14:38Z</time>
      </trkpt>
      <trkpt lat="49.2996" lon="0.87338">
        <ele>131</ele>
        <time>2013-10-13T10:14:46Z</time>
      </trkpt>
      <trkpt lat="49.29952" lon="0.87364">
        <ele>132</ele>
        <time>2013-10-13T10:14:52Z</time>
      </trkpt>
      <trkpt lat="49.29953" lon="0.874">
        <ele>132</ele>
        <time>2013-10-13T10:14:58Z</time>
      </trkpt>
      <trkpt lat="49.29955" lon="0.87428">
        <ele>132</ele>
        <time>2013-10-13T10:15:04Z</time>
      </trkpt>
      <trkpt lat="49.2995" lon="0.87458">
        <ele>132</ele>
        <time>2013-10-13T10:15:10Z</time>
      </trkpt>
      <trkpt lat="49.29947" lon="0.87491">
        <ele>132</ele>
        <time>2013-10-13T10:15:18Z</time>
      </trkpt>
      <trkpt lat="49.29937" lon="0.87528">
        <ele>132</ele>
        <time>2013-10-13T10:15:24Z</time>
      </trkpt>
      <trkpt lat="49.29933" lon="0.87566">
        <ele>132</ele>
        <time>2013-10-13T10:15:30Z</time>
      </trkpt>
      <trkpt lat="49.29944" lon="0.87601">
        <ele>131</ele>
        <time>2013-10-13T10:15:36Z</time>
      </trkpt>
      <trkpt lat="49.29945" lon="0.87632">
        <ele>130</ele>
        <time>2013-10-13T10:15:42Z</time>
      </trkpt>
      <trkpt lat="49.29935" lon="0.87656">
        <ele>131</ele>
        <time>2013-10-13T10:15:46Z</time>
      </trkpt>
      <trkpt lat="49.29928" lon="0.8769">
        <ele>129</ele>
        <time>2013-10-13T10:15:50Z</time>
      </trkpt>
      <trkpt lat="49.29925" lon="0.87721">
        <ele>128</ele>
        <time>2013-10-13T10:15:54Z</time>
      </trkpt>
      <trkpt lat="49.29922" lon="0.8775">
        <ele>128</ele>
        <time>2013-10-13T10:15:58Z</time>
      </trkpt>
      <trkpt lat="49.29916" lon="0.87787">
        <ele>129</ele>
        <time>2013-10-13T10:16:02Z</time>
      </trkpt>
      <trkpt lat="49.29915" lon="0.87822">
        <ele>129</ele>
        <time>2013-10-13T10:16:08Z</time>
      </trkpt>
      <trkpt lat="49.29902" lon="0.87862">
        <ele>130</ele>
        <time>2013-10-13T10:16:14Z</time>
      </trkpt>
      <trkpt lat="49.29882" lon="0.87883">
        <ele>130</ele>
        <time>2013-10-13T10:16:20Z</time>
      </trkpt>
      <trkpt lat="49.29858" lon="0.87879">
        <ele>131</ele>
        <time>2013-10-13T10:16:26Z</time>
      </trkpt>
      <trkpt lat="49.29847" lon="0.87854">
        <ele>131</ele>
        <time>2013-10-13T10:16:32Z</time>
      </trkpt>
      <trkpt lat="49.2986" lon="0.87827">
        <ele>130</ele>
        <time>2013-10-13T10:16:36Z</time>
      </trkpt>
      <trkpt lat="49.29879" lon="0.87818">
        <ele>130</ele>
        <time>2013-10-13T10:17:08Z</time>
      </trkpt>
    </trkseg>
  </trk>
</gpx>